Wetterdaten: Dienstag, 14.06.2016
Datum Zeit Temp. A. Feuchte A. Luftdruck Regen Wind Richtung Richtung Sonnenschein ET UV Solar Taupunkt Windchill Windben Empfang
14.06.2016 00:00 13,8 C 94 % 1001,9 hPa 0,0 l/m 3,9 km/h (1 Bft) S-SW 202 0 min 0,000 mm 0,0 UV-I 0 W/m 12,9 C 13,8 C 4,8 km/h (1 Bft) 95,65 %
14.06.2016 00:02 13,8 C 94 % 1001,8 hPa 0,0 l/m 4,0 km/h (1 Bft) S-SW 204 0 min 0,000 mm 0,0 UV-I 0 W/m 12,9 C 13,8 C 4,8 km/h (1 Bft) 100,00 %
14.06.2016 00:03 13,7 C 94 % 1001,8 hPa 0,0 l/m 3,3 km/h (1 Bft) S-SW 204 0 min 0,000 mm 0,0 UV-I 0 W/m 12,8 C 13,7 C 4,8 km/h (1 Bft) 100,00 %
14.06.2016 00:04 13,7 C 94 % 1001,9 hPa 0,0 l/m 4,0 km/h (1 Bft) S-SW 204 0 min 0,000 mm 0,0 UV-I 0 W/m 12,8 C 13,7 C 4,8 km/h (1 Bft) 100,00 %
14.06.2016 00:05 13,7 C 94 % 1001,9 hPa 0,0 l/m 5,0 km/h (1 Bft) S-SW 200 0 min 0,000 mm 0,0 UV-I 0 W/m 12,8 C 13,7 C 6,4 km/h (2 Bft) 100,00 %
14.06.2016 00:06 13,7 C 94 % 1001,8 hPa 0,0 l/m 3,3 km/h (1 Bft) S-SW 212 0 min 0,000 mm 0,0 UV-I 0 W/m 12,8 C 13,7 C 4,8 km/h (1 Bft) 96,15 %
14.06.2016 00:07 13,7 C 94 % 1001,8 hPa 0,0 l/m 3,3 km/h (1 Bft) SW 217 0 min 0,000 mm 0,0 UV-I 0 W/m 12,8 C 13,7 C 6,4 km/h (2 Bft) 100,00 %
14.06.2016 00:08 13,7 C 94 % 1001,8 hPa 0,0 l/m 2,3 km/h (1 Bft) SW 217 0 min 0,000 mm 0,0 UV-I 0 W/m 12,8 C 13,7 C 3,2 km/h (1 Bft) 100,00 %
14.06.2016 00:09 13,7 C 94 % 1001,9 hPa 0,0 l/m 3,1 km/h (1 Bft) SW 217 0 min 0,000 mm 0,0 UV-I 0 W/m 12,8 C 13,7 C 4,8 km/h (1 Bft) 100,00 %
14.06.2016 00:10 13,7 C 94 % 1001,8 hPa 0,0 l/m 3,7 km/h (1 Bft) SW 217 0 min 0,000 mm 0,0 UV-I 0 W/m 12,8 C 13,7 C 4,8 km/h (1 Bft) 96,15 %
14.06.2016 00:11 13,7 C 94 % 1001,8 hPa 0,0 l/m 2,6 km/h (1 Bft) SW 217 0 min 0,000 mm 0,0 UV-I 0 W/m 12,8 C 13,7 C 3,2 km/h (1 Bft) 95,83 %
14.06.2016 00:12 13,7 C 94 % 1001,8 hPa 0,0 l/m 2,7 km/h (1 Bft) SW 217 0 min 0,000 mm 0,0 UV-I 0 W/m 12,8 C 13,7 C 3,2 km/h (1 Bft) 100,00 %
14.06.2016 00:13 13,7 C 94 % 1001,8 hPa 0,0 l/m 4,1 km/h (1 Bft) S-SW 199 0 min 0,000 mm 0,0 UV-I 0 W/m 12,8 C 13,7 C 4,8 km/h (1 Bft) 100,00 %
14.06.2016 00:14 13,6 C 94 % 1001,8 hPa 0,0 l/m 4,3 km/h (1 Bft) S-SW 204 0 min 0,000 mm 0,0 UV-I 0 W/m 12,7 C 13,6 C 4,8 km/h (1 Bft) 100,00 %
14.06.2016 00:15 13,6 C 94 % 1001,8 hPa 0,0 l/m 3,2 km/h (1 Bft) S-SW 206 0 min 0,000 mm 0,0 UV-I 0 W/m 12,7 C 13,6 C 4,8 km/h (1 Bft) 100,00 %
14.06.2016 00:16 13,6 C 94 % 1001,8 hPa 0,0 l/m 3,2 km/h (1 Bft) S-SW 213 0 min 0,000 mm 0,0 UV-I 0 W/m 12,7 C 13,6 C 4,8 km/h (1 Bft) 100,00 %
14.06.2016 00:17 13,6 C 95 % 1001,8 hPa 0,0 l/m 2,0 km/h (1 Bft) S-SW 213 0 min 0,000 mm 0,0 UV-I 0 W/m 12,8 C 13,6 C 3,2 km/h (1 Bft) 100,00 %
14.06.2016 00:18 13,6 C 95 % 1001,8 hPa 0,0 l/m 2,7 km/h (1 Bft) S-SW 213 0 min 0,000 mm 0,0 UV-I 0 W/m 12,8 C 13,6 C 4,8 km/h (1 Bft) 100,00 %
14.06.2016 00:19 13,6 C 95 % 1001,8 hPa 0,0 l/m 3,8 km/h (1 Bft) S-SW 192 0 min 0,000 mm 0,0 UV-I 0 W/m 12,8 C 13,6 C 4,8 km/h (1 Bft) 100,00 %
14.06.2016 00:20 13,5 C 95 % 1001,8 hPa 0,0 l/m 3,5 km/h (1 Bft) S-SW 192 0 min 0,000 mm 0,0 UV-I 0 W/m 12,7 C 13,5 C 4,8 km/h (1 Bft) 100,00 %
14.06.2016 00:21 13,5 C 95 % 1001,8 hPa 0,0 l/m 2,8 km/h (1 Bft) S-SW 208 0 min 0,000 mm 0,0 UV-I 0 W/m 12,7 C 13,5 C 4,8 km/h (1 Bft) 95,83 %
14.06.2016 00:22 13,5 C 95 % 1001,8 hPa 0,0 l/m 3,9 km/h (1 Bft) S-SW 211 0 min 0,000 mm 0,0 UV-I 0 W/m 12,7 C 13,5 C 4,8 km/h (1 Bft) 100,00 %
14.06.2016 00:23 13,5 C 95 % 1001,8 hPa 0,0 l/m 2,3 km/h (1 Bft) S-SW 211 0 min 0,000 mm 0,0 UV-I 0 W/m 12,7 C 13,5 C 3,2 km/h (1 Bft) 100,00 %
14.06.2016 00:24 13,4 C 95 % 1001,8 hPa 0,0 l/m 2,6 km/h (1 Bft) S-SW 211 0 min 0,000 mm 0,0 UV-I 0 W/m 12,6 C 13,4 C 3,2 km/h (1 Bft) 95,83 %
14.06.2016 00:25 13,4 C 95 % 1001,8 hPa 0,0 l/m 2,8 km/h (1 Bft) S-SW 211 0 min 0,000 mm 0,0 UV-I 0 W/m 12,6 C 13,4 C 3,2 km/h (1 Bft) 100,00 %
14.06.2016 00:26 13,4 C 95 % 1001,8 hPa 0,0 l/m 1,9 km/h (1 Bft) S-SW 211 0 min 0,000 mm 0,0 UV-I 0 W/m 12,6 C 13,4 C 3,2 km/h (1 Bft) 100,00 %
14.06.2016 00:27 13,4 C 95 % 1001,7 hPa 0,0 l/m 2,8 km/h (1 Bft) S-SW 213 0 min 0,000 mm 0,0 UV-I 0 W/m 12,6 C 13,4 C 4,8 km/h (1 Bft) 100,00 %
14.06.2016 00:28 13,4 C 95 % 1001,7 hPa 0,0 l/m 2,7 km/h (1 Bft) S-SW 213 0 min 0,000 mm 0,0 UV-I 0 W/m 12,6 C 13,4 C 3,2 km/h (1 Bft) 100,00 %
14.06.2016 00:29 13,4 C 95 % 1001,8 hPa 0,0 l/m 3,5 km/h (1 Bft) S-SW 213 0 min 0,000 mm 0,0 UV-I 0 W/m 12,6 C 13,4 C 4,8 km/h (1 Bft) 96,15 %
14.06.2016 00:30 13,3 C 95 % 1001,7 hPa 0,0 l/m 3,2 km/h (1 Bft) S-SW 213 0 min 0,000 mm 0,0 UV-I 0 W/m 12,5 C 13,3 C 4,8 km/h (1 Bft) 100,00 %
14.06.2016 00:31 13,3 C 95 % 1001,7 hPa 0,0 l/m 2,5 km/h (1 Bft) S-SW 213 0 min 0,000 mm 0,0 UV-I 0 W/m 12,5 C 13,3 C 4,8 km/h (1 Bft) 95,65 %
14.06.2016 00:32 13,3 C 95 % 1001,7 hPa 0,0 l/m 2,1 km/h (1 Bft) S-SW 213 0 min 0,000 mm 0,0 UV-I 0 W/m 12,5 C 13,3 C 3,2 km/h (1 Bft) 100,00 %
14.06.2016 00:33 13,3 C 95 % 1001,7 hPa 0,0 l/m 3,5 km/h (1 Bft) S-SW 213 0 min 0,000 mm 0,0 UV-I 0 W/m 12,5 C 13,3 C 4,8 km/h (1 Bft) 100,00 %
14.06.2016 00:34 13,2 C 95 % 1001,7 hPa 0,0 l/m 4,4 km/h (1 Bft) S-SW 195 0 min 0,000 mm 0,0 UV-I 0 W/m 12,4 C 13,2 C 6,4 km/h (2 Bft) 100,00 %
14.06.2016 00:35 13,2 C 95 % 1001,7 hPa 0,0 l/m 3,4 km/h (1 Bft) S-SW 195 0 min 0,000 mm 0,0 UV-I 0 W/m 12,4 C 13,2 C 4,8 km/h (1 Bft) 100,00 %
14.06.2016 00:36 13,2 C 95 % 1001,7 hPa 0,0 l/m 3,5 km/h (1 Bft) S-SW 195 0 min 0,000 mm 0,0 UV-I 0 W/m 12,4 C 13,2 C 4,8 km/h (1 Bft) 100,00 %
14.06.2016 00:37 13,2 C 95 % 1001,7 hPa 0,0 l/m 3,5 km/h (1 Bft) S-SW 200 0 min 0,000 mm 0,0 UV-I 0 W/m 12,4 C 13,2 C 4,8 km/h (1 Bft) 100,00 %
14.06.2016 00:38 13,2 C 95 % 1001,7 hPa 0,0 l/m 3,4 km/h (1 Bft) S-SW 200 0 min 0,000 mm 0,0 UV-I 0 W/m 12,4 C 13,2 C 4,8 km/h (1 Bft) 100,00 %
14.06.2016 00:39 13,2 C 95 % 1001,7 hPa 0,0 l/m 2,8 km/h (1 Bft) S-SW 200 0 min 0,000 mm 0,0 UV-I 0 W/m 12,4 C 13,2 C 4,8 km/h (1 Bft) 100,00 %
14.06.2016 00:40 13,2 C 96 % 1001,7 hPa 0,0 l/m 3,9 km/h (1 Bft) S-SW 201 0 min 0,000 mm 0,0 UV-I 0 W/m 12,6 C 13,2 C 4,8 km/h (1 Bft) 100,00 %
14.06.2016 00:41 13,2 C 95 % 1001,7 hPa 0,0 l/m 3,6 km/h (1 Bft) S-SW 205 0 min 0,000 mm 0,0 UV-I 0 W/m 12,4 C 13,2 C 4,8 km/h (1 Bft) 100,00 %
14.06.2016 00:42 13,2 C 95 % 1001,7 hPa 0,0 l/m 4,3 km/h (1 Bft) SW 215 0 min 0,000 mm 0,0 UV-I 0 W/m 12,4 C 13,2 C 6,4 km/h (2 Bft) 100,00 %
14.06.2016 00:43 13,2 C 95 % 1001,7 hPa 0,0 l/m 3,4 km/h (1 Bft) SW 215 0 min 0,000 mm 0,0 UV-I 0 W/m 12,4 C 13,2 C 4,8 km/h (1 Bft) 100,00 %
14.06.2016 00:44 13,2 C 95 % 1001,7 hPa 0,0 l/m 3,3 km/h (1 Bft) SW 215 0 min 0,000 mm 0,0 UV-I 0 W/m 12,4 C 13,2 C 4,8 km/h (1 Bft) 100,00 %
14.06.2016 00:45 13,2 C 95 % 1001,7 hPa 0,0 l/m 3,0 km/h (1 Bft) SW 215 0 min 0,000 mm 0,0 UV-I 0 W/m 12,4 C 13,2 C 4,8 km/h (1 Bft) 100,00 %
14.06.2016 00:46 13,2 C 95 % 1001,7 hPa 0,0 l/m 3,3 km/h (1 Bft) SW 215 0 min 0,000 mm 0,0 UV-I 0 W/m 12,4 C 13,2 C 4,8 km/h (1 Bft) 100,00 %
14.06.2016 00:47 13,2 C 96 % 1001,7 hPa 0,0 l/m 3,3 km/h (1 Bft) SW 215 0 min 0,000 mm 0,0 UV-I 0 W/m 12,6 C 13,2 C 4,8 km/h (1 Bft) 100,00 %
14.06.2016 00:48 13,2 C 95 % 1001,7 hPa 0,0 l/m 2,3 km/h (1 Bft) SW 215 0 min 0,000 mm 0,0 UV-I 0 W/m 12,4 C 13,2 C 3,2 km/h (1 Bft) 100,00 %
14.06.2016 00:49 13,2 C 96 % 1001,6 hPa 0,0 l/m 2,1 km/h (1 Bft) SW 215 0 min 0,000 mm 0,0 UV-I 0 W/m 12,6 C 13,2 C 3,2 km/h (1 Bft) 100,00 %
14.06.2016 00:50 13,2 C 95 % 1001,6 hPa 0,0 l/m 2,5 km/h (1 Bft) SW 215 0 min 0,000 mm 0,0 UV-I 0 W/m 12,4 C 13,2 C 3,2 km/h (1 Bft) 100,00 %
14.06.2016 00:51 13,2 C 96 % 1001,6 hPa 0,0 l/m 3,2 km/h (1 Bft) SW 215 0 min 0,000 mm 0,0 UV-I 0 W/m 12,6 C 13,2 C 4,8 km/h (1 Bft) 100,00 %
14.06.2016 00:52 13,2 C 96 % 1001,6 hPa 0,0 l/m 2,7 km/h (1 Bft) SW 215 0 min 0,000 mm 0,0 UV-I 0 W/m 12,6 C 13,2 C 4,8 km/h (1 Bft) 100,00 %
14.06.2016 00:53 13,2 C 95 % 1001,6 hPa 0,0 l/m 2,4 km/h (1 Bft) SW 215 0 min 0,000 mm 0,0 UV-I 0 W/m 12,4 C 13,2 C 4,8 km/h (1 Bft) 100,00 %
14.06.2016 00:54 13,2 C 95 % 1001,6 hPa 0,0 l/m 3,6 km/h (1 Bft) SW 226 0 min 0,000 mm 0,0 UV-I 0 W/m 12,4 C 13,2 C 4,8 km/h (1 Bft) 100,00 %
14.06.2016 00:55 13,2 C 95 % 1001,6 hPa 0,0 l/m 3,4 km/h (1 Bft) SW 225 0 min 0,000 mm 0,0 UV-I 0 W/m 12,4 C 13,2 C 4,8 km/h (1 Bft) 100,00 %
14.06.2016 00:56 13,2 C 95 % 1001,6 hPa 0,0 l/m 4,9 km/h (1 Bft) S-SW 205 0 min 0,000 mm 0,0 UV-I 0 W/m 12,4 C 13,2 C 6,4 km/h (2 Bft) 100,00 %
14.06.2016 00:57 13,2 C 95 % 1001,6 hPa 0,0 l/m 4,7 km/h (1 Bft) S-SW 205 0 min 0,000 mm 0,0 UV-I 0 W/m 12,4 C 13,2 C 6,4 km/h (2 Bft) 100,00 %
14.06.2016 00:58 13,2 C 95 % 1001,6 hPa 0,0 l/m 5,1 km/h (1 Bft) SW 218 0 min 0,000 mm 0,0 UV-I 0 W/m 12,4 C 13,2 C 6,4 km/h (2 Bft) 96,30 %
14.06.2016 00:59 13,2 C 95 % 1001,6 hPa 0,0 l/m 3,7 km/h (1 Bft) SW 225 0 min 0,000 mm 0,0 UV-I 0 W/m 12,4 C 13,2 C 6,4 km/h (2 Bft) 100,00 %
14.06.2016 01:00 13,2 C 95 % 1001,6 hPa 0,0 l/m 3,8 km/h (1 Bft) SW 225 0 min 0,000 mm 0,0 UV-I 0 W/m 12,4 C 13,2 C 4,8 km/h (1 Bft) 100,00 %
14.06.2016 01:01 13,2 C 95 % 1001,6 hPa 0,0 l/m 4,4 km/h (1 Bft) SW 224 0 min 0,000 mm 0,0 UV-I 0 W/m 12,4 C 13,2 C 4,8 km/h (1 Bft) 100,00 %
14.06.2016 01:02 13,2 C 95 % 1001,6 hPa 0,0 l/m 4,2 km/h (1 Bft) SW 225 0 min 0,000 mm 0,0 UV-I 0 W/m 12,4 C 13,2 C 4,8 km/h (1 Bft) 100,00 %
14.06.2016 01:03 13,2 C 95 % 1001,6 hPa 0,0 l/m 4,6 km/h (1 Bft) SW 225 0 min 0,000 mm 0,0 UV-I 0 W/m 12,4 C 13,2 C 4,8 km/h (1 Bft) 92,86 %
14.06.2016 01:04 13,1 C 95 % 1001,5 hPa 0,0 l/m 4,0 km/h (1 Bft) SW 225 0 min 0,000 mm 0,0 UV-I 0 W/m 12,3 C 13,1 C 4,8 km/h (1 Bft) 100,00 %
14.06.2016 01:05 13,1 C 95 % 1001,6 hPa 0,0 l/m 3,6 km/h (1 Bft) SW 225 0 min 0,000 mm 0,0 UV-I 0 W/m 12,3 C 13,1 C 4,8 km/h (1 Bft) 95,65 %
14.06.2016 01:06 13,1 C 95 % 1001,6 hPa 0,0 l/m 3,6 km/h (1 Bft) SW 225 0 min 0,000 mm 0,0 UV-I 0 W/m 12,3 C 13,1 C 4,8 km/h (1 Bft) 100,00 %
14.06.2016 01:07 13,1 C 96 % 1001,6 hPa 0,0 l/m 3,1 km/h (1 Bft) SW 225 0 min 0,000 mm 0,0 UV-I 0 W/m 12,5 C 13,1 C 4,8 km/h (1 Bft) 96,15 %
14.06.2016 01:08 13,1 C 96 % 1001,5 hPa 0,0 l/m 3,7 km/h (1 Bft) SW 225 0 min 0,000 mm 0,0 UV-I 0 W/m 12,5 C 13,1 C 4,8 km/h (1 Bft) 95,83 %
14.06.2016 01:09 13,1 C 96 % 1001,5 hPa 0,0 l/m 3,2 km/h (1 Bft) SW 225 0 min 0,000 mm 0,0 UV-I 0 W/m 12,5 C 13,1 C 4,8 km/h (1 Bft) 92,86 %
14.06.2016 01:10 13,1 C 96 % 1001,5 hPa 0,0 l/m 3,4 km/h (1 Bft) SW 225 0 min 0,000 mm 0,0 UV-I 0 W/m 12,5 C 13,1 C 4,8 km/h (1 Bft) 96,30 %
14.06.2016 01:11 13,1 C 96 % 1001,5 hPa 0,0 l/m 2,5 km/h (1 Bft) SW 225 0 min 0,000 mm 0,0 UV-I 0 W/m 12,5 C 13,1 C 3,2 km/h (1 Bft) 96,15 %
14.06.2016 01:12 13,0 C 96 % 1001,5 hPa 0,0 l/m 3,2 km/h (1 Bft) SW 225 0 min 0,000 mm 0,0 UV-I 0 W/m 12,4 C 13,0 C 4,8 km/h (1 Bft) 100,00 %
14.06.2016 01:13 13,0 C 96 % 1001,5 hPa 0,0 l/m 2,7 km/h (1 Bft) SW 225 0 min 0,000 mm 0,0 UV-I 0 W/m 12,4 C 13,0 C 3,2 km/h (1 Bft) 95,45 %
14.06.2016 01:14 13,0 C 96 % 1001,5 hPa 0,0 l/m 3,5 km/h (1 Bft) SW 225 0 min 0,000 mm 0,0 UV-I 0 W/m 12,4 C 13,0 C 4,8 km/h (1 Bft) 100,00 %
14.06.2016 01:15 13,0 C 96 % 1001,5 hPa 0,0 l/m 3,0 km/h (1 Bft) SW 225 0 min 0,000 mm 0,0 UV-I 0 W/m 12,4 C 13,0 C 4,8 km/h (1 Bft) 95,65 %
14.06.2016 01:16 12,9 C 96 % 1001,5 hPa 0,0 l/m 3,3 km/h (1 Bft) SW 225 0 min 0,000 mm 0,0 UV-I 0 W/m 12,3 C 12,9 C 4,8 km/h (1 Bft) 100,00 %
14.06.2016 01:17 12,9 C 96 % 1001,5 hPa 0,0 l/m 2,9 km/h (1 Bft) SW 225 0 min 0,000 mm 0,0 UV-I 0 W/m 12,3 C 12,9 C 4,8 km/h (1 Bft) 95,83 %
14.06.2016 01:18 12,9 C 96 % 1001,5 hPa 0,0 l/m 2,8 km/h (1 Bft) SW 225 0 min 0,000 mm 0,0 UV-I 0 W/m 12,3 C 12,9 C 3,2 km/h (1 Bft) 95,65 %
14.06.2016 01:19 12,9 C 96 % 1001,5 hPa 0,0 l/m 2,8 km/h (1 Bft) SW 225 0 min 0,000 mm 0,0 UV-I 0 W/m 12,3 C 12,9 C 3,2 km/h (1 Bft) 100,00 %
14.06.2016 01:20 12,9 C 96 % 1001,5 hPa 0,0 l/m 2,7 km/h (1 Bft) SW 225 0 min 0,000 mm 0,0 UV-I 0 W/m 12,3 C 12,9 C 4,8 km/h (1 Bft) 96,15 %
14.06.2016 01:21 12,9 C 96 % 1001,5 hPa 0,0 l/m 2,8 km/h (1 Bft) SW 225 0 min 0,000 mm 0,0 UV-I 0 W/m 12,3 C 12,9 C 3,2 km/h (1 Bft) 96,30 %
14.06.2016 01:22 12,9 C 96 % 1001,5 hPa 0,0 l/m 2,7 km/h (1 Bft) SW 225 0 min 0,000 mm 0,0 UV-I 0 W/m 12,3 C 12,9 C 3,2 km/h (1 Bft) 100,00 %
14.06.2016 01:23 12,9 C 96 % 1001,5 hPa 0,0 l/m 3,5 km/h (1 Bft) SW 225 0 min 0,000 mm 0,0 UV-I 0 W/m 12,3 C 12,9 C 4,8 km/h (1 Bft) 96,30 %
14.06.2016 01:24 12,9 C 96 % 1001,5 hPa 0,0 l/m 3,2 km/h (1 Bft) SW 225 0 min 0,000 mm 0,0 UV-I 0 W/m 12,3 C 12,9 C 4,8 km/h (1 Bft) 95,65 %
14.06.2016 01:25 12,9 C 96 % 1001,5 hPa 0,0 l/m 4,6 km/h (1 Bft) SW 225 0 min 0,000 mm 0,0 UV-I 0 W/m 12,3 C 12,9 C 6,4 km/h (2 Bft) 100,00 %
14.06.2016 01:26 12,8 C 96 % 1001,5 hPa 0,0 l/m 3,4 km/h (1 Bft) SW 225 0 min 0,000 mm 0,0 UV-I 0 W/m 12,2 C 12,8 C 4,8 km/h (1 Bft) 92,86 %
14.06.2016 01:27 12,8 C 96 % 1001,5 hPa 0,0 l/m 3,4 km/h (1 Bft) SW 225 0 min 0,000 mm 0,0 UV-I 0 W/m 12,2 C 12,8 C 4,8 km/h (1 Bft) 100,00 %
14.06.2016 01:28 12,8 C 96 % 1001,5 hPa 0,0 l/m 3,6 km/h (1 Bft) SW 225 0 min 0,000 mm 0,0 UV-I 0 W/m 12,2 C 12,8 C 4,8 km/h (1 Bft) 96,15 %
14.06.2016 01:29 12,8 C 96 % 1001,5 hPa 0,0 l/m 3,4 km/h (1 Bft) SW 225 0 min 0,000 mm 0,0 UV-I 0 W/m 12,2 C 12,8 C 4,8 km/h (1 Bft) 100,00 %
14.06.2016 01:30 12,8 C 96 % 1001,6 hPa 0,0 l/m 4,5 km/h (1 Bft) SW 225 0 min 0,000 mm 0,0 UV-I 0 W/m 12,2 C 12,8 C 6,4 km/h (2 Bft) 95,65 %
14.06.2016 01:31 12,8 C 96 % 1001,6 hPa 0,0 l/m 3,4 km/h (1 Bft) SW 224 0 min 0,000 mm 0,0 UV-I 0 W/m 12,2 C 12,8 C 4,8 km/h (1 Bft) 95,83 %
14.06.2016 01:32 12,8 C 96 % 1001,6 hPa 0,0 l/m 4,3 km/h (1 Bft) SW 224 0 min 0,000 mm 0,0 UV-I 0 W/m 12,2 C 12,8 C 6,4 km/h (2 Bft) 100,00 %
14.06.2016 01:33 12,8 C 96 % 1001,5 hPa 0,0 l/m 3,6 km/h (1 Bft) SW 224 0 min 0,000 mm 0,0 UV-I 0 W/m 12,2 C 12,8 C 4,8 km/h (1 Bft) 100,00 %
14.06.2016 01:34 12,8 C 96 % 1001,5 hPa 0,0 l/m 4,4 km/h (1 Bft) SW 224 0 min 0,000 mm 0,0 UV-I 0 W/m 12,2 C 12,8 C 6,4 km/h (2 Bft) 96,15 %
14.06.2016 01:35 12,7 C 96 % 1001,5 hPa 0,0 l/m 4,5 km/h (1 Bft) S-SW 205 0 min 0,000 mm 0,0 UV-I 0 W/m 12,1 C 12,7 C 6,4 km/h (2 Bft) 100,00 %
14.06.2016 01:36 12,8 C 96 % 1001,5 hPa 0,0 l/m 3,9 km/h (1 Bft) S-SW 205 0 min 0,000 mm 0,0 UV-I 0 W/m 12,2 C 12,8 C 4,8 km/h (1 Bft) 100,00 %
14.06.2016 01:37 12,8 C 96 % 1001,6 hPa 0,0 l/m 4,4 km/h (1 Bft) S-SW 206 0 min 0,000 mm 0,0 UV-I 0 W/m 12,2 C 12,8 C 4,8 km/h (1 Bft) 95,83 %
14.06.2016 01:38 12,7 C 96 % 1001,5 hPa 0,0 l/m 3,4 km/h (1 Bft) S-SW 206 0 min 0,000 mm 0,0 UV-I 0 W/m 12,1 C 12,7 C 4,8 km/h (1 Bft) 100,00 %
14.06.2016 01:39 12,7 C 96 % 1001,5 hPa 0,0 l/m 4,3 km/h (1 Bft) S-SW 206 0 min 0,000 mm 0,0 UV-I 0 W/m 12,1 C 12,7 C 4,8 km/h (1 Bft) 100,00 %
14.06.2016 01:40 12,7 C 96 % 1001,5 hPa 0,0 l/m 5,3 km/h (1 Bft) S-SW 206 0 min 0,000 mm 0,0 UV-I 0 W/m 12,1 C 12,7 C 6,4 km/h (2 Bft) 100,00 %
14.06.2016 01:41 12,7 C 96 % 1001,6 hPa 0,0 l/m 4,7 km/h (1 Bft) S-SW 199 0 min 0,000 mm 0,0 UV-I 0 W/m 12,1 C 12,7 C 4,8 km/h (1 Bft) 100,00 %
14.06.2016 01:42 12,8 C 96 % 1001,5 hPa 0,0 l/m 4,9 km/h (1 Bft) S-SW 194 0 min 0,000 mm 0,0 UV-I 0 W/m 12,2 C 12,8 C 6,4 km/h (2 Bft) 100,00 %
14.06.2016 01:43 12,8 C 96 % 1001,5 hPa 0,0 l/m 5,5 km/h (1 Bft) S-SW 196 0 min 0,000 mm 0,0 UV-I 0 W/m 12,2 C 12,8 C 8,0 km/h (2 Bft) 100,00 %
14.06.2016 01:44 12,8 C 96 % 1001,5 hPa 0,0 l/m 3,7 km/h (1 Bft) S 178 0 min 0,000 mm 0,0 UV-I 0 W/m 12,2 C 12,8 C 6,4 km/h (2 Bft) 100,00 %
14.06.2016 01:45 12,8 C 96 % 1001,5 hPa 0,0 l/m 5,9 km/h (2 Bft) S 188 0 min 0,000 mm 0,0 UV-I 0 W/m 12,2 C 12,8 C 6,4 km/h (2 Bft) 100,00 %
14.06.2016 01:46 12,8 C 96 % 1001,4 hPa 0,0 l/m 4,6 km/h (1 Bft) S 187 0 min 0,000 mm 0,0 UV-I 0 W/m 12,2 C 12,8 C 6,4 km/h (2 Bft) 95,83 %
14.06.2016 01:47 12,7 C 96 % 1001,5 hPa 0,0 l/m 4,2 km/h (1 Bft) S-SW 197 0 min 0,000 mm 0,0 UV-I 0 W/m 12,1 C 12,7 C 6,4 km/h (2 Bft) 100,00 %
14.06.2016 01:48 12,7 C 96 % 1001,4 hPa 0,0 l/m 4,7 km/h (1 Bft) S-SW 199 0 min 0,000 mm 0,0 UV-I 0 W/m 12,1 C 12,7 C 6,4 km/h (2 Bft) 100,00 %
14.06.2016 01:49 12,8 C 96 % 1001,4 hPa 0,0 l/m 4,7 km/h (1 Bft) S-SW 196 0 min 0,000 mm 0,0 UV-I 0 W/m 12,2 C 12,8 C 6,4 km/h (2 Bft) 90,91 %
14.06.2016 01:50 12,8 C 96 % 1001,4 hPa 0,0 l/m 4,5 km/h (1 Bft) S-SW 205 0 min 0,000 mm 0,0 UV-I 0 W/m 12,2 C 12,8 C 4,8 km/h (1 Bft) 100,00 %
14.06.2016 01:51 12,8 C 96 % 1001,4 hPa 0,0 l/m 4,3 km/h (1 Bft) S-SW 205 0 min 0,000 mm 0,0 UV-I 0 W/m 12,2 C 12,8 C 4,8 km/h (1 Bft) 100,00 %
14.06.2016 01:52 12,8 C 96 % 1001,4 hPa 0,0 l/m 5,1 km/h (1 Bft) SW 214 0 min 0,000 mm 0,0 UV-I 0 W/m 12,2 C 12,8 C 8,0 km/h (2 Bft) 100,00 %
14.06.2016 01:53 12,8 C 96 % 1001,4 hPa 0,0 l/m 4,4 km/h (1 Bft) S-SW 197 0 min 0,000 mm 0,0 UV-I 0 W/m 12,2 C 12,8 C 6,4 km/h (2 Bft) 100,00 %
14.06.2016 01:54 12,8 C 96 % 1001,4 hPa 0,0 l/m 5,6 km/h (1 Bft) S-SW 193 0 min 0,000 mm 0,0 UV-I 0 W/m 12,2 C 12,8 C 8,0 km/h (2 Bft) 100,00 %
14.06.2016 01:55 12,8 C 96 % 1001,4 hPa 0,0 l/m 5,8 km/h (2 Bft) S-SW 204 0 min 0,000 mm 0,0 UV-I 0 W/m 12,2 C 12,8 C 6,4 km/h (2 Bft) 100,00 %
14.06.2016 01:56 12,8 C 96 % 1001,4 hPa 0,0 l/m 5,4 km/h (1 Bft) S-SW 205 0 min 0,000 mm 0,0 UV-I 0 W/m 12,2 C 12,8 C 8,0 km/h (2 Bft) 100,00 %
14.06.2016 01:57 12,8 C 96 % 1001,4 hPa 0,0 l/m 3,9 km/h (1 Bft) S-SW 208 0 min 0,000 mm 0,0 UV-I 0 W/m 12,2 C 12,8 C 4,8 km/h (1 Bft) 100,00 %
14.06.2016 01:58 12,8 C 96 % 1001,4 hPa 0,0 l/m 4,8 km/h (1 Bft) S-SW 211 0 min 0,000 mm 0,0 UV-I 0 W/m 12,2 C 12,8 C 6,4 km/h (2 Bft) 100,00 %
14.06.2016 01:59 12,8 C 96 % 1001,4 hPa 0,0 l/m 4,7 km/h (1 Bft) S-SW 212 0 min 0,000 mm 0,0 UV-I 0 W/m 12,2 C 12,8 C 8,0 km/h (2 Bft) 100,00 %
14.06.2016 02:00 12,8 C 96 % 1001,4 hPa 0,0 l/m 5,5 km/h (1 Bft) S-SW 208 0 min 0,000 mm 0,0 UV-I 0 W/m 12,2 C 12,8 C 8,0 km/h (2 Bft) 100,00 %
14.06.2016 02:01 12,7 C 96 % 1001,4 hPa 0,0 l/m 5,2 km/h (1 Bft) SW 217 0 min 0,000 mm 0,0 UV-I 0 W/m 12,1 C 12,7 C 8,0 km/h (2 Bft) 95,83 %
14.06.2016 02:02 12,7 C 96 % 1001,4 hPa 0,0 l/m 5,1 km/h (1 Bft) S-SW 205 0 min 0,000 mm 0,0 UV-I 0 W/m 12,1 C 12,7 C 6,4 km/h (2 Bft) 96,15 %
14.06.2016 02:03 12,7 C 96 % 1001,4 hPa 0,0 l/m 4,8 km/h (1 Bft) S-SW 206 0 min 0,000 mm 0,0 UV-I 0 W/m 12,1 C 12,7 C 6,4 km/h (2 Bft) 95,83 %
14.06.2016 02:04 12,7 C 96 % 1001,3 hPa 0,0 l/m 4,1 km/h (1 Bft) S-SW 212 0 min 0,000 mm 0,0 UV-I 0 W/m 12,1 C 12,7 C 4,8 km/h (1 Bft) 95,65 %
14.06.2016 02:05 12,7 C 96 % 1001,4 hPa 0,0 l/m 4,4 km/h (1 Bft) S-SW 210 0 min 0,000 mm 0,0 UV-I 0 W/m 12,1 C 12,7 C 6,4 km/h (2 Bft) 100,00 %
14.06.2016 02:06 12,8 C 96 % 1001,4 hPa 0,0 l/m 4,5 km/h (1 Bft) S-SW 205 0 min 0,000 mm 0,0 UV-I 0 W/m 12,2 C 12,8 C 6,4 km/h (2 Bft) 100,00 %
14.06.2016 02:07 12,7 C 96 % 1001,4 hPa 0,0 l/m 4,8 km/h (1 Bft) SW 219 0 min 0,000 mm 0,0 UV-I 0 W/m 12,1 C 12,7 C 6,4 km/h (2 Bft) 100,00 %
14.06.2016 02:08 12,8 C 96 % 1001,4 hPa 0,0 l/m 5,6 km/h (1 Bft) S-SW 192 0 min 0,000 mm 0,0 UV-I 0 W/m 12,2 C 12,8 C 6,4 km/h (2 Bft) 100,00 %
14.06.2016 02:09 12,8 C 96 % 1001,3 hPa 0,0 l/m 5,1 km/h (1 Bft) SW 221 0 min 0,000 mm 0,0 UV-I 0 W/m 12,2 C 12,8 C 6,4 km/h (2 Bft) 100,00 %
14.06.2016 02:10 12,8 C 96 % 1001,4 hPa 0,0 l/m 5,3 km/h (1 Bft) SW 217 0 min 0,000 mm 0,0 UV-I 0 W/m 12,2 C 12,8 C 8,0 km/h (2 Bft) 100,00 %
14.06.2016 02:11 12,8 C 96 % 1001,4 hPa 0,0 l/m 5,7 km/h (1 Bft) S-SW 212 0 min 0,000 mm 0,0 UV-I 0 W/m 12,2 C 12,8 C 8,0 km/h (2 Bft) 100,00 %
14.06.2016 02:12 12,8 C 96 % 1001,3 hPa 0,0 l/m 4,4 km/h (1 Bft) S-SW 208 0 min 0,000 mm 0,0 UV-I 0 W/m 12,2 C 12,8 C 6,4 km/h (2 Bft) 100,00 %
14.06.2016 02:13 12,8 C 96 % 1001,3 hPa 0,0 l/m 4,8 km/h (1 Bft) SW 215 0 min 0,000 mm 0,0 UV-I 0 W/m 12,2 C 12,8 C 8,0 km/h (2 Bft) 100,00 %
14.06.2016 02:14 12,8 C 96 % 1001,3 hPa 0,0 l/m 4,1 km/h (1 Bft) S-SW 194 0 min 0,000 mm 0,0 UV-I 0 W/m 12,2 C 12,8 C 6,4 km/h (2 Bft) 100,00 %
14.06.2016 02:15 12,8 C 96 % 1001,3 hPa 0,0 l/m 5,0 km/h (1 Bft) SW 221 0 min 0,000 mm 0,0 UV-I 0 W/m 12,2 C 12,8 C 6,4 km/h (2 Bft) 100,00 %
14.06.2016 02:16 12,8 C 96 % 1001,3 hPa 0,0 l/m 4,9 km/h (1 Bft) SW 230 0 min 0,000 mm 0,0 UV-I 0 W/m 12,2 C 12,8 C 6,4 km/h (2 Bft) 100,00 %
14.06.2016 02:17 12,8 C 96 % 1001,3 hPa 0,0 l/m 4,4 km/h (1 Bft) SW 215 0 min 0,000 mm 0,0 UV-I 0 W/m 12,2 C 12,8 C 6,4 km/h (2 Bft) 100,00 %
14.06.2016 02:18 12,8 C 96 % 1001,3 hPa 0,0 l/m 4,8 km/h (1 Bft) SW 232 0 min 0,000 mm 0,0 UV-I 0 W/m 12,2 C 12,8 C 9,7 km/h (2 Bft) 100,00 %
14.06.2016 02:19 12,8 C 96 % 1001,3 hPa 0,2 l/m 5,3 km/h (1 Bft) SW 222 0 min 0,000 mm 0,0 UV-I 0 W/m 12,2 C 12,8 C 8,0 km/h (2 Bft) 100,00 %
14.06.2016 02:20 12,8 C 96 % 1001,3 hPa 0,0 l/m 4,9 km/h (1 Bft) S-SW 199 0 min 0,000 mm 0,0 UV-I 0 W/m 12,2 C 12,8 C 6,4 km/h (2 Bft) 100,00 %
14.06.2016 02:21 12,8 C 96 % 1001,3 hPa 0,0 l/m 4,9 km/h (1 Bft) W-SW 238 0 min 0,000 mm 0,0 UV-I 0 W/m 12,2 C 12,8 C 8,0 km/h (2 Bft) 100,00 %
14.06.2016 02:22 12,8 C 96 % 1001,3 hPa 0,0 l/m 6,1 km/h (2 Bft) W-SW 247 0 min 0,000 mm 0,0 UV-I 0 W/m 12,2 C 12,8 C 8,0 km/h (2 Bft) 100,00 %
14.06.2016 02:23 12,8 C 96 % 1001,3 hPa 0,0 l/m 4,5 km/h (1 Bft) W-SW 246 0 min 0,000 mm 0,0 UV-I 0 W/m 12,2 C 12,8 C 8,0 km/h (2 Bft) 100,00 %
14.06.2016 02:24 12,8 C 96 % 1001,3 hPa 0,0 l/m 5,1 km/h (1 Bft) SW 228 0 min 0,000 mm 0,0 UV-I 0 W/m 12,2 C 12,8 C 9,7 km/h (2 Bft) 98,92 %
14.06.2016 02:25 12,8 C 96 % 1001,3 hPa 0,0 l/m 6,1 km/h (2 Bft) SW 231 0 min 0,000 mm 0,0 UV-I 0 W/m 12,2 C 12,8 C 9,7 km/h (2 Bft) 100,00 %
14.06.2016 02:26 12,8 C 96 % 1001,3 hPa 0,0 l/m 5,1 km/h (1 Bft) SW 217 0 min 0,000 mm 0,0 UV-I 0 W/m 12,2 C 12,8 C 6,4 km/h (2 Bft) 96,30 %
14.06.2016 02:27 12,8 C 96 % 1001,2 hPa 0,0 l/m 6,1 km/h (2 Bft) SW 218 0 min 0,000 mm 0,0 UV-I 0 W/m 12,2 C 12,8 C 8,0 km/h (2 Bft) 100,00 %
14.06.2016 02:28 12,8 C 96 % 1001,2 hPa 0,0 l/m 5,0 km/h (1 Bft) SW 218 0 min 0,000 mm 0,0 UV-I 0 W/m 12,2 C 12,8 C 6,4 km/h (2 Bft) 100,00 %
14.06.2016 02:29 12,8 C 96 % 1001,2 hPa 0,0 l/m 5,2 km/h (1 Bft) SW 234 0 min 0,000 mm 0,0 UV-I 0 W/m 12,2 C 12,8 C 6,4 km/h (2 Bft) 100,00 %
14.06.2016 02:30 12,8 C 96 % 1001,2 hPa 0,0 l/m 5,6 km/h (1 Bft) W-SW 239 0 min 0,000 mm 0,0 UV-I 0 W/m 12,2 C 12,8 C 8,0 km/h (2 Bft) 100,00 %
14.06.2016 02:31 12,8 C 96 % 1001,2 hPa 0,0 l/m 6,3 km/h (2 Bft) S 182 0 min 0,000 mm 0,0 UV-I 0 W/m 12,2 C 12,8 C 8,0 km/h (2 Bft) 100,00 %
14.06.2016 02:32 12,8 C 96 % 1001,2 hPa 0,0 l/m 5,9 km/h (2 Bft) SW 227 0 min 0,000 mm 0,0 UV-I 0 W/m 12,2 C 12,8 C 8,0 km/h (2 Bft) 100,00 %
14.06.2016 02:33 12,8 C 96 % 1001,2 hPa 0,0 l/m 5,1 km/h (1 Bft) SW 229 0 min 0,000 mm 0,0 UV-I 0 W/m 12,2 C 12,8 C 8,0 km/h (2 Bft) 100,00 %
14.06.2016 02:34 12,8 C 96 % 1001,2 hPa 0,0 l/m 5,4 km/h (1 Bft) SW 227 0 min 0,000 mm 0,0 UV-I 0 W/m 12,2 C 12,8 C 8,0 km/h (2 Bft) 95,83 %
14.06.2016 02:35 12,8 C 96 % 1001,2 hPa 0,0 l/m 5,6 km/h (1 Bft) SW 223 0 min 0,000 mm 0,0 UV-I 0 W/m 12,2 C 12,8 C 8,0 km/h (2 Bft) 100,00 %
14.06.2016 02:36 12,8 C 96 % 1001,2 hPa 0,0 l/m 6,2 km/h (2 Bft) SW 231 0 min 0,000 mm 0,0 UV-I 0 W/m 12,2 C 12,8 C 8,0 km/h (2 Bft) 100,00 %
14.06.2016 02:37 12,8 C 96 % 1001,3 hPa 0,0 l/m 6,4 km/h (2 Bft) SW 215 0 min 0,000 mm 0,0 UV-I 0 W/m 12,2 C 12,8 C 9,7 km/h (2 Bft) 100,00 %
14.06.2016 02:38 12,8 C 96 % 1001,3 hPa 0,0 l/m 8,0 km/h (2 Bft) SW 236 0 min 0,000 mm 0,0 UV-I 0 W/m 12,2 C 11,8 C 9,7 km/h (2 Bft) 100,00 %
14.06.2016 02:39 12,8 C 96 % 1001,3 hPa 0,0 l/m 6,7 km/h (2 Bft) SW 234 0 min 0,000 mm 0,0 UV-I 0 W/m 12,2 C 12,6 C 8,0 km/h (2 Bft) 96,30 %
14.06.2016 02:40 12,8 C 96 % 1001,3 hPa 0,0 l/m 7,1 km/h (2 Bft) SW 227 0 min 0,000 mm 0,0 UV-I 0 W/m 12,2 C 12,4 C 11,3 km/h (2 Bft) 100,00 %
14.06.2016 02:41 12,8 C 96 % 1001,3 hPa 0,0 l/m 7,2 km/h (2 Bft) SW 233 0 min 0,000 mm 0,0 UV-I 0 W/m 12,2 C 12,3 C 11,3 km/h (2 Bft) 100,00 %
14.06.2016 02:42 12,8 C 96 % 1001,3 hPa 0,0 l/m 6,8 km/h (2 Bft) SW 233 0 min 0,000 mm 0,0 UV-I 0 W/m 12,2 C 12,6 C 8,0 km/h (2 Bft) 100,00 %
14.06.2016 02:43 12,8 C 96 % 1001,3 hPa 0,0 l/m 4,7 km/h (1 Bft) SW 232 0 min 0,000 mm 0,0 UV-I 0 W/m 12,2 C 12,8 C 6,4 km/h (2 Bft) 100,00 %
14.06.2016 02:44 12,8 C 96 % 1001,3 hPa 0,0 l/m 5,5 km/h (1 Bft) SW 215 0 min 0,000 mm 0,0 UV-I 0 W/m 12,2 C 12,8 C 6,4 km/h (2 Bft) 94,12 %
14.06.2016 02:45 12,8 C 96 % 1001,3 hPa 0,0 l/m 4,6 km/h (1 Bft) S-SW 199 0 min 0,000 mm 0,0 UV-I 0 W/m 12,2 C 12,8 C 6,4 km/h (2 Bft) 100,00 %
14.06.2016 02:46 12,8 C 96 % 1001,3 hPa 0,0 l/m 6,0 km/h (2 Bft) SW 217 0 min 0,000 mm 0,0 UV-I 0 W/m 12,2 C 12,8 C 11,3 km/h (2 Bft) 100,00 %
14.06.2016 02:47 12,8 C 96 % 1001,3 hPa 0,0 l/m 6,7 km/h (2 Bft) SW 216 0 min 0,000 mm 0,0 UV-I 0 W/m 12,2 C 12,6 C 8,0 km/h (2 Bft) 100,00 %
14.06.2016 02:48 12,8 C 96 % 1001,3 hPa 0,0 l/m 8,8 km/h (2 Bft) SW 225 0 min 0,000 mm 0,0 UV-I 0 W/m 12,2 C 11,3 C 12,9 km/h (3 Bft) 100,00 %
14.06.2016 02:49 12,8 C 96 % 1001,3 hPa 0,0 l/m 7,5 km/h (2 Bft) W-SW 242 0 min 0,000 mm 0,0 UV-I 0 W/m 12,2 C 12,1 C 9,7 km/h (2 Bft) 100,00 %
14.06.2016 02:50 12,8 C 96 % 1001,3 hPa 0,0 l/m 7,2 km/h (2 Bft) SW 227 0 min 0,000 mm 0,0 UV-I 0 W/m 12,2 C 12,3 C 9,7 km/h (2 Bft) 96,88 %
14.06.2016 02:51 12,8 C 96 % 1001,3 hPa 0,0 l/m 7,8 km/h (2 Bft) W-SW 240 0 min 0,000 mm 0,0 UV-I 0 W/m 12,2 C 11,9 C 11,3 km/h (2 Bft) 100,00 %
14.06.2016 02:52 12,8 C 96 % 1001,3 hPa 0,0 l/m 9,0 km/h (2 Bft) SW 223 0 min 0,000 mm 0,0 UV-I 0 W/m 12,2 C 11,2 C 12,9 km/h (3 Bft) 100,00 %
14.06.2016 02:53 12,8 C 96 % 1001,3 hPa 0,0 l/m 6,2 km/h (2 Bft) S 189 0 min 0,000 mm 0,0 UV-I 0 W/m 12,2 C 12,8 C 8,0 km/h (2 Bft) 96,30 %
14.06.2016 02:54 12,8 C 96 % 1001,3 hPa 0,0 l/m 6,4 km/h (2 Bft) S-SW 211 0 min 0,000 mm 0,0 UV-I 0 W/m 12,2 C 12,8 C 9,7 km/h (2 Bft) 100,00 %
14.06.2016 02:55 12,8 C 96 % 1001,3 hPa 0,0 l/m 5,7 km/h (1 Bft) S-SW 205 0 min 0,000 mm 0,0 UV-I 0 W/m 12,2 C 12,8 C 8,0 km/h (2 Bft) 100,00 %
14.06.2016 02:56 12,8 C 96 % 1001,3 hPa 0,0 l/m 6,2 km/h (2 Bft) SW 219 0 min 0,000 mm 0,0 UV-I 0 W/m 12,2 C 12,8 C 9,7 km/h (2 Bft) 95,83 %
14.06.2016 02:57 12,8 C 96 % 1001,3 hPa 0,0 l/m 5,8 km/h (2 Bft) SW 234 0 min 0,000 mm 0,0 UV-I 0 W/m 12,2 C 12,8 C 8,0 km/h (2 Bft) 100,00 %
14.06.2016 02:58 12,8 C 96 % 1001,3 hPa 0,0 l/m 5,2 km/h (1 Bft) SW 214 0 min 0,000 mm 0,0 UV-I 0 W/m 12,2 C 12,8 C 6,4 km/h (2 Bft) 100,00 %
14.06.2016 02:59 12,8 C 96 % 1001,3 hPa 0,0 l/m 6,6 km/h (2 Bft) W-SW 245 0 min 0,000 mm 0,0 UV-I 0 W/m 12,2 C 12,7 C 9,7 km/h (2 Bft) 100,00 %
14.06.2016 03:00 12,9 C 96 % 1001,4 hPa 0,0 l/m 7,3 km/h (2 Bft) SW 218 0 min 0,000 mm 0,0 UV-I 0 W/m 12,3 C 12,3 C 9,7 km/h (2 Bft) 100,00 %
14.06.2016 03:01 12,9 C 96 % 1001,4 hPa 0,0 l/m 6,6 km/h (2 Bft) SW 231 0 min 0,000 mm 0,0 UV-I 0 W/m 12,3 C 12,8 C 8,0 km/h (2 Bft) 100,00 %
14.06.2016 03:02 12,9 C 96 % 1001,3 hPa 0,0 l/m 5,6 km/h (1 Bft) SW 234 0 min 0,000 mm 0,0 UV-I 0 W/m 12,3 C 12,9 C 8,0 km/h (2 Bft) 100,00 %
14.06.2016 03:03 12,9 C 96 % 1001,4 hPa 0,0 l/m 6,0 km/h (2 Bft) SW 230 0 min 0,000 mm 0,0 UV-I 0 W/m 12,3 C 12,9 C 9,7 km/h (2 Bft) 92,86 %
14.06.2016 03:04 12,9 C 96 % 1001,4 hPa 0,0 l/m 6,6 km/h (2 Bft) SW 227 0 min 0,000 mm 0,0 UV-I 0 W/m 12,3 C 12,8 C 11,3 km/h (2 Bft) 100,00 %
14.06.2016 03:05 12,9 C 96 % 1001,4 hPa 0,0 l/m 5,5 km/h (1 Bft) SW 216 0 min 0,000 mm 0,0 UV-I 0 W/m 12,3 C 12,9 C 8,0 km/h (2 Bft) 96,15 %
14.06.2016 03:06 12,8 C 96 % 1001,4 hPa 0,0 l/m 5,6 km/h (1 Bft) W-SW 246 0 min 0,000 mm 0,0 UV-I 0 W/m 12,2 C 12,8 C 8,0 km/h (2 Bft) 100,00 %
14.06.2016 03:07 12,8 C 96 % 1001,3 hPa 0,0 l/m 5,0 km/h (1 Bft) SW 214 0 min 0,000 mm 0,0 UV-I 0 W/m 12,2 C 12,8 C 6,4 km/h (2 Bft) 95,65 %
14.06.2016 03:08 12,8 C 96 % 1001,3 hPa 0,0 l/m 5,1 km/h (1 Bft) SW 227 0 min 0,000 mm 0,0 UV-I 0 W/m 12,2 C 12,8 C 8,0 km/h (2 Bft) 100,00 %
14.06.2016 03:09 12,8 C 96 % 1001,3 hPa 0,0 l/m 6,8 km/h (2 Bft) S-SW 202 0 min 0,000 mm 0,0 UV-I 0 W/m 12,2 C 12,6 C 8,0 km/h (2 Bft) 95,65 %
14.06.2016 03:10 12,8 C 96 % 1001,3 hPa 0,0 l/m 5,3 km/h (1 Bft) W-SW 237 0 min 0,000 mm 0,0 UV-I 0 W/m 12,2 C 12,8 C 9,7 km/h (2 Bft) 96,30 %
14.06.2016 03:11 12,8 C 96 % 1001,3 hPa 0,0 l/m 5,8 km/h (2 Bft) S-SW 204 0 min 0,000 mm 0,0 UV-I 0 W/m 12,2 C 12,8 C 8,0 km/h (2 Bft) 96,15 %
14.06.2016 03:12 12,8 C 96 % 1001,3 hPa 0,0 l/m 5,0 km/h (1 Bft) SW 220 0 min 0,000 mm 0,0 UV-I 0 W/m 12,2 C 12,8 C 8,0 km/h (2 Bft) 95,83 %
14.06.2016 03:13 12,8 C 96 % 1001,3 hPa 0,0 l/m 5,7 km/h (1 Bft) SW 215 0 min 0,000 mm 0,0 UV-I 0 W/m 12,2 C 12,8 C 8,0 km/h (2 Bft) 100,00 %
14.06.2016 03:14 12,8 C 96 % 1001,3 hPa 0,0 l/m 4,8 km/h (1 Bft) S-SW 209 0 min 0,000 mm 0,0 UV-I 0 W/m 12,2 C 12,8 C 6,4 km/h (2 Bft) 92,59 %
14.06.2016 03:15 12,8 C 96 % 1001,3 hPa 0,0 l/m 5,9 km/h (2 Bft) S 184 0 min 0,000 mm 0,0 UV-I 0 W/m 12,2 C 12,8 C 8,0 km/h (2 Bft) 95,65 %
14.06.2016 03:16 12,9 C 96 % 1001,3 hPa 0,0 l/m 5,7 km/h (1 Bft) S-SW 199 0 min 0,000 mm 0,0 UV-I 0 W/m 12,3 C 12,9 C 8,0 km/h (2 Bft) 100,00 %
14.06.2016 03:17 12,9 C 96 % 1001,3 hPa 0,0 l/m 5,7 km/h (1 Bft) S-SW 213 0 min 0,000 mm 0,0 UV-I 0 W/m 12,3 C 12,9 C 8,0 km/h (2 Bft) 100,00 %
14.06.2016 03:18 12,9 C 96 % 1001,3 hPa 0,0 l/m 5,7 km/h (1 Bft) SW 234 0 min 0,000 mm 0,0 UV-I 0 W/m 12,3 C 12,9 C 8,0 km/h (2 Bft) 96,15 %
14.06.2016 03:19 12,9 C 96 % 1001,3 hPa 0,0 l/m 4,5 km/h (1 Bft) S-SW 196 0 min 0,000 mm 0,0 UV-I 0 W/m 12,3 C 12,9 C 8,0 km/h (2 Bft) 96,30 %
14.06.2016 03:20 12,9 C 96 % 1001,3 hPa 0,0 l/m 5,3 km/h (1 Bft) S 186 0 min 0,000 mm 0,0 UV-I 0 W/m 12,3 C 12,9 C 8,0 km/h (2 Bft) 96,55 %
14.06.2016 03:21 12,9 C 96 % 1001,3 hPa 0,0 l/m 5,5 km/h (1 Bft) S 186 0 min 0,000 mm 0,0 UV-I 0 W/m 12,3 C 12,9 C 6,4 km/h (2 Bft) 95,83 %
14.06.2016 03:22 12,9 C 96 % 1001,2 hPa 0,0 l/m 4,7 km/h (1 Bft) SW 215 0 min 0,000 mm 0,0 UV-I 0 W/m 12,3 C 12,9 C 6,4 km/h (2 Bft) 100,00 %
14.06.2016 03:23 12,9 C 96 % 1001,3 hPa 0,0 l/m 4,0 km/h (1 Bft) SW 217 0 min 0,000 mm 0,0 UV-I 0 W/m 12,3 C 12,9 C 6,4 km/h (2 Bft) 96,30 %
14.06.2016 03:24 12,9 C 96 % 1001,3 hPa 0,0 l/m 4,7 km/h (1 Bft) SW 218 0 min 0,000 mm 0,0 UV-I 0 W/m 12,3 C 12,9 C 6,4 km/h (2 Bft) 98,78 %
14.06.2016 03:25 12,9 C 96 % 1001,2 hPa 0,0 l/m 3,7 km/h (1 Bft) SW 230 0 min 0,000 mm 0,0 UV-I 0 W/m 12,3 C 12,9 C 6,4 km/h (2 Bft) 97,37 %
14.06.2016 03:26 12,9 C 96 % 1001,2 hPa 0,0 l/m 4,1 km/h (1 Bft) S-SW 192 0 min 0,000 mm 0,0 UV-I 0 W/m 12,3 C 12,9 C 8,0 km/h (2 Bft) 95,65 %
14.06.2016 03:27 12,9 C 96 % 1001,2 hPa 0,0 l/m 5,0 km/h (1 Bft) SW 215 0 min 0,000 mm 0,0 UV-I 0 W/m 12,3 C 12,9 C 8,0 km/h (2 Bft) 95,83 %
14.06.2016 03:28 12,9 C 96 % 1001,2 hPa 0,0 l/m 7,1 km/h (2 Bft) W-SW 240 0 min 0,000 mm 0,0 UV-I 0 W/m 12,3 C 12,5 C 9,7 km/h (2 Bft) 95,65 %
14.06.2016 03:29 12,9 C 96 % 1001,2 hPa 0,0 l/m 5,6 km/h (1 Bft) SW 229 0 min 0,000 mm 0,0 UV-I 0 W/m 12,3 C 12,9 C 8,0 km/h (2 Bft) 100,00 %
14.06.2016 03:30 12,9 C 96 % 1001,2 hPa 0,0 l/m 6,7 km/h (2 Bft) S-SW 198 0 min 0,000 mm 0,0 UV-I 0 W/m 12,3 C 12,7 C 11,3 km/h (2 Bft) 96,15 %
14.06.2016 03:31 12,9 C 96 % 1001,2 hPa 0,0 l/m 6,1 km/h (2 Bft) S-SO 166 0 min 0,000 mm 0,0 UV-I 0 W/m 12,3 C 12,9 C 9,7 km/h (2 Bft) 100,00 %
14.06.2016 03:32 12,9 C 96 % 1001,2 hPa 0,0 l/m 6,4 km/h (2 Bft) SW 230 0 min 0,000 mm 0,0 UV-I 0 W/m 12,3 C 12,9 C 8,0 km/h (2 Bft) 94,12 %
14.06.2016 03:33 12,9 C 96 % 1001,3 hPa 0,0 l/m 5,4 km/h (1 Bft) SW 215 0 min 0,000 mm 0,0 UV-I 0 W/m 12,3 C 12,9 C 9,7 km/h (2 Bft) 96,30 %
14.06.2016 03:34 12,9 C 96 % 1001,3 hPa 0,0 l/m 4,8 km/h (1 Bft) SW 223 0 min 0,000 mm 0,0 UV-I 0 W/m 12,3 C 12,9 C 8,0 km/h (2 Bft) 100,00 %
14.06.2016 03:35 12,9 C 96 % 1001,2 hPa 0,0 l/m 4,7 km/h (1 Bft) SW 228 0 min 0,000 mm 0,0 UV-I 0 W/m 12,3 C 12,9 C 8,0 km/h (2 Bft) 95,83 %
14.06.2016 03:36 12,9 C 96 % 1001,3 hPa 0,0 l/m 3,5 km/h (1 Bft) SW 229 0 min 0,000 mm 0,0 UV-I 0 W/m 12,3 C 12,9 C 4,8 km/h (1 Bft) 100,00 %
14.06.2016 03:37 12,9 C 96 % 1001,3 hPa 0,0 l/m 5,1 km/h (1 Bft) S-SW 212 0 min 0,000 mm 0,0 UV-I 0 W/m 12,3 C 12,9 C 6,4 km/h (2 Bft) 96,55 %
14.06.2016 03:38 12,9 C 96 % 1001,3 hPa 0,0 l/m 4,8 km/h (1 Bft) SW 225 0 min 0,000 mm 0,0 UV-I 0 W/m 12,3 C 12,9 C 8,0 km/h (2 Bft) 100,00 %
14.06.2016 03:39 12,9 C 96 % 1001,3 hPa 0,0 l/m 5,8 km/h (2 Bft) W-SW 239 0 min 0,000 mm 0,0 UV-I 0 W/m 12,3 C 12,9 C 6,4 km/h (2 Bft) 92,31 %
14.06.2016 03:40 12,9 C 96 % 1001,3 hPa 0,0 l/m 6,2 km/h (2 Bft) W-SW 240 0 min 0,000 mm 0,0 UV-I 0 W/m 12,3 C 12,9 C 8,0 km/h (2 Bft) 95,83 %
14.06.2016 03:41 12,9 C 96 % 1001,3 hPa 0,0 l/m 6,2 km/h (2 Bft) SW 228 0 min 0,000 mm 0,0 UV-I 0 W/m 12,3 C 12,9 C 8,0 km/h (2 Bft) 100,00 %
14.06.2016 03:42 12,9 C 95 % 1001,3 hPa 0,0 l/m 6,3 km/h (2 Bft) W-SW 237 0 min 0,000 mm 0,0 UV-I 0 W/m 12,1 C 12,9 C 8,0 km/h (2 Bft) 100,00 %
14.06.2016 03:43 12,9 C 95 % 1001,3 hPa 0,0 l/m 6,0 km/h (2 Bft) SW 236 0 min 0,000 mm 0,0 UV-I 0 W/m 12,1 C 12,9 C 8,0 km/h (2 Bft) 91,30 %
14.06.2016 03:44 12,9 C 95 % 1001,3 hPa 0,0 l/m 6,0 km/h (2 Bft) SW 223 0 min 0,000 mm 0,0 UV-I 0 W/m 12,1 C 12,9 C 8,0 km/h (2 Bft) 100,00 %
14.06.2016 03:45 12,9 C 95 % 1001,3 hPa 0,0 l/m 5,2 km/h (1 Bft) SW 223 0 min 0,000 mm 0,0 UV-I 0 W/m 12,1 C 12,9 C 6,4 km/h (2 Bft) 100,00 %
14.06.2016 03:46 12,8 C 95 % 1001,3 hPa 0,0 l/m 5,8 km/h (2 Bft) SW 231 0 min 0,000 mm 0,0 UV-I 0 W/m 12,0 C 12,8 C 6,4 km/h (2 Bft) 100,00 %
14.06.2016 03:47 12,8 C 95 % 1001,3 hPa 0,0 l/m 6,9 km/h (2 Bft) SW 227 0 min 0,000 mm 0,0 UV-I 0 W/m 12,0 C 12,5 C 9,7 km/h (2 Bft) 100,00 %
14.06.2016 03:48 12,8 C 95 % 1001,3 hPa 0,0 l/m 6,6 km/h (2 Bft) W-SW 240 0 min 0,000 mm 0,0 UV-I 0 W/m 12,0 C 12,7 C 8,0 km/h (2 Bft) 95,83 %
14.06.2016 03:49 12,8 C 95 % 1001,3 hPa 0,0 l/m 5,6 km/h (1 Bft) SW 214 0 min 0,000 mm 0,0 UV-I 0 W/m 12,0 C 12,8 C 8,0 km/h (2 Bft) 100,00 %
14.06.2016 03:50 12,8 C 95 % 1001,3 hPa 0,0 l/m 5,4 km/h (1 Bft) SW 236 0 min 0,000 mm 0,0 UV-I 0 W/m 12,0 C 12,8 C 8,0 km/h (2 Bft) 96,67 %
14.06.2016 03:51 12,8 C 95 % 1001,3 hPa 0,0 l/m 6,3 km/h (2 Bft) SW 225 0 min 0,000 mm 0,0 UV-I 0 W/m 12,0 C 12,8 C 8,0 km/h (2 Bft) 100,00 %
14.06.2016 03:52 12,8 C 96 % 1001,3 hPa 0,0 l/m 6,4 km/h (2 Bft) SW 225 0 min 0,000 mm 0,0 UV-I 0 W/m 12,2 C 12,8 C 9,7 km/h (2 Bft) 100,00 %
14.06.2016 03:53 12,8 C 96 % 1001,3 hPa 0,0 l/m 5,8 km/h (2 Bft) SW 227 0 min 0,000 mm 0,0 UV-I 0 W/m 12,2 C 12,8 C 8,0 km/h (2 Bft) 100,00 %
14.06.2016 03:54 12,9 C 96 % 1001,3 hPa 0,0 l/m 6,5 km/h (2 Bft) SW 220 0 min 0,000 mm 0,0 UV-I 0 W/m 12,3 C 12,9 C 8,0 km/h (2 Bft) 100,00 %
14.06.2016 03:55 12,9 C 96 % 1001,3 hPa 0,0 l/m 6,4 km/h (2 Bft) SW 219 0 min 0,000 mm 0,0 UV-I 0 W/m 12,3 C 12,9 C 8,0 km/h (2 Bft) 92,31 %
14.06.2016 03:56 12,9 C 96 % 1001,3 hPa 0,0 l/m 6,5 km/h (2 Bft) W-SW 241 0 min 0,000 mm 0,0 UV-I 0 W/m 12,3 C 12,9 C 8,0 km/h (2 Bft) 100,00 %
14.06.2016 03:57 12,9 C 96 % 1001,4 hPa 0,0 l/m 7,6 km/h (2 Bft) SW 235 0 min 0,000 mm 0,0 UV-I 0 W/m 12,3 C 12,1 C 9,7 km/h (2 Bft) 100,00 %
14.06.2016 03:58 12,9 C 96 % 1001,3 hPa 0,0 l/m 6,5 km/h (2 Bft) S-SW 209 0 min 0,000 mm 0,0 UV-I 0 W/m 12,3 C 12,9 C 8,0 km/h (2 Bft) 100,00 %
14.06.2016 03:59 12,9 C 96 % 1001,3 hPa 0,0 l/m 5,6 km/h (1 Bft) S-SW 207 0 min 0,000 mm 0,0 UV-I 0 W/m 12,3 C 12,9 C 6,4 km/h (2 Bft) 100,00 %
14.06.2016 04:00 12,9 C 96 % 1001,3 hPa 0,0 l/m 5,8 km/h (2 Bft) S-SW 213 0 min 0,000 mm 0,0 UV-I 0 W/m 12,3 C 12,9 C 8,0 km/h (2 Bft) 100,00 %
14.06.2016 04:01 12,9 C 96 % 1001,3 hPa 0,0 l/m 6,2 km/h (2 Bft) SW 233 0 min 0,000 mm 0,0 UV-I 0 W/m 12,3 C 12,9 C 8,0 km/h (2 Bft) 100,00 %
14.06.2016 04:02 12,9 C 96 % 1001,3 hPa 0,0 l/m 6,0 km/h (2 Bft) S-SW 199 0 min 0,000 mm 0,0 UV-I 0 W/m 12,3 C 12,9 C 8,0 km/h (2 Bft) 96,15 %
14.06.2016 04:03 12,9 C 96 % 1001,3 hPa 0,0 l/m 6,2 km/h (2 Bft) SW 220 0 min 0,000 mm 0,0 UV-I 0 W/m 12,3 C 12,9 C 9,7 km/h (2 Bft) 100,00 %
14.06.2016 04:04 13,0 C 96 % 1001,3 hPa 0,0 l/m 5,3 km/h (1 Bft) SW 225 0 min 0,000 mm 0,0 UV-I 0 W/m 12,4 C 13,0 C 8,0 km/h (2 Bft) 100,00 %
14.06.2016 04:05 13,0 C 96 % 1001,3 hPa 0,0 l/m 6,6 km/h (2 Bft) SW 229 0 min 0,000 mm 0,0 UV-I 0 W/m 12,4 C 12,9 C 9,7 km/h (2 Bft) 100,00 %
14.06.2016 04:06 13,0 C 96 % 1001,3 hPa 0,0 l/m 5,6 km/h (1 Bft) SW 234 0 min 0,000 mm 0,0 UV-I 0 W/m 12,4 C 13,0 C 8,0 km/h (2 Bft) 100,00 %
14.06.2016 04:07 13,0 C 96 % 1001,3 hPa 0,0 l/m 6,1 km/h (2 Bft) SW 225 0 min 0,000 mm 0,0 UV-I 0 W/m 12,4 C 13,0 C 8,0 km/h (2 Bft) 100,00 %
14.06.2016 04:08 13,1 C 96 % 1001,3 hPa 0,0 l/m 3,8 km/h (1 Bft) SW 216 0 min 0,000 mm 0,0 UV-I 0 W/m 12,5 C 13,1 C 6,4 km/h (2 Bft) 100,00 %
14.06.2016 04:09 13,1 C 96 % 1001,3 hPa 0,0 l/m 4,7 km/h (1 Bft) SW 231 0 min 0,000 mm 0,0 UV-I 0 W/m 12,5 C 13,1 C 8,0 km/h (2 Bft) 96,30 %
14.06.2016 04:10 13,1 C 96 % 1001,3 hPa 0,0 l/m 5,5 km/h (1 Bft) SW 217 0 min 0,000 mm 0,0 UV-I 0 W/m 12,5 C 13,1 C 6,4 km/h (2 Bft) 96,15 %
14.06.2016 04:11 13,1 C 96 % 1001,4 hPa 0,0 l/m 5,4 km/h (1 Bft) SW 217 0 min 0,000 mm 0,0 UV-I 0 W/m 12,5 C 13,1 C 6,4 km/h (2 Bft) 100,00 %
14.06.2016 04:12 13,1 C 96 % 1001,4 hPa 0,0 l/m 6,4 km/h (2 Bft) SW 230 0 min 0,000 mm 0,0 UV-I 0 W/m 12,5 C 13,1 C 8,0 km/h (2 Bft) 100,00 %
14.06.2016 04:13 13,1 C 96 % 1001,4 hPa 0,0 l/m 5,8 km/h (2 Bft) S-SW 205 0 min 0,000 mm 0,0 UV-I 0 W/m 12,5 C 13,1 C 8,0 km/h (2 Bft) 100,00 %
14.06.2016 04:14 13,1 C 96 % 1001,4 hPa 0,0 l/m 5,3 km/h (1 Bft) SW 230 0 min 0,000 mm 0,0 UV-I 0 W/m 12,5 C 13,1 C 6,4 km/h (2 Bft) 95,83 %
14.06.2016 04:15 13,2 C 96 % 1001,4 hPa 0,0 l/m 5,6 km/h (1 Bft) S 190 0 min 0,000 mm 0,0 UV-I 0 W/m 12,6 C 13,2 C 9,7 km/h (2 Bft) 100,00 %
14.06.2016 04:16 13,2 C 96 % 1001,4 hPa 0,0 l/m 5,3 km/h (1 Bft) SW 220 0 min 0,000 mm 0,0 UV-I 0 W/m 12,6 C 13,2 C 8,0 km/h (2 Bft) 100,00 %
14.06.2016 04:17 13,2 C 95 % 1001,4 hPa 0,0 l/m 4,6 km/h (1 Bft) SW 215 0 min 0,000 mm 0,0 UV-I 0 W/m 12,4 C 13,2 C 8,0 km/h (2 Bft) 100,00 %
14.06.2016 04:18 13,2 C 95 % 1001,4 hPa 0,0 l/m 5,5 km/h (1 Bft) S-SW 208 0 min 0,000 mm 0,0 UV-I 0 W/m 12,4 C 13,2 C 8,0 km/h (2 Bft) 100,00 %
14.06.2016 04:19 13,2 C 95 % 1001,4 hPa 0,0 l/m 4,4 km/h (1 Bft) S-SW 209 0 min 0,000 mm 0,0 UV-I 0 W/m 12,4 C 13,2 C 6,4 km/h (2 Bft) 97,56 %
14.06.2016 04:20 13,2 C 95 % 1001,4 hPa 0,0 l/m 5,5 km/h (1 Bft) SW 236 0 min 0,000 mm 0,0 UV-I 0 W/m 12,4 C 13,2 C 8,0 km/h (2 Bft) 100,00 %
14.06.2016 04:21 13,2 C 95 % 1001,4 hPa 0,0 l/m 5,2 km/h (1 Bft) SW 227 0 min 0,000 mm 0,0 UV-I 0 W/m 12,4 C 13,2 C 8,0 km/h (2 Bft) 100,00 %
14.06.2016 04:22 13,2 C 96 % 1001,4 hPa 0,0 l/m 5,7 km/h (1 Bft) SW 215 0 min 0,000 mm 0,0 UV-I 0 W/m 12,6 C 13,2 C 8,0 km/h (2 Bft) 100,00 %
14.06.2016 04:23 13,3 C 95 % 1001,4 hPa 0,0 l/m 6,5 km/h (2 Bft) S-SW 201 0 min 0,000 mm 0,0 UV-I 0 W/m 12,5 C 13,3 C 8,0 km/h (2 Bft) 100,00 %
14.06.2016 04:24 13,3 C 95 % 1001,4 hPa 0,0 l/m 5,5 km/h (1 Bft) SW 217 0 min 0,000 mm 0,0 UV-I 0 W/m 12,5 C 13,3 C 6,4 km/h (2 Bft) 100,00 %
14.06.2016 04:25 13,3 C 95 % 1001,4 hPa 0,0 l/m 6,0 km/h (2 Bft) S 176 0 min 0,000 mm 0,0 UV-I 0 W/m 12,5 C 13,3 C 8,0 km/h (2 Bft) 100,00 %
14.06.2016 04:26 13,3 C 95 % 1001,4 hPa 0,0 l/m 6,2 km/h (2 Bft) S 183 0 min 0,000 mm 0,0 UV-I 0 W/m 12,5 C 13,3 C 8,0 km/h (2 Bft) 95,83 %
14.06.2016 04:27 13,3 C 95 % 1001,5 hPa 0,0 l/m 5,8 km/h (2 Bft) S-SW 200 0 min 0,000 mm 0,0 UV-I 0 W/m 12,5 C 13,3 C 9,7 km/h (2 Bft) 100,00 %
14.06.2016 04:28 13,3 C 95 % 1001,5 hPa 0,0 l/m 6,4 km/h (2 Bft) SW 224 0 min 0,000 mm 0,0 UV-I 0 W/m 12,5 C 13,3 C 8,0 km/h (2 Bft) 100,00 %
14.06.2016 04:29 13,3 C 95 % 1001,5 hPa 0,0 l/m 6,8 km/h (2 Bft) S-SW 197 0 min 0,000 mm 0,0 UV-I 0 W/m 12,5 C 13,1 C 8,0 km/h (2 Bft) 100,00 %
14.06.2016 04:30 13,4 C 95 % 1001,5 hPa 0,0 l/m 7,8 km/h (2 Bft) S-SW 200 0 min 0,000 mm 0,0 UV-I 0 W/m 12,6 C 12,5 C 9,7 km/h (2 Bft) 100,00 %
14.06.2016 04:31 13,4 C 95 % 1001,5 hPa 0,0 l/m 5,1 km/h (1 Bft) S-SW 201 0 min 0,000 mm 0,0 UV-I 0 W/m 12,6 C 13,4 C 6,4 km/h (2 Bft) 100,00 %
14.06.2016 04:32 13,4 C 95 % 1001,5 hPa 0,0 l/m 5,6 km/h (1 Bft) S-SW 203 0 min 0,000 mm 0,0 UV-I 0 W/m 12,6 C 13,4 C 6,4 km/h (2 Bft) 96,30 %
14.06.2016 04:33 13,4 C 95 % 1001,6 hPa 0,0 l/m 6,0 km/h (2 Bft) S-SW 205 0 min 0,000 mm 0,0 UV-I 0 W/m 12,6 C 13,4 C 6,4 km/h (2 Bft) 100,00 %
14.06.2016 04:34 13,4 C 95 % 1001,5 hPa 0,0 l/m 5,2 km/h (1 Bft) S-SW 194 0 min 0,000 mm 0,0 UV-I 0 W/m 12,6 C 13,4 C 8,0 km/h (2 Bft) 100,00 %
14.06.2016 04:35 13,4 C 95 % 1001,5 hPa 0,0 l/m 6,2 km/h (2 Bft) S-SW 196 0 min 0,000 mm 0,0 UV-I 0 W/m 12,6 C 13,4 C 8,0 km/h (2 Bft) 95,83 %
14.06.2016 04:36 13,4 C 95 % 1001,5 hPa 0,0 l/m 4,7 km/h (1 Bft) S-SW 195 0 min 0,000 mm 0,0 UV-I 0 W/m 12,6 C 13,4 C 6,4 km/h (2 Bft) 96,15 %
14.06.2016 04:37 13,5 C 95 % 1001,6 hPa 0,0 l/m 5,6 km/h (1 Bft) SW 216 0 min 0,000 mm 0,0 UV-I 0 W/m 12,7 C 13,5 C 8,0 km/h (2 Bft) 100,00 %
14.06.2016 04:38 13,5 C 95 % 1001,5 hPa 0,0 l/m 5,5 km/h (1 Bft) S-SW 192 0 min 0,000 mm 0,0 UV-I 0 W/m 12,7 C 13,5 C 8,0 km/h (2 Bft) 100,00 %
14.06.2016 04:39 13,5 C 95 % 1001,6 hPa 0,0 l/m 5,6 km/h (1 Bft) S 184 0 min 0,000 mm 0,0 UV-I 0 W/m 12,7 C 13,5 C 6,4 km/h (2 Bft) 100,00 %
14.06.2016 04:40 13,5 C 95 % 1001,6 hPa 0,0 l/m 6,4 km/h (2 Bft) S-SW 202 0 min 0,000 mm 0,0 UV-I 0 W/m 12,7 C 13,5 C 8,0 km/h (2 Bft) 100,00 %
14.06.2016 04:41 13,5 C 95 % 1001,6 hPa 0,0 l/m 6,2 km/h (2 Bft) S 179 0 min 0,000 mm 0,0 UV-I 0 W/m 12,7 C 13,5 C 8,0 km/h (2 Bft) 100,00 %
14.06.2016 04:42 13,5 C 95 % 1001,6 hPa 0,0 l/m 6,8 km/h (2 Bft) S-SW 213 0 min 0,000 mm 0,0 UV-I 0 W/m 12,7 C 13,3 C 11,3 km/h (2 Bft) 100,00 %
14.06.2016 04:43 13,5 C 95 % 1001,6 hPa 0,0 l/m 7,6 km/h (2 Bft) S-SW 205 0 min 0,000 mm 0,0 UV-I 0 W/m 12,7 C 12,8 C 9,7 km/h (2 Bft) 100,00 %
14.06.2016 04:44 13,5 C 95 % 1001,6 hPa 0,0 l/m 7,4 km/h (2 Bft) S-SW 208 0 min 0,000 mm 0,0 UV-I 0 W/m 12,7 C 12,9 C 9,7 km/h (2 Bft) 100,00 %
14.06.2016 04:45 13,5 C 95 % 1001,6 hPa 0,0 l/m 5,4 km/h (1 Bft) SW 231 0 min 0,000 mm 0,0 UV-I 0 W/m 12,7 C 13,5 C 9,7 km/h (2 Bft) 100,00 %
14.06.2016 04:46 13,6 C 95 % 1001,6 hPa 0,0 l/m 6,1 km/h (2 Bft) S-SW 213 0 min 0,000 mm 0,0 UV-I 0 W/m 12,8 C 13,6 C 8,0 km/h (2 Bft) 100,00 %
14.06.2016 04:47 13,6 C 95 % 1001,6 hPa 0,0 l/m 4,1 km/h (1 Bft) S-SW 209 0 min 0,000 mm 0,0 UV-I 0 W/m 12,8 C 13,6 C 6,4 km/h (2 Bft) 100,00 %
14.06.2016 04:48 13,5 C 95 % 1001,6 hPa 0,0 l/m 5,6 km/h (1 Bft) S-SW 192 0 min 0,000 mm 0,0 UV-I 0 W/m 12,7 C 13,5 C 8,0 km/h (2 Bft) 100,00 %
14.06.2016 04:49 13,6 C 94 % 1001,5 hPa 0,0 l/m 6,3 km/h (2 Bft) S-SW 203 0 min 0,000 mm 0,0 UV-I 0 W/m 12,7 C 13,6 C 8,0 km/h (2 Bft) 93,33 %
14.06.2016 04:50 13,6 C 94 % 1001,6 hPa 0,0 l/m 7,2 km/h (2 Bft) SW 216 0 min 0,000 mm 0,0 UV-I 0 W/m 12,7 C 13,1 C 11,3 km/h (2 Bft) 100,00 %
14.06.2016 04:51 13,6 C 94 % 1001,6 hPa 0,0 l/m 6,8 km/h (2 Bft) S 191 0 min 0,000 mm 0,0 UV-I 0 W/m 12,7 C 13,4 C 8,0 km/h (2 Bft) 100,00 %
14.06.2016 04:52 13,6 C 94 % 1001,6 hPa 0,0 l/m 4,1 km/h (1 Bft) SW 229 0 min 0,000 mm 0,0 UV-I 0 W/m 12,7 C 13,6 C 6,4 km/h (2 Bft) 100,00 %
14.06.2016 04:53 13,6 C 94 % 1001,6 hPa 0,0 l/m 4,7 km/h (1 Bft) SW 228 0 min 0,000 mm 0,0 UV-I 0 W/m 12,7 C 13,6 C 6,4 km/h (2 Bft) 100,00 %
14.06.2016 04:54 13,6 C 94 % 1001,6 hPa 0,0 l/m 6,2 km/h (2 Bft) SW 225 0 min 0,000 mm 0,0 UV-I 0 W/m 12,7 C 13,6 C 8,0 km/h (2 Bft) 100,00 %
14.06.2016 04:55 13,6 C 94 % 1001,6 hPa 0,0 l/m 4,5 km/h (1 Bft) W-SW 238 0 min 0,000 mm 0,0 UV-I 0 W/m 12,7 C 13,6 C 6,4 km/h (2 Bft) 100,00 %
14.06.2016 04:56 13,6 C 94 % 1001,6 hPa 0,0 l/m 4,8 km/h (1 Bft) W-SW 242 0 min 0,000 mm 0,0 UV-I 0 W/m 12,7 C 13,6 C 6,4 km/h (2 Bft) 100,00 %
14.06.2016 04:57 13,6 C 94 % 1001,6 hPa 0,0 l/m 5,9 km/h (2 Bft) SW 229 0 min 0,000 mm 0,0 UV-I 0 W/m 12,7 C 13,6 C 8,0 km/h (2 Bft) 100,00 %
14.06.2016 04:58 13,6 C 94 % 1001,6 hPa 0,0 l/m 6,5 km/h (2 Bft) SW 218 0 min 0,000 mm 0,0 UV-I 0 W/m 12,7 C 13,6 C 8,0 km/h (2 Bft) 100,00 %
14.06.2016 04:59 13,6 C 94 % 1001,6 hPa 0,0 l/m 5,0 km/h (1 Bft) SW 233 0 min 0,000 mm 0,0 UV-I 0 W/m 12,7 C 13,6 C 6,4 km/h (2 Bft) 100,00 %
14.06.2016 05:00 13,6 C 94 % 1001,6 hPa 0,0 l/m 5,6 km/h (1 Bft) S-SW 198 0 min 0,000 mm 0,0 UV-I 0 W/m 12,7 C 13,6 C 8,0 km/h (2 Bft) 100,00 %
14.06.2016 05:01 13,6 C 94 % 1001,6 hPa 0,0 l/m 5,2 km/h (1 Bft) W-SW 242 0 min 0,000 mm 0,0 UV-I 0 W/m 12,7 C 13,6 C 6,4 km/h (2 Bft) 100,00 %
14.06.2016 05:02 13,6 C 94 % 1001,7 hPa 0,0 l/m 5,0 km/h (1 Bft) SW 232 0 min 0,000 mm 0,0 UV-I 0 W/m 12,7 C 13,6 C 8,0 km/h (2 Bft) 100,00 %
14.06.2016 05:03 13,6 C 94 % 1001,7 hPa 0,0 l/m 5,1 km/h (1 Bft) SW 215 0 min 0,000 mm 0,0 UV-I 0 W/m 12,7 C 13,6 C 8,0 km/h (2 Bft) 100,00 %
14.06.2016 05:04 13,6 C 94 % 1001,6 hPa 0,0 l/m 7,2 km/h (2 Bft) SW 215 0 min 0,000 mm 0,0 UV-I 0 W/m 12,7 C 13,1 C 11,3 km/h (2 Bft) 100,00 %
14.06.2016 05:05 13,6 C 94 % 1001,7 hPa 0,0 l/m 6,8 km/h (2 Bft) W-SW 238 0 min 0,000 mm 0,0 UV-I 0 W/m 12,7 C 13,4 C 11,3 km/h (2 Bft) 91,30 %
14.06.2016 05:06 13,6 C 94 % 1001,7 hPa 0,0 l/m 5,6 km/h (1 Bft) SW 220 0 min 0,000 mm 0,0 UV-I 0 W/m 12,7 C 13,6 C 8,0 km/h (2 Bft) 96,30 %
14.06.2016 05:07 13,6 C 94 % 1001,7 hPa 0,0 l/m 5,6 km/h (1 Bft) S-SW 192 0 min 0,000 mm 0,0 UV-I 0 W/m 12,7 C 13,6 C 8,0 km/h (2 Bft) 95,65 %
14.06.2016 05:08 13,6 C 94 % 1001,7 hPa 0,0 l/m 6,2 km/h (2 Bft) S-SW 201 0 min 0,000 mm 0,0 UV-I 4 W/m 12,7 C 13,6 C 8,0 km/h (2 Bft) 100,00 %
14.06.2016 05:09 13,6 C 94 % 1001,8 hPa 0,0 l/m 5,5 km/h (1 Bft) S-SW 213 0 min 0,000 mm 0,0 UV-I 5 W/m 12,7 C 13,6 C 8,0 km/h (2 Bft) 96,15 %
14.06.2016 05:10 13,6 C 94 % 1001,7 hPa 0,0 l/m 5,7 km/h (1 Bft) SW 215 0 min 0,000 mm 0,0 UV-I 3 W/m 12,7 C 13,6 C 6,4 km/h (2 Bft) 92,59 %
14.06.2016 05:11 13,6 C 94 % 1001,7 hPa 0,0 l/m 7,0 km/h (2 Bft) SW 219 0 min 0,000 mm 0,0 UV-I 0 W/m 12,7 C 13,2 C 11,3 km/h (2 Bft) 100,00 %
14.06.2016 05:12 13,6 C 94 % 1001,8 hPa 0,0 l/m 4,5 km/h (1 Bft) SW 220 0 min 0,000 mm 0,0 UV-I 0 W/m 12,7 C 13,6 C 6,4 km/h (2 Bft) 95,83 %
14.06.2016 05:13 13,6 C 94 % 1001,7 hPa 0,0 l/m 6,5 km/h (2 Bft) S-SW 213 0 min 0,000 mm 0,0 UV-I 0 W/m 12,7 C 13,6 C 8,0 km/h (2 Bft) 100,00 %
14.06.2016 05:14 13,6 C 94 % 1001,8 hPa 0,0 l/m 5,7 km/h (1 Bft) SW 214 0 min 0,000 mm 0,0 UV-I 0 W/m 12,7 C 13,6 C 6,4 km/h (2 Bft) 95,65 %
14.06.2016 05:15 13,6 C 94 % 1001,8 hPa 0,0 l/m 4,6 km/h (1 Bft) SW 221 0 min 0,000 mm 0,0 UV-I 0 W/m 12,7 C 13,6 C 8,0 km/h (2 Bft) 100,00 %
14.06.2016 05:16 13,6 C 94 % 1001,8 hPa 0,0 l/m 6,3 km/h (2 Bft) S 184 0 min 0,000 mm 0,0 UV-I 0 W/m 12,7 C 13,6 C 9,7 km/h (2 Bft) 95,65 %
14.06.2016 05:17 13,7 C 94 % 1001,8 hPa 0,0 l/m 7,0 km/h (2 Bft) SW 236 0 min 0,000 mm 0,0 UV-I 0 W/m 12,8 C 13,3 C 9,7 km/h (2 Bft) 100,00 %
14.06.2016 05:18 13,7 C 94 % 1001,8 hPa 0,0 l/m 5,0 km/h (1 Bft) S 187 0 min 0,000 mm 0,0 UV-I 0 W/m 12,8 C 13,7 C 8,0 km/h (2 Bft) 96,15 %
14.06.2016 05:19 13,7 C 94 % 1001,8 hPa 0,0 l/m 5,4 km/h (1 Bft) SW 221 0 min 0,000 mm 0,0 UV-I 0 W/m 12,8 C 13,7 C 8,0 km/h (2 Bft) 96,30 %
14.06.2016 05:20 13,7 C 94 % 1001,8 hPa 0,0 l/m 5,4 km/h (1 Bft) S-SW 198 0 min 0,000 mm 0,0 UV-I 0 W/m 12,8 C 13,7 C 8,0 km/h (2 Bft) 100,00 %
14.06.2016 05:21 13,7 C 94 % 1001,8 hPa 0,0 l/m 4,4 km/h (1 Bft) S-SW 211 0 min 0,000 mm 0,0 UV-I 0 W/m 12,8 C 13,7 C 6,4 km/h (2 Bft) 98,81 %
14.06.2016 05:22 13,7 C 94 % 1001,8 hPa 0,0 l/m 4,5 km/h (1 Bft) SW 221 0 min 0,000 mm 0,0 UV-I 0 W/m 12,8 C 13,7 C 6,4 km/h (2 Bft) 98,21 %
14.06.2016 05:23 13,7 C 94 % 1001,8 hPa 0,0 l/m 5,9 km/h (2 Bft) SW 226 0 min 0,000 mm 0,0 UV-I 0 W/m 12,8 C 13,7 C 6,4 km/h (2 Bft) 96,30 %
14.06.2016 05:24 13,7 C 94 % 1001,8 hPa 0,0 l/m 5,1 km/h (1 Bft) S-SW 192 0 min 0,000 mm 0,0 UV-I 0 W/m 12,8 C 13,7 C 6,4 km/h (2 Bft) 100,00 %
14.06.2016 05:25 13,7 C 94 % 1001,8 hPa 0,0 l/m 7,1 km/h (2 Bft) S 190 0 min 0,000 mm 0,0 UV-I 4 W/m 12,8 C 13,3 C 11,3 km/h (2 Bft) 96,30 %
14.06.2016 05:26 13,7 C 94 % 1001,8 hPa 0,0 l/m 9,1 km/h (2 Bft) SW 222 0 min 0,000 mm 0,0 UV-I 5 W/m 12,8 C 12,1 C 11,3 km/h (2 Bft) 96,88 %
14.06.2016 05:27 13,7 C 94 % 1001,8 hPa 0,0 l/m 7,1 km/h (2 Bft) S 180 0 min 0,000 mm 0,0 UV-I 6 W/m 12,8 C 13,3 C 11,3 km/h (2 Bft) 100,00 %
14.06.2016 05:28 13,8 C 94 % 1001,8 hPa 0,0 l/m 7,2 km/h (2 Bft) S-SW 207 0 min 0,000 mm 0,0 UV-I 7 W/m 12,9 C 13,3 C 9,7 km/h (2 Bft) 100,00 %
14.06.2016 05:29 13,8 C 94 % 1001,7 hPa 0,0 l/m 7,2 km/h (2 Bft) S-SW 202 0 min 0,000 mm 0,0 UV-I 7 W/m 12,9 C 13,3 C 11,3 km/h (2 Bft) 96,67 %
14.06.2016 05:30 13,8 C 94 % 1001,8 hPa 0,0 l/m 7,6 km/h (2 Bft) S-SW 211 0 min 0,000 mm 0,0 UV-I 8 W/m 12,9 C 13,1 C 9,7 km/h (2 Bft) 96,15 %
14.06.2016 05:31 13,8 C 94 % 1001,8 hPa 0,0 l/m 5,4 km/h (1 Bft) S 187 0 min 0,000 mm 0,0 UV-I 9 W/m 12,9 C 13,8 C 8,0 km/h (2 Bft) 100,00 %
14.06.2016 05:32 13,8 C 94 % 1001,8 hPa 0,0 l/m 6,6 km/h (2 Bft) S-SW 213 0 min 0,000 mm 0,0 UV-I 9 W/m 12,9 C 13,7 C 11,3 km/h (2 Bft) 96,30 %
14.06.2016 05:33 13,8 C 94 % 1001,8 hPa 0,0 l/m 7,7 km/h (2 Bft) SW 217 0 min 0,000 mm 0,0 UV-I 10 W/m 12,9 C 13,0 C 12,9 km/h (3 Bft) 100,00 %
14.06.2016 05:34 13,8 C 94 % 1001,8 hPa 0,0 l/m 6,6 km/h (2 Bft) W 259 0 min 0,000 mm 0,0 UV-I 11 W/m 12,9 C 13,7 C 9,7 km/h (2 Bft) 91,30 %
14.06.2016 05:35 13,8 C 94 % 1001,8 hPa 0,0 l/m 9,7 km/h (2 Bft) S-SW 194 0 min 0,000 mm 0,0 UV-I 13 W/m 12,9 C 11,9 C 12,9 km/h (3 Bft) 100,00 %
14.06.2016 05:36 13,8 C 94 % 1001,8 hPa 0,0 l/m 8,4 km/h (2 Bft) SW 223 0 min 0,000 mm 0,0 UV-I 14 W/m 12,9 C 12,6 C 11,3 km/h (2 Bft) 96,30 %
14.06.2016 05:37 13,8 C 94 % 1001,8 hPa 0,0 l/m 6,2 km/h (2 Bft) S 190 0 min 0,000 mm 0,0 UV-I 14 W/m 12,9 C 13,8 C 9,7 km/h (2 Bft) 96,55 %
14.06.2016 05:38 13,8 C 94 % 1001,8 hPa 0,0 l/m 10,5 km/h (2 Bft) SW 221 0 min 0,000 mm 0,0 UV-I 14 W/m 12,9 C 11,6 C 12,9 km/h (3 Bft) 100,00 %
14.06.2016 05:39 13,9 C 94 % 1001,8 hPa 0,0 l/m 5,5 km/h (1 Bft) SW 225 0 min 0,000 mm 0,0 UV-I 15 W/m 12,9 C 13,9 C 8,0 km/h (2 Bft) 96,30 %
14.06.2016 05:40 13,9 C 94 % 1001,8 hPa 0,0 l/m 9,3 km/h (2 Bft) W-SW 242 0 min 0,000 mm 0,0 UV-I 16 W/m 12,9 C 12,2 C 14,5 km/h (3 Bft) 100,00 %
14.06.2016 05:41 13,9 C 94 % 1001,8 hPa 0,0 l/m 7,4 km/h (2 Bft) S-SW 196 0 min 0,000 mm 0,0 UV-I 15 W/m 12,9 C 13,3 C 11,3 km/h (2 Bft) 100,00 %
14.06.2016 05:42 13,9 C 94 % 1001,8 hPa 0,0 l/m 7,3 km/h (2 Bft) S-SW 200 0 min 0,000 mm 0,0 UV-I 14 W/m 12,9 C 13,4 C 12,9 km/h (3 Bft) 100,00 %
14.06.2016 05:43 13,9 C 94 % 1001,8 hPa 0,0 l/m 6,3 km/h (2 Bft) SW 221 0 min 0,000 mm 0,0 UV-I 14 W/m 12,9 C 13,9 C 9,7 km/h (2 Bft) 100,00 %
14.06.2016 05:44 13,9 C 94 % 1001,8 hPa 0,0 l/m 7,9 km/h (2 Bft) S-SW 193 0 min 0,000 mm 0,0 UV-I 14 W/m 12,9 C 13,0 C 12,9 km/h (3 Bft) 100,00 %
14.06.2016 05:45 13,9 C 94 % 1001,8 hPa 0,0 l/m 7,7 km/h (2 Bft) W-SW 243 0 min 0,000 mm 0,0 UV-I 17 W/m 12,9 C 13,1 C 9,7 km/h (2 Bft) 100,00 %
14.06.2016 05:46 13,9 C 93 % 1001,8 hPa 0,0 l/m 7,2 km/h (2 Bft) W-SW 239 0 min 0,000 mm 0,0 UV-I 20 W/m 12,8 C 13,4 C 11,3 km/h (2 Bft) 100,00 %
14.06.2016 05:47 13,9 C 93 % 1001,8 hPa 0,0 l/m 9,4 km/h (2 Bft) W-SW 239 0 min 0,000 mm 0,0 UV-I 23 W/m 12,8 C 12,2 C 12,9 km/h (3 Bft) 100,00 %
14.06.2016 05:48 13,9 C 93 % 1001,8 hPa 0,0 l/m 4,6 km/h (1 Bft) S-SO 159 0 min 0,000 mm 0,0 UV-I 27 W/m 12,8 C 13,9 C 6,4 km/h (2 Bft) 93,33 %
14.06.2016 05:49 13,9 C 93 % 1001,8 hPa 0,0 l/m 6,5 km/h (2 Bft) W-SW 243 0 min 0,000 mm 0,0 UV-I 30 W/m 12,8 C 13,9 C 12,9 km/h (3 Bft) 100,00 %
14.06.2016 05:50 13,9 C 93 % 1001,8 hPa 0,0 l/m 3,9 km/h (1 Bft) S-SW 213 0 min 0,000 mm 0,0 UV-I 30 W/m 12,8 C 13,9 C 6,4 km/h (2 Bft) 100,00 %
14.06.2016 05:51 13,9 C 93 % 1001,8 hPa 0,0 l/m 7,2 km/h (2 Bft) SW 223 0 min 0,000 mm 0,0 UV-I 30 W/m 12,8 C 13,4 C 11,3 km/h (2 Bft) 100,00 %
14.06.2016 05:52 13,9 C 93 % 1001,8 hPa 0,0 l/m 8,4 km/h (2 Bft) SW 215 0 min 0,000 mm 0,0 UV-I 29 W/m 12,8 C 12,7 C 12,9 km/h (3 Bft) 100,00 %
14.06.2016 05:53 13,9 C 93 % 1001,8 hPa 0,0 l/m 8,9 km/h (2 Bft) W-SW 245 0 min 0,000 mm 0,0 UV-I 27 W/m 12,8 C 12,5 C 11,3 km/h (2 Bft) 100,00 %
14.06.2016 05:54 13,9 C 93 % 1001,8 hPa 0,0 l/m 8,4 km/h (2 Bft) SW 230 0 min 0,000 mm 0,0 UV-I 25 W/m 12,8 C 12,7 C 16,1 km/h (3 Bft) 91,67 %
14.06.2016 05:55 13,9 C 93 % 1001,8 hPa 0,0 l/m 8,1 km/h (2 Bft) S-SW 211 0 min 0,000 mm 0,0 UV-I 25 W/m 12,8 C 12,9 C 11,3 km/h (2 Bft) 93,33 %
14.06.2016 05:56 13,9 C 94 % 1001,8 hPa 0,0 l/m 8,0 km/h (2 Bft) SW 235 0 min 0,000 mm 0,0 UV-I 23 W/m 12,9 C 12,9 C 11,3 km/h (2 Bft) 100,00 %
14.06.2016 05:57 13,9 C 94 % 1001,8 hPa 0,0 l/m 6,4 km/h (2 Bft) SW 220 0 min 0,000 mm 0,0 UV-I 23 W/m 12,9 C 13,9 C 9,7 km/h (2 Bft) 100,00 %
14.06.2016 05:58 13,9 C 94 % 1001,8 hPa 0,0 l/m 6,1 km/h (2 Bft) SW 227 0 min 0,000 mm 0,0 UV-I 24 W/m 12,9 C 13,9 C 12,9 km/h (3 Bft) 100,00 %
14.06.2016 05:59 13,9 C 93 % 1001,8 hPa 0,0 l/m 7,0 km/h (2 Bft) W-SW 241 0 min 0,000 mm 0,0 UV-I 26 W/m 12,8 C 13,5 C 11,3 km/h (2 Bft) 100,00 %
14.06.2016 06:00 13,9 C 93 % 1001,8 hPa 0,0 l/m 6,9 km/h (2 Bft) S-SW 194 0 min 0,000 mm 0,0 UV-I 27 W/m 12,8 C 13,6 C 9,7 km/h (2 Bft) 100,00 %
14.06.2016 06:01 13,9 C 93 % 1001,8 hPa 0,0 l/m 5,2 km/h (1 Bft) SW 221 0 min 0,000 mm 0,0 UV-I 32 W/m 12,8 C 13,9 C 8,0 km/h (2 Bft) 100,00 %
14.06.2016 06:02 13,9 C 93 % 1001,8 hPa 0,0 l/m 5,4 km/h (1 Bft) SW 222 0 min 0,000 mm 0,0 UV-I 36 W/m 12,8 C 13,9 C 8,0 km/h (2 Bft) 92,86 %
14.06.2016 06:03 13,9 C 93 % 1001,8 hPa 0,0 l/m 7,5 km/h (2 Bft) SW 223 0 min 0,000 mm 0,0 UV-I 40 W/m 12,8 C 13,2 C 9,7 km/h (2 Bft) 100,00 %
14.06.2016 06:04 13,9 C 94 % 1001,8 hPa 0,0 l/m 6,0 km/h (2 Bft) S-SW 206 0 min 0,000 mm 0,0 UV-I 44 W/m 12,9 C 13,9 C 9,7 km/h (2 Bft) 100,00 %
14.06.2016 06:05 13,9 C 93 % 1001,8 hPa 0,0 l/m 4,4 km/h (1 Bft) S 175 0 min 0,000 mm 0,0 UV-I 48 W/m 12,8 C 13,9 C 6,4 km/h (2 Bft) 100,00 %
14.06.2016 06:06 13,9 C 93 % 1001,8 hPa 0,0 l/m 5,5 km/h (1 Bft) SW 233 0 min 0,000 mm 0,0 UV-I 52 W/m 12,8 C 13,9 C 8,0 km/h (2 Bft) 100,00 %
14.06.2016 06:07 13,9 C 93 % 1001,8 hPa 0,0 l/m 7,0 km/h (2 Bft) SW 216 0 min 0,000 mm 0,0 UV-I 54 W/m 12,8 C 13,5 C 9,7 km/h (2 Bft) 100,00 %
14.06.2016 06:08 13,9 C 93 % 1001,8 hPa 0,0 l/m 6,8 km/h (2 Bft) S 183 0 min 0,000 mm 0,0 UV-I 57 W/m 12,8 C 13,7 C 9,7 km/h (2 Bft) 100,00 %
14.06.2016 06:09 13,9 C 93 % 1001,8 hPa 0,0 l/m 8,0 km/h (2 Bft) S 175 0 min 0,000 mm 0,0 UV-I 61 W/m 12,8 C 12,9 C 12,9 km/h (3 Bft) 100,00 %
14.06.2016 06:10 13,9 C 93 % 1001,8 hPa 0,0 l/m 6,9 km/h (2 Bft) S-SW 194 0 min 0,000 mm 0,0 UV-I 65 W/m 12,8 C 13,6 C 8,0 km/h (2 Bft) 95,65 %
14.06.2016 06:11 14,0 C 93 % 1001,9 hPa 0,0 l/m 9,3 km/h (2 Bft) SW 225 0 min 0,000 mm 0,0 UV-I 69 W/m 12,9 C 12,4 C 14,5 km/h (3 Bft) 100,00 %
14.06.2016 06:12 14,0 C 93 % 1001,9 hPa 0,0 l/m 7,7 km/h (2 Bft) SW 225 0 min 0,000 mm 0,0 UV-I 72 W/m 12,9 C 13,2 C 9,7 km/h (2 Bft) 93,33 %
14.06.2016 06:13 14,0 C 94 % 1001,9 hPa 0,0 l/m 8,0 km/h (2 Bft) SW 226 0 min 0,000 mm 0,0 UV-I 76 W/m 13,0 C 13,1 C 11,3 km/h (2 Bft) 100,00 %
14.06.2016 06:14 14,0 C 93 % 1001,9 hPa 0,0 l/m 7,4 km/h (2 Bft) S-SW 205 0 min 0,000 mm 0,0 UV-I 81 W/m 12,9 C 13,4 C 9,7 km/h (2 Bft) 100,00 %
14.06.2016 06:15 14,0 C 93 % 1001,9 hPa 0,0 l/m 8,6 km/h (2 Bft) SW 227 0 min 0,000 mm 0,0 UV-I 87 W/m 12,9 C 12,7 C 14,5 km/h (3 Bft) 100,00 %
14.06.2016 06:16 14,1 C 93 % 1001,9 hPa 0,0 l/m 8,2 km/h (2 Bft) W-SW 242 1 min 0,000 mm 0,0 UV-I 93 W/m 13,0 C 13,0 C 12,9 km/h (3 Bft) 100,00 %
14.06.2016 06:17 14,1 C 93 % 1001,9 hPa 0,0 l/m 6,0 km/h (2 Bft) SW 227 1 min 0,000 mm 0,0 UV-I 96 W/m 13,0 C 14,1 C 9,7 km/h (2 Bft) 95,65 %
14.06.2016 06:18 14,1 C 93 % 1001,9 hPa 0,0 l/m 9,1 km/h (2 Bft) S-SW 213 1 min 0,000 mm 0,0 UV-I 97 W/m 13,0 C 12,6 C 14,5 km/h (3 Bft) 100,00 %
14.06.2016 06:19 14,1 C 93 % 1001,9 hPa 0,0 l/m 15,8 km/h (3 Bft) SW 232 0 min 0,000 mm 0,0 UV-I 93 W/m 13,0 C 9,8 C 20,9 km/h (4 Bft) 100,00 %
14.06.2016 06:20 14,1 C 93 % 1001,9 hPa 0,0 l/m 9,6 km/h (2 Bft) W-SW 248 0 min 0,000 mm 0,0 UV-I 89 W/m 13,0 C 12,3 C 16,1 km/h (3 Bft) 100,00 %
14.06.2016 06:21 14,1 C 93 % 1001,9 hPa 0,0 l/m 12,0 km/h (2 Bft) W-SW 241 0 min 0,000 mm 0,0 UV-I 83 W/m 13,0 C 11,2 C 16,1 km/h (3 Bft) 100,00 %
14.06.2016 06:22 14,1 C 93 % 1001,9 hPa 0,0 l/m 12,6 km/h (3 Bft) W-SW 244 0 min 0,000 mm 0,0 UV-I 80 W/m 13,0 C 11,0 C 17,7 km/h (3 Bft) 100,00 %
14.06.2016 06:23 14,1 C 93 % 1001,9 hPa 0,0 l/m 10,0 km/h (2 Bft) W-SW 242 0 min 0,000 mm 0,0 UV-I 78 W/m 13,0 C 12,1 C 16,1 km/h (3 Bft) 100,00 %
14.06.2016 06:24 14,2 C 93 % 1001,9 hPa 0,0 l/m 9,7 km/h (2 Bft) S 186 0 min 0,000 mm 0,0 UV-I 77 W/m 13,1 C 12,4 C 12,9 km/h (3 Bft) 100,00 %
14.06.2016 06:25 14,2 C 93 % 1001,9 hPa 0,0 l/m 12,5 km/h (3 Bft) S-SW 210 0 min 0,000 mm 0,0 UV-I 80 W/m 13,1 C 11,1 C 17,7 km/h (3 Bft) 98,75 %
14.06.2016 06:26 14,2 C 93 % 1001,9 hPa 0,0 l/m 10,8 km/h (2 Bft) W-SW 256 0 min 0,000 mm 0,0 UV-I 84 W/m 13,1 C 11,9 C 14,5 km/h (3 Bft) 100,00 %
14.06.2016 06:27 14,2 C 93 % 1002,0 hPa 0,0 l/m 12,5 km/h (3 Bft) SW 229 0 min 0,000 mm 0,0 UV-I 87 W/m 13,1 C 11,1 C 16,1 km/h (3 Bft) 100,00 %
14.06.2016 06:28 14,2 C 92 % 1001,9 hPa 0,0 l/m 13,6 km/h (3 Bft) W-SW 254 0 min 0,000 mm 0,0 UV-I 90 W/m 12,9 C 10,7 C 22,5 km/h (4 Bft) 100,00 %
14.06.2016 06:29 14,2 C 92 % 1001,9 hPa 0,0 l/m 15,8 km/h (3 Bft) W 263 0 min 0,000 mm 0,0 UV-I 92 W/m 12,9 C 10,0 C 20,9 km/h (4 Bft) 100,00 %
14.06.2016 06:30 14,2 C 93 % 1001,9 hPa 0,0 l/m 10,0 km/h (2 Bft) SW 222 0 min 0,000 mm 0,0 UV-I 96 W/m 13,1 C 12,2 C 14,5 km/h (3 Bft) 100,00 %
14.06.2016 06:31 14,2 C 93 % 1001,9 hPa 0,0 l/m 10,1 km/h (2 Bft) SW 225 0 min 0,000 mm 0,0 UV-I 98 W/m 13,1 C 12,2 C 12,9 km/h (3 Bft) 100,00 %
14.06.2016 06:32 14,2 C 93 % 1001,9 hPa 0,0 l/m 8,9 km/h (2 Bft) SW 227 0 min 0,000 mm 0,0 UV-I 101 W/m 13,1 C 12,8 C 12,9 km/h (3 Bft) 100,00 %
14.06.2016 06:33 14,2 C 93 % 1001,9 hPa 0,0 l/m 10,9 km/h (2 Bft) W-SW 242 0 min 0,000 mm 0,0 UV-I 103 W/m 13,1 C 11,8 C 12,9 km/h (3 Bft) 100,00 %
14.06.2016 06:34 14,2 C 93 % 1001,9 hPa 0,0 l/m 9,4 km/h (2 Bft) S-SW 209 0 min 0,000 mm 0,0 UV-I 104 W/m 13,1 C 12,5 C 16,1 km/h (3 Bft) 100,00 %
14.06.2016 06:35 14,2 C 93 % 1001,9 hPa 0,0 l/m 10,8 km/h (2 Bft) W-SW 246 0 min 0,000 mm 0,0 UV-I 104 W/m 13,1 C 11,9 C 12,9 km/h (3 Bft) 100,00 %
14.06.2016 06:36 14,2 C 93 % 1001,9 hPa 0,0 l/m 9,0 km/h (2 Bft) SW 223 0 min 0,000 mm 0,0 UV-I 104 W/m 13,1 C 12,7 C 12,9 km/h (3 Bft) 100,00 %
14.06.2016 06:37 14,2 C 93 % 1001,9 hPa 0,0 l/m 14,8 km/h (3 Bft) W-SW 249 0 min 0,000 mm 0,0 UV-I 104 W/m 13,1 C 10,3 C 20,9 km/h (4 Bft) 100,00 %
14.06.2016 06:38 14,2 C 93 % 1001,9 hPa 0,0 l/m 11,0 km/h (2 Bft) W-SW 238 0 min 0,000 mm 0,0 UV-I 102 W/m 13,1 C 11,8 C 17,7 km/h (3 Bft) 100,00 %
14.06.2016 06:39 14,2 C 93 % 1001,9 hPa 0,0 l/m 9,1 km/h (2 Bft) S-SW 210 0 min 0,000 mm 0,0 UV-I 98 W/m 13,1 C 12,7 C 14,5 km/h (3 Bft) 100,00 %
14.06.2016 06:40 14,2 C 92 % 1001,9 hPa 0,0 l/m 12,1 km/h (2 Bft) W-SW 239 0 min 0,000 mm 0,0 UV-I 94 W/m 12,9 C 11,3 C 14,5 km/h (3 Bft) 100,00 %
14.06.2016 06:41 14,2 C 93 % 1001,9 hPa 0,0 l/m 13,0 km/h (3 Bft) SW 220 0 min 0,000 mm 0,0 UV-I 90 W/m 13,1 C 11,0 C 20,9 km/h (4 Bft) 100,00 %
14.06.2016 06:42 14,2 C 93 % 1001,9 hPa 0,0 l/m 9,8 km/h (2 Bft) W-SW 255 0 min 0,000 mm 0,0 UV-I 84 W/m 13,1 C 12,3 C 14,5 km/h (3 Bft) 96,15 %
14.06.2016 06:43 14,2 C 93 % 1001,9 hPa 0,0 l/m 9,9 km/h (2 Bft) W-SW 240 0 min 0,000 mm 0,0 UV-I 78 W/m 13,1 C 12,3 C 14,5 km/h (3 Bft) 100,00 %
14.06.2016 06:44 14,2 C 93 % 1001,9 hPa 0,0 l/m 10,4 km/h (2 Bft) SW 226 0 min 0,000 mm 0,0 UV-I 74 W/m 13,1 C 12,0 C 16,1 km/h (3 Bft) 100,00 %
14.06.2016 06:45 14,2 C 93 % 1001,9 hPa 0,0 l/m 8,4 km/h (2 Bft) S-SW 206 0 min 0,000 mm 0,0 UV-I 70 W/m 13,1 C 13,0 C 11,3 km/h (2 Bft) 100,00 %
14.06.2016 06:46 14,2 C 93 % 1001,9 hPa 0,0 l/m 14,1 km/h (3 Bft) W-SW 241 0 min 0,000 mm 0,0 UV-I 67 W/m 13,1 C 10,5 C 20,9 km/h (4 Bft) 100,00 %
14.06.2016 06:47 14,2 C 93 % 1001,9 hPa 0,0 l/m 11,9 km/h (2 Bft) SW 232 0 min 0,000 mm 0,0 UV-I 65 W/m 13,1 C 11,4 C 14,5 km/h (3 Bft) 100,00 %
14.06.2016 06:48 14,2 C 92 % 1002,0 hPa 0,0 l/m 10,5 km/h (2 Bft) W-SW 244 0 min 0,000 mm 0,0 UV-I 63 W/m 12,9 C 12,0 C 16,1 km/h (3 Bft) 100,00 %
14.06.2016 06:49 14,1 C 92 % 1002,0 hPa 0,0 l/m 17,8 km/h (3 Bft) W-SW 237 0 min 0,000 mm 0,0 UV-I 62 W/m 12,8 C 9,2 C 24,1 km/h (4 Bft) 100,00 %
14.06.2016 06:50 14,1 C 92 % 1001,9 hPa 0,0 l/m 17,5 km/h (3 Bft) W-SW 246 0 min 0,000 mm 0,0 UV-I 60 W/m 12,8 C 9,3 C 20,9 km/h (4 Bft) 93,33 %
14.06.2016 06:51 14,1 C 92 % 1002,0 hPa 0,0 l/m 10,5 km/h (2 Bft) SW 230 0 min 0,000 mm 0,0 UV-I 60 W/m 12,8 C 11,9 C 16,1 km/h (3 Bft) 100,00 %
14.06.2016 06:52 14,1 C 92 % 1002,0 hPa 0,0 l/m 16,0 km/h (3 Bft) W-SW 240 0 min 0,000 mm 0,0 UV-I 59 W/m 12,8 C 9,8 C 22,5 km/h (4 Bft) 91,67 %
14.06.2016 06:53 14,1 C 92 % 1002,0 hPa 0,0 l/m 14,8 km/h (3 Bft) SW 217 0 min 0,000 mm 0,0 UV-I 56 W/m 12,8 C 10,2 C 19,3 km/h (3 Bft) 100,00 %
14.06.2016 06:54 14,1 C 93 % 1002,0 hPa 0,0 l/m 10,8 km/h (2 Bft) W-SW 246 0 min 0,000 mm 0,0 UV-I 58 W/m 13,0 C 11,8 C 17,7 km/h (3 Bft) 100,00 %
14.06.2016 06:55 14,1 C 92 % 1002,0 hPa 0,0 l/m 12,0 km/h (2 Bft) W 259 0 min 0,000 mm 0,0 UV-I 62 W/m 12,8 C 11,2 C 19,3 km/h (3 Bft) 100,00 %
14.06.2016 06:56 14,1 C 92 % 1002,0 hPa 0,0 l/m 13,6 km/h (3 Bft) W-SW 257 0 min 0,000 mm 0,0 UV-I 64 W/m 12,8 C 10,6 C 19,3 km/h (3 Bft) 100,00 %
14.06.2016 06:57 14,1 C 92 % 1002,0 hPa 0,0 l/m 15,9 km/h (3 Bft) W-SW 238 0 min 0,000 mm 0,0 UV-I 65 W/m 12,8 C 9,8 C 24,1 km/h (4 Bft) 100,00 %
14.06.2016 06:58 14,0 C 92 % 1002,0 hPa 0,0 l/m 13,2 km/h (3 Bft) SW 223 0 min 0,000 mm 0,0 UV-I 63 W/m 12,7 C 10,6 C 19,3 km/h (3 Bft) 100,00 %
14.06.2016 06:59 14,0 C 92 % 1002,1 hPa 0,0 l/m 19,4 km/h (3 Bft) W-SW 238 0 min 0,000 mm 0,0 UV-I 60 W/m 12,7 C 8,6 C 25,7 km/h (4 Bft) 100,00 %
14.06.2016 07:00 14,0 C 92 % 1002,1 hPa 0,0 l/m 13,0 km/h (3 Bft) SW 227 0 min 0,051 mm 0,0 UV-I 58 W/m 12,7 C 10,7 C 19,3 km/h (3 Bft) 100,00 %
14.06.2016 07:02 14,0 C 92 % 1002,0 hPa 0,0 l/m 13,5 km/h (3 Bft) SW 234 0 min 0,000 mm 0,0 UV-I 54 W/m 12,7 C 10,5 C 19,3 km/h (3 Bft) 97,56 %
14.06.2016 07:03 14,0 C 92 % 1002,0 hPa 0,0 l/m 14,1 km/h (3 Bft) SW 224 0 min 0,000 mm 0,0 UV-I 53 W/m 12,7 C 10,3 C 19,3 km/h (3 Bft) 100,00 %
14.06.2016 07:04 13,9 C 92 % 1002,1 hPa 0,0 l/m 16,9 km/h (3 Bft) SW 227 0 min 0,000 mm 0,0 UV-I 53 W/m 12,6 C 9,2 C 20,9 km/h (4 Bft) 100,00 %
14.06.2016 07:05 13,9 C 92 % 1002,0 hPa 0,0 l/m 12,9 km/h (3 Bft) SW 223 0 min 0,000 mm 0,0 UV-I 54 W/m 12,6 C 10,6 C 19,3 km/h (3 Bft) 95,65 %
14.06.2016 07:06 13,9 C 92 % 1002,0 hPa 0,0 l/m 10,9 km/h (2 Bft) SW 221 0 min 0,000 mm 0,0 UV-I 56 W/m 12,6 C 11,5 C 16,1 km/h (3 Bft) 95,83 %
14.06.2016 07:07 13,9 C 92 % 1002,0 hPa 0,0 l/m 12,1 km/h (2 Bft) SW 235 0 min 0,000 mm 0,0 UV-I 59 W/m 12,6 C 11,0 C 19,3 km/h (3 Bft) 95,65 %
14.06.2016 07:08 13,9 C 92 % 1002,0 hPa 0,0 l/m 12,7 km/h (3 Bft) S-SW 203 0 min 0,000 mm 0,0 UV-I 65 W/m 12,6 C 10,7 C 19,3 km/h (3 Bft) 100,00 %
14.06.2016 07:09 13,9 C 92 % 1002,0 hPa 0,0 l/m 14,0 km/h (3 Bft) S-SW 200 0 min 0,000 mm 0,0 UV-I 69 W/m 12,6 C 10,2 C 19,3 km/h (3 Bft) 97,56 %
14.06.2016 07:10 13,9 C 92 % 1002,0 hPa 0,0 l/m 10,4 km/h (2 Bft) W-SW 256 0 min 0,000 mm 0,0 UV-I 74 W/m 12,6 C 11,7 C 14,5 km/h (3 Bft) 95,83 %
14.06.2016 07:11 13,9 C 92 % 1002,0 hPa 0,0 l/m 11,6 km/h (2 Bft) S-SW 207 0 min 0,000 mm 0,0 UV-I 80 W/m 12,6 C 11,2 C 14,5 km/h (3 Bft) 100,00 %
14.06.2016 07:12 13,9 C 92 % 1002,0 hPa 0,0 l/m 15,0 km/h (3 Bft) S-SW 211 0 min 0,000 mm 0,0 UV-I 84 W/m 12,6 C 9,9 C 20,9 km/h (4 Bft) 100,00 %
14.06.2016 07:13 13,9 C 92 % 1002,1 hPa 0,0 l/m 14,0 km/h (3 Bft) W-SW 239 0 min 0,000 mm 0,0 UV-I 87 W/m 12,6 C 10,2 C 19,3 km/h (3 Bft) 96,30 %
14.06.2016 07:14 13,9 C 92 % 1002,0 hPa 0,0 l/m 12,3 km/h (3 Bft) W-SW 246 0 min 0,000 mm 0,0 UV-I 89 W/m 12,6 C 10,9 C 16,1 km/h (3 Bft) 95,65 %
14.06.2016 07:15 13,9 C 92 % 1002,0 hPa 0,0 l/m 8,6 km/h (2 Bft) SW 217 0 min 0,000 mm 0,0 UV-I 91 W/m 12,6 C 12,6 C 12,9 km/h (3 Bft) 100,00 %
14.06.2016 07:16 13,9 C 92 % 1002,1 hPa 0,0 l/m 7,4 km/h (2 Bft) W-SW 255 0 min 0,000 mm 0,0 UV-I 91 W/m 12,6 C 13,3 C 11,3 km/h (2 Bft) 95,65 %
14.06.2016 07:17 13,9 C 92 % 1002,0 hPa 0,0 l/m 13,0 km/h (3 Bft) W-SW 238 0 min 0,000 mm 0,0 UV-I 91 W/m 12,6 C 10,6 C 19,3 km/h (3 Bft) 100,00 %
14.06.2016 07:18 13,9 C 92 % 1002,0 hPa 0,0 l/m 11,7 km/h (2 Bft) SW 232 0 min 0,000 mm 0,0 UV-I 91 W/m 12,6 C 11,1 C 16,1 km/h (3 Bft) 90,91 %
14.06.2016 07:19 14,0 C 92 % 1002,1 hPa 0,0 l/m 12,8 km/h (3 Bft) SW 217 0 min 0,000 mm 0,0 UV-I 91 W/m 12,7 C 10,8 C 19,3 km/h (3 Bft) 100,00 %
14.06.2016 07:20 14,0 C 92 % 1002,1 hPa 0,0 l/m 11,7 km/h (2 Bft) S-SW 204 0 min 0,000 mm 0,0 UV-I 92 W/m 12,7 C 11,2 C 16,1 km/h (3 Bft) 95,65 %
14.06.2016 07:21 14,0 C 92 % 1002,1 hPa 0,0 l/m 12,2 km/h (2 Bft) W-SW 252 0 min 0,000 mm 0,0 UV-I 93 W/m 12,7 C 11,0 C 17,7 km/h (3 Bft) 96,30 %
14.06.2016 07:22 14,0 C 92 % 1002,2 hPa 0,0 l/m 8,4 km/h (2 Bft) SW 234 0 min 0,000 mm 0,0 UV-I 93 W/m 12,7 C 12,8 C 14,5 km/h (3 Bft) 100,00 %
14.06.2016 07:23 14,0 C 92 % 1002,2 hPa 0,0 l/m 11,1 km/h (2 Bft) W-SW 254 0 min 0,000 mm 0,0 UV-I 95 W/m 12,7 C 11,5 C 17,7 km/h (3 Bft) 95,83 %
14.06.2016 07:24 14,0 C 92 % 1002,1 hPa 0,0 l/m 12,2 km/h (2 Bft) SW 236 0 min 0,000 mm 0,0 UV-I 97 W/m 12,7 C 11,0 C 19,3 km/h (3 Bft) 100,00 %
14.06.2016 07:25 14,0 C 92 % 1002,1 hPa 0,0 l/m 12,5 km/h (3 Bft) W-SW 238 0 min 0,000 mm 0,0 UV-I 98 W/m 12,7 C 10,9 C 17,7 km/h (3 Bft) 93,33 %
14.06.2016 07:26 14,0 C 92 % 1002,2 hPa 0,0 l/m 9,7 km/h (2 Bft) W 264 0 min 0,000 mm 0,0 UV-I 98 W/m 12,7 C 12,2 C 16,1 km/h (3 Bft) 100,00 %
14.06.2016 07:27 14,0 C 92 % 1002,2 hPa 0,0 l/m 11,9 km/h (2 Bft) SW 230 0 min 0,000 mm 0,0 UV-I 98 W/m 12,7 C 11,2 C 17,7 km/h (3 Bft) 96,30 %
14.06.2016 07:28 14,0 C 92 % 1002,2 hPa 0,0 l/m 9,7 km/h (2 Bft) W-SW 258 0 min 0,000 mm 0,0 UV-I 97 W/m 12,7 C 12,2 C 16,1 km/h (3 Bft) 96,55 %
14.06.2016 07:29 14,0 C 92 % 1002,2 hPa 0,0 l/m 11,7 km/h (2 Bft) SW 225 0 min 0,000 mm 0,0 UV-I 97 W/m 12,7 C 11,2 C 16,1 km/h (3 Bft) 100,00 %
14.06.2016 07:30 14,0 C 91 % 1002,2 hPa 0,0 l/m 10,5 km/h (2 Bft) W 267 0 min 0,000 mm 0,0 UV-I 95 W/m 12,6 C 11,8 C 14,5 km/h (3 Bft) 96,30 %
14.06.2016 07:31 14,0 C 92 % 1002,3 hPa 0,0 l/m 9,4 km/h (2 Bft) W 279 0 min 0,000 mm 0,0 UV-I 96 W/m 12,7 C 12,3 C 17,7 km/h (3 Bft) 100,00 %
14.06.2016 07:32 14,0 C 91 % 1002,3 hPa 0,0 l/m 12,7 km/h (3 Bft) W 265 0 min 0,000 mm 0,0 UV-I 101 W/m 12,6 C 10,8 C 17,7 km/h (3 Bft) 91,67 %
14.06.2016 07:33 14,0 C 91 % 1002,2 hPa 0,0 l/m 12,5 km/h (3 Bft) W-SW 240 0 min 0,000 mm 0,0 UV-I 108 W/m 12,6 C 10,9 C 16,1 km/h (3 Bft) 100,00 %
14.06.2016 07:34 14,0 C 91 % 1002,2 hPa 0,0 l/m 12,3 km/h (3 Bft) W-SW 251 0 min 0,000 mm 0,0 UV-I 119 W/m 12,6 C 11,0 C 17,7 km/h (3 Bft) 95,83 %
14.06.2016 07:35 14,0 C 91 % 1002,2 hPa 0,0 l/m 9,7 km/h (2 Bft) W-SW 243 0 min 0,000 mm 0,0 UV-I 134 W/m 12,6 C 12,2 C 12,9 km/h (3 Bft) 100,00 %
14.06.2016 07:36 14,1 C 91 % 1002,2 hPa 0,0 l/m 9,6 km/h (2 Bft) W 265 0 min 0,000 mm 0,5 UV-I 142 W/m 12,7 C 12,3 C 12,9 km/h (3 Bft) 95,83 %
14.06.2016 07:37 14,1 C 91 % 1002,2 hPa 0,0 l/m 16,7 km/h (3 Bft) W-NW 290 0 min 0,000 mm 0,5 UV-I 166 W/m 12,7 C 9,5 C 20,9 km/h (4 Bft) 92,31 %
14.06.2016 07:38 14,1 C 91 % 1002,2 hPa 0,0 l/m 13,8 km/h (3 Bft) W-SW 254 0 min 0,000 mm 0,5 UV-I 174 W/m 12,7 C 10,5 C 19,3 km/h (3 Bft) 96,30 %
14.06.2016 07:39 14,1 C 91 % 1002,2 hPa 0,0 l/m 13,0 km/h (3 Bft) W 261 0 min 0,000 mm 0,5 UV-I 173 W/m 12,7 C 10,8 C 19,3 km/h (3 Bft) 92,86 %
14.06.2016 07:40 14,1 C 91 % 1002,2 hPa 0,0 l/m 14,2 km/h (3 Bft) SW 224 0 min 0,000 mm 0,5 UV-I 162 W/m 12,7 C 10,4 C 20,9 km/h (4 Bft) 100,00 %
14.06.2016 07:41 14,1 C 91 % 1002,2 hPa 0,0 l/m 14,3 km/h (3 Bft) W-SW 244 0 min 0,000 mm 0,5 UV-I 155 W/m 12,7 C 10,3 C 17,7 km/h (3 Bft) 100,00 %
14.06.2016 07:42 14,2 C 91 % 1002,2 hPa 0,0 l/m 11,6 km/h (2 Bft) W-SW 238 0 min 0,000 mm 0,5 UV-I 156 W/m 12,8 C 11,5 C 16,1 km/h (3 Bft) 100,00 %
14.06.2016 07:43 14,2 C 91 % 1002,2 hPa 0,0 l/m 14,3 km/h (3 Bft) W-SW 242 0 min 0,000 mm 0,5 UV-I 159 W/m 12,8 C 10,5 C 19,3 km/h (3 Bft) 94,12 %
14.06.2016 07:44 14,2 C 91 % 1002,2 hPa 0,0 l/m 14,6 km/h (3 Bft) SW 235 0 min 0,000 mm 0,5 UV-I 162 W/m 12,8 C 10,4 C 19,3 km/h (3 Bft) 100,00 %
14.06.2016 07:45 14,2 C 91 % 1002,3 hPa 0,0 l/m 9,4 km/h (2 Bft) W-SW 238 0 min 0,000 mm 0,6 UV-I 166 W/m 12,8 C 12,5 C 12,9 km/h (3 Bft) 96,15 %
14.06.2016 07:46 14,2 C 91 % 1002,3 hPa 0,0 l/m 12,5 km/h (3 Bft) SW 226 0 min 0,000 mm 0,6 UV-I 171 W/m 12,8 C 11,1 C 17,7 km/h (3 Bft) 100,00 %
14.06.2016 07:47 14,2 C 91 % 1002,3 hPa 0,0 l/m 14,4 km/h (3 Bft) W-SW 242 0 min 0,000 mm 0,5 UV-I 168 W/m 12,8 C 10,4 C 19,3 km/h (3 Bft) 100,00 %
14.06.2016 07:48 14,2 C 91 % 1002,3 hPa 0,0 l/m 10,9 km/h (2 Bft) W-SW 241 0 min 0,000 mm 0,5 UV-I 159 W/m 12,8 C 11,8 C 14,5 km/h (3 Bft) 100,00 %
14.06.2016 07:49 14,2 C 91 % 1002,3 hPa 0,0 l/m 9,9 km/h (2 Bft) W-SW 248 0 min 0,000 mm 0,5 UV-I 150 W/m 12,8 C 12,3 C 14,5 km/h (3 Bft) 100,00 %
14.06.2016 07:50 14,2 C 91 % 1002,3 hPa 0,0 l/m 7,8 km/h (2 Bft) S-SW 212 0 min 0,000 mm 0,5 UV-I 140 W/m 12,8 C 13,4 C 14,5 km/h (3 Bft) 100,00 %
14.06.2016 07:51 14,3 C 91 % 1002,3 hPa 0,0 l/m 7,3 km/h (2 Bft) W-SW 247 0 min 0,000 mm 0,5 UV-I 136 W/m 12,8 C 13,8 C 11,3 km/h (2 Bft) 100,00 %
14.06.2016 07:52 14,3 C 91 % 1002,3 hPa 0,0 l/m 10,7 km/h (2 Bft) W 281 0 min 0,000 mm 0,5 UV-I 135 W/m 12,8 C 12,0 C 14,5 km/h (3 Bft) 100,00 %
14.06.2016 07:53 14,3 C 91 % 1002,4 hPa 0,0 l/m 10,9 km/h (2 Bft) W-NW 285 0 min 0,000 mm 0,5 UV-I 135 W/m 12,8 C 11,9 C 14,5 km/h (3 Bft) 100,00 %
14.06.2016 07:54 14,3 C 91 % 1002,4 hPa 0,0 l/m 10,5 km/h (2 Bft) W 262 0 min 0,000 mm 0,5 UV-I 137 W/m 12,8 C 12,1 C 12,9 km/h (3 Bft) 100,00 %
14.06.2016 07:55 14,3 C 91 % 1002,4 hPa 0,0 l/m 10,0 km/h (2 Bft) W 263 0 min 0,000 mm 0,5 UV-I 135 W/m 12,8 C 12,3 C 14,5 km/h (3 Bft) 100,00 %
14.06.2016 07:56 14,3 C 91 % 1002,4 hPa 0,0 l/m 11,4 km/h (2 Bft) W-SW 239 0 min 0,000 mm 0,5 UV-I 134 W/m 12,8 C 11,7 C 14,5 km/h (3 Bft) 100,00 %
14.06.2016 07:57 14,3 C 91 % 1002,4 hPa 0,0 l/m 9,1 km/h (2 Bft) W 261 0 min 0,000 mm 0,5 UV-I 131 W/m 12,8 C 12,8 C 12,9 km/h (3 Bft) 96,30 %
14.06.2016 07:58 14,3 C 91 % 1002,4 hPa 0,0 l/m 8,6 km/h (2 Bft) W 278 0 min 0,000 mm 0,5 UV-I 124 W/m 12,8 C 13,0 C 12,9 km/h (3 Bft) 100,00 %
14.06.2016 07:59 14,3 C 91 % 1002,4 hPa 0,0 l/m 10,0 km/h (2 Bft) W-SW 253 0 min 0,000 mm 0,5 UV-I 127 W/m 12,8 C 12,3 C 14,5 km/h (3 Bft) 100,00 %
14.06.2016 08:00 14,3 C 91 % 1002,4 hPa 0,0 l/m 12,5 km/h (3 Bft) W 267 0 min 0,000 mm 0,5 UV-I 134 W/m 12,8 C 11,3 C 14,5 km/h (3 Bft) 100,00 %
14.06.2016 08:01 14,3 C 91 % 1002,3 hPa 0,0 l/m 9,8 km/h (2 Bft) W-NW 287 0 min 0,076 mm 0,6 UV-I 148 W/m 12,8 C 12,4 C 14,5 km/h (3 Bft) 100,00 %
14.06.2016 08:02 14,3 C 91 % 1002,3 hPa 0,0 l/m 7,4 km/h (2 Bft) SW 221 0 min 0,000 mm 0,7 UV-I 165 W/m 12,8 C 13,7 C 16,1 km/h (3 Bft) 100,00 %
14.06.2016 08:03 14,3 C 91 % 1002,4 hPa 0,0 l/m 11,3 km/h (2 Bft) W 267 0 min 0,000 mm 0,7 UV-I 176 W/m 12,8 C 11,8 C 14,5 km/h (3 Bft) 100,00 %
14.06.2016 08:04 14,3 C 91 % 1002,4 hPa 0,0 l/m 9,3 km/h (2 Bft) W-SW 242 0 min 0,000 mm 0,7 UV-I 185 W/m 12,8 C 12,7 C 16,1 km/h (3 Bft) 100,00 %
14.06.2016 08:05 14,3 C 90 % 1002,4 hPa 0,0 l/m 10,1 km/h (2 Bft) W-SW 254 0 min 0,000 mm 0,7 UV-I 186 W/m 12,7 C 12,3 C 14,5 km/h (3 Bft) 100,00 %
14.06.2016 08:06 14,3 C 91 % 1002,4 hPa 0,0 l/m 10,1 km/h (2 Bft) W-SW 246 0 min 0,000 mm 0,7 UV-I 184 W/m 12,8 C 12,3 C 12,9 km/h (3 Bft) 100,00 %
14.06.2016 08:07 14,4 C 91 % 1002,3 hPa 0,0 l/m 9,2 km/h (2 Bft) W-SW 253 0 min 0,000 mm 0,7 UV-I 179 W/m 12,9 C 12,8 C 12,9 km/h (3 Bft) 100,00 %
14.06.2016 08:08 14,4 C 91 % 1002,4 hPa 0,0 l/m 10,9 km/h (2 Bft) W-SW 252 0 min 0,000 mm 0,7 UV-I 177 W/m 12,9 C 12,0 C 16,1 km/h (3 Bft) 100,00 %
14.06.2016 08:09 14,4 C 91 % 1002,4 hPa 0,0 l/m 10,4 km/h (2 Bft) W-SW 256 0 min 0,000 mm 0,7 UV-I 176 W/m 12,9 C 12,3 C 16,1 km/h (3 Bft) 100,00 %
14.06.2016 08:10 14,4 C 90 % 1002,3 hPa 0,0 l/m 11,8 km/h (2 Bft) W-SW 253 0 min 0,000 mm 0,7 UV-I 177 W/m 12,8 C 11,7 C 16,1 km/h (3 Bft) 100,00 %
14.06.2016 08:11 14,4 C 90 % 1002,3 hPa 0,0 l/m 9,9 km/h (2 Bft) W-SW 251 0 min 0,000 mm 0,7 UV-I 184 W/m 12,8 C 12,5 C 14,5 km/h (3 Bft) 100,00 %
14.06.2016 08:12 14,4 C 90 % 1002,4 hPa 0,0 l/m 9,4 km/h (2 Bft) W-SW 238 0 min 0,000 mm 0,7 UV-I 189 W/m 12,8 C 12,7 C 14,5 km/h (3 Bft) 100,00 %
14.06.2016 08:13 14,5 C 91 % 1002,3 hPa 0,0 l/m 7,6 km/h (2 Bft) W-SW 257 0 min 0,000 mm 0,7 UV-I 196 W/m 13,0 C 13,8 C 12,9 km/h (3 Bft) 100,00 %
14.06.2016 08:14 14,5 C 90 % 1002,3 hPa 0,0 l/m 12,7 km/h (3 Bft) W-SW 254 0 min 0,000 mm 0,7 UV-I 200 W/m 12,9 C 11,4 C 14,5 km/h (3 Bft) 100,00 %
14.06.2016 08:15 14,5 C 90 % 1002,3 hPa 0,0 l/m 10,6 km/h (2 Bft) S 181 0 min 0,000 mm 0,7 UV-I 209 W/m 12,9 C 12,3 C 14,5 km/h (3 Bft) 100,00 %
14.06.2016 08:16 14,6 C 90 % 1002,3 hPa 0,0 l/m 13,1 km/h (3 Bft) W-SW 251 0 min 0,000 mm 0,7 UV-I 204 W/m 13,0 C 11,4 C 20,9 km/h (4 Bft) 100,00 %
14.06.2016 08:17 14,6 C 90 % 1002,3 hPa 0,0 l/m 13,0 km/h (3 Bft) W-SW 254 0 min 0,000 mm 0,7 UV-I 205 W/m 13,0 C 11,4 C 16,1 km/h (3 Bft) 96,15 %
14.06.2016 08:18 14,6 C 89 % 1002,3 hPa 0,0 l/m 9,7 km/h (2 Bft) W-SW 249 0 min 0,000 mm 0,7 UV-I 198 W/m 12,8 C 12,8 C 16,1 km/h (3 Bft) 100,00 %
14.06.2016 08:19 14,6 C 90 % 1002,3 hPa 0,0 l/m 9,5 km/h (2 Bft) S-SW 211 0 min 0,000 mm 0,7 UV-I 190 W/m 13,0 C 12,9 C 12,9 km/h (3 Bft) 96,15 %
14.06.2016 08:20 14,6 C 90 % 1002,3 hPa 0,0 l/m 9,1 km/h (2 Bft) W-SW 237 0 min 0,000 mm 0,7 UV-I 187 W/m 13,0 C 13,1 C 12,9 km/h (3 Bft) 100,00 %
14.06.2016 08:21 14,6 C 90 % 1002,3 hPa 0,0 l/m 11,6 km/h (2 Bft) W-SW 241 0 min 0,000 mm 0,7 UV-I 183 W/m 13,0 C 12,0 C 19,3 km/h (3 Bft) 100,00 %
14.06.2016 08:22 14,6 C 89 % 1002,3 hPa 0,0 l/m 7,5 km/h (2 Bft) SW 235 0 min 0,000 mm 0,7 UV-I 179 W/m 12,8 C 14,0 C 16,1 km/h (3 Bft) 100,00 %
14.06.2016 08:23 14,7 C 89 % 1002,3 hPa 0,0 l/m 10,1 km/h (2 Bft) S 188 0 min 0,000 mm 0,7 UV-I 176 W/m 12,9 C 12,7 C 16,1 km/h (3 Bft) 100,00 %
14.06.2016 08:24 14,6 C 89 % 1002,3 hPa 0,0 l/m 12,4 km/h (3 Bft) SW 221 0 min 0,000 mm 0,7 UV-I 173 W/m 12,8 C 11,7 C 19,3 km/h (3 Bft) 100,00 %
14.06.2016 08:25 14,7 C 90 % 1002,3 hPa 0,0 l/m 8,1 km/h (2 Bft) SW 215 0 min 0,000 mm 0,8 UV-I 170 W/m 13,1 C 13,7 C 11,3 km/h (2 Bft) 100,00 %
14.06.2016 08:26 14,7 C 90 % 1002,3 hPa 0,0 l/m 14,6 km/h (3 Bft) SW 227 0 min 0,000 mm 0,8 UV-I 171 W/m 13,1 C 11,0 C 19,3 km/h (3 Bft) 100,00 %
14.06.2016 08:27 14,7 C 89 % 1002,3 hPa 0,0 l/m 13,8 km/h (3 Bft) SW 229 0 min 0,000 mm 0,9 UV-I 173 W/m 12,9 C 11,2 C 17,7 km/h (3 Bft) 100,00 %
14.06.2016 08:28 14,7 C 89 % 1002,3 hPa 0,0 l/m 11,1 km/h (2 Bft) SW 218 0 min 0,000 mm 0,9 UV-I 185 W/m 12,9 C 12,3 C 16,1 km/h (3 Bft) 100,00 %
14.06.2016 08:29 14,7 C 89 % 1002,3 hPa 0,0 l/m 11,9 km/h (2 Bft) SW 229 0 min 0,000 mm 0,9 UV-I 194 W/m 12,9 C 12,0 C 16,1 km/h (3 Bft) 100,00 %
14.06.2016 08:30 14,7 C 89 % 1002,3 hPa 0,0 l/m 12,1 km/h (2 Bft) W-SW 255 0 min 0,000 mm 1,0 UV-I 204 W/m 12,9 C 11,9 C 16,1 km/h (3 Bft) 100,00 %
14.06.2016 08:31 14,7 C 89 % 1002,3 hPa 0,0 l/m 7,8 km/h (2 Bft) SW 216 0 min 0,000 mm 1,0 UV-I 224 W/m 12,9 C 13,9 C 11,3 km/h (2 Bft) 100,00 %
14.06.2016 08:32 14,7 C 88 % 1002,3 hPa 0,0 l/m 14,3 km/h (3 Bft) SW 233 0 min 0,000 mm 1,2 UV-I 260 W/m 12,7 C 11,1 C 19,3 km/h (3 Bft) 100,00 %
14.06.2016 08:33 14,7 C 89 % 1002,3 hPa 0,0 l/m 10,1 km/h (2 Bft) W-SW 254 0 min 0,000 mm 1,3 UV-I 281 W/m 12,9 C 12,7 C 14,5 km/h (3 Bft) 100,00 %
14.06.2016 08:34 14,7 C 89 % 1002,3 hPa 0,0 l/m 7,4 km/h (2 Bft) SW 221 1 min 0,000 mm 1,3 UV-I 354 W/m 12,9 C 14,1 C 12,9 km/h (3 Bft) 100,00 %
14.06.2016 08:35 14,8 C 88 % 1002,3 hPa 0,0 l/m 11,6 km/h (2 Bft) SW 221 1 min 0,000 mm 1,3 UV-I 335 W/m 12,8 C 12,2 C 19,3 km/h (3 Bft) 100,00 %
14.06.2016 08:36 14,8 C 88 % 1002,4 hPa 0,0 l/m 13,3 km/h (3 Bft) W-SW 253 1 min 0,000 mm 1,2 UV-I 302 W/m 12,8 C 11,5 C 19,3 km/h (3 Bft) 100,00 %
14.06.2016 08:37 14,9 C 89 % 1002,3 hPa 0,0 l/m 10,2 km/h (2 Bft) W-SW 240 1 min 0,000 mm 1,3 UV-I 323 W/m 13,1 C 12,9 C 17,7 km/h (3 Bft) 100,00 %
14.06.2016 08:38 14,9 C 89 % 1002,4 hPa 0,0 l/m 7,9 km/h (2 Bft) W-SW 257 1 min 0,000 mm 1,3 UV-I 295 W/m 13,1 C 14,1 C 12,9 km/h (3 Bft) 100,00 %
14.06.2016 08:39 15,0 C 89 % 1002,4 hPa 0,0 l/m 13,3 km/h (3 Bft) W 267 0 min 0,000 mm 1,3 UV-I 292 W/m 13,2 C 11,8 C 17,7 km/h (3 Bft) 100,00 %
14.06.2016 08:40 15,1 C 88 % 1002,4 hPa 0,0 l/m 9,8 km/h (2 Bft) W 274 1 min 0,000 mm 1,3 UV-I 340 W/m 13,1 C 13,3 C 14,5 km/h (3 Bft) 100,00 %
14.06.2016 08:41 15,1 C 88 % 1002,3 hPa 0,0 l/m 7,7 km/h (2 Bft) W 259 1 min 0,000 mm 1,3 UV-I 328 W/m 13,1 C 14,4 C 12,9 km/h (3 Bft) 100,00 %
14.06.2016 08:42 15,2 C 88 % 1002,3 hPa 0,0 l/m 10,1 km/h (2 Bft) SW 221 1 min 0,000 mm 1,4 UV-I 345 W/m 13,2 C 13,3 C 14,5 km/h (3 Bft) 100,00 %
14.06.2016 08:43 15,3 C 88 % 1002,3 hPa 0,0 l/m 13,8 km/h (3 Bft) W-SW 246 1 min 0,000 mm 1,5 UV-I 368 W/m 13,3 C 12,0 C 17,7 km/h (3 Bft) 100,00 %
14.06.2016 08:44 15,3 C 87 % 1002,4 hPa 0,0 l/m 8,4 km/h (2 Bft) W-SW 247 1 min 0,000 mm 1,5 UV-I 319 W/m 13,1 C 14,2 C 12,9 km/h (3 Bft) 100,00 %
14.06.2016 08:45 15,3 C 87 % 1002,4 hPa 0,0 l/m 7,3 km/h (2 Bft) S-SW 198 1 min 0,000 mm 1,5 UV-I 392 W/m 13,1 C 14,8 C 11,3 km/h (2 Bft) 100,00 %
14.06.2016 08:46 15,3 C 86 % 1002,3 hPa 0,0 l/m 12,3 km/h (3 Bft) SW 228 1 min 0,000 mm 1,6 UV-I 440 W/m 13,0 C 12,5 C 16,1 km/h (3 Bft) 100,00 %
14.06.2016 08:47 15,4 C 86 % 1002,3 hPa 0,0 l/m 10,4 km/h (2 Bft) S 179 1 min 0,000 mm 1,6 UV-I 485 W/m 13,1 C 13,4 C 14,5 km/h (3 Bft) 100,00 %
14.06.2016 08:48 15,4 C 86 % 1002,3 hPa 0,0 l/m 7,5 km/h (2 Bft) SW 217 1 min 0,000 mm 1,7 UV-I 506 W/m 13,1 C 14,8 C 11,3 km/h (2 Bft) 100,00 %
14.06.2016 08:49 15,4 C 86 % 1002,4 hPa 0,0 l/m 9,0 km/h (2 Bft) S-SW 205 1 min 0,000 mm 1,7 UV-I 506 W/m 13,1 C 14,0 C 12,9 km/h (3 Bft) 100,00 %
14.06.2016 08:50 15,6 C 86 % 1002,4 hPa 0,0 l/m 11,7 km/h (2 Bft) W 259 1 min 0,000 mm 1,8 UV-I 509 W/m 13,3 C 13,1 C 19,3 km/h (3 Bft) 100,00 %
14.06.2016 08:51 15,6 C 86 % 1002,4 hPa 0,0 l/m 13,9 km/h (3 Bft) W-SW 254 1 min 0,000 mm 1,8 UV-I 542 W/m 13,3 C 12,3 C 17,7 km/h (3 Bft) 95,65 %
14.06.2016 08:52 15,7 C 85 % 1002,3 hPa 0,0 l/m 11,7 km/h (2 Bft) W 268 1 min 0,000 mm 1,8 UV-I 553 W/m 13,2 C 13,2 C 16,1 km/h (3 Bft) 100,00 %
14.06.2016 08:53 15,8 C 86 % 1002,3 hPa 0,0 l/m 10,4 km/h (2 Bft) W-SW 255 1 min 0,000 mm 1,9 UV-I 574 W/m 13,5 C 13,8 C 12,9 km/h (3 Bft) 100,00 %
14.06.2016 08:54 15,8 C 87 % 1002,3 hPa 0,0 l/m 13,7 km/h (3 Bft) W-SW 252 1 min 0,000 mm 1,9 UV-I 577 W/m 13,6 C 12,6 C 19,3 km/h (3 Bft) 100,00 %
14.06.2016 08:55 15,9 C 85 % 1002,3 hPa 0,0 l/m 12,0 km/h (2 Bft) W 267 1 min 0,000 mm 1,9 UV-I 551 W/m 13,4 C 13,3 C 16,1 km/h (3 Bft) 100,00 %
14.06.2016 08:56 16,0 C 84 % 1002,4 hPa 0,0 l/m 9,7 km/h (2 Bft) SW 215 1 min 0,000 mm 1,8 UV-I 537 W/m 13,3 C 14,4 C 14,5 km/h (3 Bft) 96,30 %
14.06.2016 08:57 16,1 C 85 % 1002,4 hPa 0,0 l/m 11,7 km/h (2 Bft) SW 225 1 min 0,000 mm 1,8 UV-I 525 W/m 13,6 C 13,7 C 17,7 km/h (3 Bft) 100,00 %
14.06.2016 08:58 16,1 C 84 % 1002,3 hPa 0,0 l/m 13,7 km/h (3 Bft) W 271 1 min 0,000 mm 1,9 UV-I 561 W/m 13,4 C 12,9 C 17,7 km/h (3 Bft) 100,00 %
14.06.2016 08:59 16,1 C 83 % 1002,3 hPa 0,0 l/m 9,7 km/h (2 Bft) SW 226 1 min 0,000 mm 1,9 UV-I 525 W/m 13,2 C 14,5 C 14,5 km/h (3 Bft) 100,00 %
14.06.2016 09:00 16,1 C 85 % 1002,3 hPa 0,0 l/m 10,3 km/h (2 Bft) W-SW 239 1 min 0,178 mm 1,8 UV-I 485 W/m 13,6 C 14,2 C 16,1 km/h (3 Bft) 100,00 %
14.06.2016 09:02 16,1 C 84 % 1002,3 hPa 0,0 l/m 13,7 km/h (3 Bft) W 269 2 min 0,000 mm 1,9 UV-I 482 W/m 13,4 C 12,9 C 24,1 km/h (4 Bft) 100,00 %
14.06.2016 09:03 16,0 C 84 % 1002,3 hPa 0,0 l/m 14,8 km/h (3 Bft) W-SW 250 1 min 0,000 mm 1,7 UV-I 418 W/m 13,3 C 12,5 C 22,5 km/h (4 Bft) 100,00 %
14.06.2016 09:04 16,0 C 83 % 1002,4 hPa 0,0 l/m 19,1 km/h (3 Bft) W-SW 248 1 min 0,000 mm 1,7 UV-I 378 W/m 13,1 C 11,3 C 22,5 km/h (4 Bft) 100,00 %
14.06.2016 09:05 15,9 C 82 % 1002,4 hPa 0,0 l/m 14,0 km/h (3 Bft) W 263 1 min 0,000 mm 1,6 UV-I 375 W/m 12,8 C 12,6 C 20,9 km/h (4 Bft) 95,65 %
14.06.2016 09:06 15,9 C 83 % 1002,3 hPa 0,0 l/m 15,6 km/h (3 Bft) W-SW 239 1 min 0,000 mm 1,7 UV-I 369 W/m 13,0 C 12,1 C 20,9 km/h (4 Bft) 100,00 %
14.06.2016 09:07 15,8 C 82 % 1002,3 hPa 0,0 l/m 14,4 km/h (3 Bft) W 259 1 min 0,000 mm 1,7 UV-I 378 W/m 12,7 C 12,4 C 22,5 km/h (4 Bft) 96,55 %
14.06.2016 09:08 15,8 C 83 % 1002,3 hPa 0,0 l/m 12,3 km/h (3 Bft) W 260 1 min 0,000 mm 1,6 UV-I 394 W/m 12,9 C 13,1 C 17,7 km/h (3 Bft) 100,00 %
14.06.2016 09:09 15,8 C 83 % 1002,3 hPa 0,0 l/m 11,3 km/h (2 Bft) W-SW 244 1 min 0,000 mm 1,6 UV-I 381 W/m 12,9 C 13,5 C 17,7 km/h (3 Bft) 93,33 %
14.06.2016 09:10 15,8 C 84 % 1002,3 hPa 0,0 l/m 9,7 km/h (2 Bft) W-SW 255 1 min 0,000 mm 1,6 UV-I 384 W/m 13,1 C 14,1 C 14,5 km/h (3 Bft) 100,00 %
14.06.2016 09:11 15,8 C 85 % 1002,3 hPa 0,0 l/m 8,5 km/h (2 Bft) W 268 0 min 0,000 mm 1,5 UV-I 318 W/m 13,3 C 14,7 C 14,5 km/h (3 Bft) 98,90 %
14.06.2016 09:12 15,8 C 84 % 1002,3 hPa 0,0 l/m 7,8 km/h (2 Bft) W 270 0 min 0,000 mm 1,5 UV-I 310 W/m 13,1 C 15,0 C 11,3 km/h (2 Bft) 95,45 %
14.06.2016 09:13 15,8 C 84 % 1002,3 hPa 0,0 l/m 10,9 km/h (2 Bft) SW 229 0 min 0,000 mm 1,5 UV-I 309 W/m 13,1 C 13,6 C 17,7 km/h (3 Bft) 100,00 %
14.06.2016 09:14 15,8 C 84 % 1002,2 hPa 0,0 l/m 10,6 km/h (2 Bft) W-SW 238 0 min 0,000 mm 1,6 UV-I 309 W/m 13,1 C 13,7 C 14,5 km/h (3 Bft) 96,15 %
14.06.2016 09:15 15,8 C 84 % 1002,2 hPa 0,0 l/m 10,4 km/h (2 Bft) SW 216 0 min 0,000 mm 1,6 UV-I 307 W/m 13,1 C 13,8 C 12,9 km/h (3 Bft) 100,00 %
14.06.2016 09:16 15,8 C 85 % 1002,3 hPa 0,0 l/m 9,6 km/h (2 Bft) W 276 0 min 0,000 mm 1,6 UV-I 311 W/m 13,3 C 14,2 C 12,9 km/h (3 Bft) 96,55 %
14.06.2016 09:17 15,8 C 85 % 1002,2 hPa 0,0 l/m 12,1 km/h (2 Bft) W 259 0 min 0,000 mm 1,6 UV-I 325 W/m 13,3 C 13,2 C 17,7 km/h (3 Bft) 100,00 %
14.06.2016 09:18 15,8 C 85 % 1002,3 hPa 0,0 l/m 11,9 km/h (2 Bft) W 280 0 min 0,000 mm 1,7 UV-I 339 W/m 13,3 C 13,2 C 17,7 km/h (3 Bft) 95,65 %
14.06.2016 09:19 15,8 C 84 % 1002,2 hPa 0,0 l/m 11,7 km/h (2 Bft) W-SW 246 0 min 0,000 mm 1,7 UV-I 338 W/m 13,1 C 13,3 C 17,7 km/h (3 Bft) 100,00 %
14.06.2016 09:20 15,8 C 84 % 1002,2 hPa 0,0 l/m 14,1 km/h (3 Bft) SW 223 0 min 0,000 mm 1,7 UV-I 334 W/m 13,1 C 12,5 C 19,3 km/h (3 Bft) 96,15 %
14.06.2016 09:21 15,8 C 84 % 1002,3 hPa 0,0 l/m 11,9 km/h (2 Bft) S-SW 212 0 min 0,000 mm 1,7 UV-I 327 W/m 13,1 C 13,2 C 14,5 km/h (3 Bft) 93,33 %
14.06.2016 09:22 15,8 C 84 % 1002,3 hPa 0,0 l/m 11,8 km/h (2 Bft) SW 227 0 min 0,000 mm 1,7 UV-I 334 W/m 13,1 C 13,3 C 14,5 km/h (3 Bft) 100,00 %
14.06.2016 09:23 15,7 C 84 % 1002,3 hPa 0,0 l/m 13,9 km/h (3 Bft) W-SW 240 0 min 0,000 mm 1,7 UV-I 339 W/m 13,0 C 12,4 C 17,7 km/h (3 Bft) 96,30 %
14.06.2016 09:24 15,7 C 84 % 1002,3 hPa 0,0 l/m 11,2 km/h (2 Bft) W-SW 244 0 min 0,000 mm 1,7 UV-I 339 W/m 13,0 C 13,4 C 16,1 km/h (3 Bft) 95,65 %
14.06.2016 09:25 15,7 C 84 % 1002,3 hPa 0,0 l/m 11,2 km/h (2 Bft) W 263 0 min 0,000 mm 1,7 UV-I 339 W/m 13,0 C 13,4 C 17,7 km/h (3 Bft) 91,67 %
14.06.2016 09:26 15,7 C 85 % 1002,3 hPa 0,0 l/m 11,5 km/h (2 Bft) W 261 0 min 0,000 mm 1,7 UV-I 341 W/m 13,2 C 13,3 C 16,1 km/h (3 Bft) 100,00 %
14.06.2016 09:27 15,8 C 85 % 1002,2 hPa 0,0 l/m 9,8 km/h (2 Bft) W 259 0 min 0,000 mm 1,8 UV-I 341 W/m 13,3 C 14,1 C 16,1 km/h (3 Bft) 96,55 %
14.06.2016 09:28 15,8 C 85 % 1002,2 hPa 0,0 l/m 14,9 km/h (3 Bft) S-SW 202 0 min 0,000 mm 1,8 UV-I 341 W/m 13,3 C 12,2 C 17,7 km/h (3 Bft) 93,10 %
14.06.2016 09:29 15,8 C 84 % 1002,2 hPa 0,0 l/m 12,3 km/h (3 Bft) W-SW 239 0 min 0,000 mm 1,8 UV-I 343 W/m 13,1 C 13,1 C 16,1 km/h (3 Bft) 100,00 %
14.06.2016 09:30 15,8 C 84 % 1002,2 hPa 0,0 l/m 10,3 km/h (2 Bft) W-SW 255 0 min 0,000 mm 1,8 UV-I 345 W/m 13,1 C 13,9 C 14,5 km/h (3 Bft) 100,00 %
14.06.2016 09:31 15,8 C 84 % 1002,2 hPa 0,0 l/m 12,6 km/h (3 Bft) W-SW 243 0 min 0,000 mm 1,8 UV-I 347 W/m 13,1 C 13,0 C 16,1 km/h (3 Bft) 97,56 %
14.06.2016 09:32 15,8 C 86 % 1002,2 hPa 0,0 l/m 7,9 km/h (2 Bft) S-SW 212 0 min 0,000 mm 1,8 UV-I 345 W/m 13,5 C 15,0 C 12,9 km/h (3 Bft) 91,67 %
14.06.2016 09:33 15,8 C 85 % 1002,3 hPa 0,0 l/m 12,3 km/h (3 Bft) W-SW 252 0 min 0,000 mm 1,8 UV-I 340 W/m 13,3 C 13,1 C 20,9 km/h (4 Bft) 100,00 %
14.06.2016 09:34 15,8 C 84 % 1002,3 hPa 0,0 l/m 14,9 km/h (3 Bft) W 265 0 min 0,000 mm 1,8 UV-I 331 W/m 13,1 C 12,2 C 19,3 km/h (3 Bft) 95,83 %
14.06.2016 09:35 15,8 C 84 % 1002,3 hPa 0,0 l/m 11,9 km/h (2 Bft) W-SW 248 0 min 0,000 mm 1,7 UV-I 329 W/m 13,1 C 13,2 C 16,1 km/h (3 Bft) 100,00 %
14.06.2016 09:36 15,8 C 85 % 1002,3 hPa 0,0 l/m 8,9 km/h (2 Bft) W 269 0 min 0,000 mm 1,7 UV-I 325 W/m 13,3 C 14,5 C 14,5 km/h (3 Bft) 95,83 %
14.06.2016 09:37 15,8 C 84 % 1002,3 hPa 0,0 l/m 9,9 km/h (2 Bft) SW 236 0 min 0,000 mm 1,8 UV-I 328 W/m 13,1 C 14,0 C 16,1 km/h (3 Bft) 100,00 %
14.06.2016 09:38 15,8 C 85 % 1002,3 hPa 0,0 l/m 8,6 km/h (2 Bft) SW 229 0 min 0,000 mm 1,7 UV-I 317 W/m 13,3 C 14,6 C 12,9 km/h (3 Bft) 100,00 %
14.06.2016 09:39 15,9 C 85 % 1002,3 hPa 0,0 l/m 9,5 km/h (2 Bft) W-SW 250 0 min 0,000 mm 1,7 UV-I 317 W/m 13,4 C 14,3 C 14,5 km/h (3 Bft) 100,00 %
14.06.2016 09:40 15,9 C 85 % 1002,3 hPa 0,0 l/m 11,7 km/h (2 Bft) W 278 0 min 0,000 mm 1,7 UV-I 312 W/m 13,4 C 13,4 C 16,1 km/h (3 Bft) 100,00 %
14.06.2016 09:41 15,9 C 85 % 1002,3 hPa 0,0 l/m 11,1 km/h (2 Bft) W 273 0 min 0,000 mm 1,7 UV-I 306 W/m 13,4 C 13,7 C 16,1 km/h (3 Bft) 96,15 %
14.06.2016 09:42 15,9 C 85 % 1002,3 hPa 0,0 l/m 10,7 km/h (2 Bft) W 269 0 min 0,000 mm 1,7 UV-I 301 W/m 13,4 C 13,8 C 14,5 km/h (3 Bft) 100,00 %
14.06.2016 09:43 15,9 C 85 % 1002,3 hPa 0,0 l/m 5,4 km/h (1 Bft) W 274 0 min 0,000 mm 1,7 UV-I 299 W/m 13,4 C 15,9 C 8,0 km/h (2 Bft) 94,12 %
14.06.2016 09:44 15,9 C 84 % 1002,3 hPa 0,0 l/m 6,8 km/h (2 Bft) W-SW 247 0 min 0,000 mm 1,7 UV-I 294 W/m 13,2 C 15,7 C 14,5 km/h (3 Bft) 100,00 %
14.06.2016 09:45 15,9 C 85 % 1002,4 hPa 0,0 l/m 15,1 km/h (3 Bft) SW 230 0 min 0,000 mm 1,7 UV-I 291 W/m 13,4 C 12,3 C 19,3 km/h (3 Bft) 100,00 %
14.06.2016 09:46 15,9 C 85 % 1002,3 hPa 0,0 l/m 10,8 km/h (2 Bft) SW 227 0 min 0,000 mm 1,7 UV-I 287 W/m 13,4 C 13,8 C 17,7 km/h (3 Bft) 100,00 %
14.06.2016 09:47 15,9 C 85 % 1002,3 hPa 0,0 l/m 9,4 km/h (2 Bft) W-SW 250 0 min 0,000 mm 1,7 UV-I 283 W/m 13,4 C 14,4 C 17,7 km/h (3 Bft) 100,00 %
14.06.2016 09:48 15,9 C 84 % 1002,3 hPa 0,0 l/m 10,7 km/h (2 Bft) W-SW 242 0 min 0,000 mm 1,7 UV-I 279 W/m 13,2 C 13,8 C 16,1 km/h (3 Bft) 96,15 %
14.06.2016 09:49 15,9 C 85 % 1002,3 hPa 0,0 l/m 9,3 km/h (2 Bft) W 259 0 min 0,000 mm 1,7 UV-I 278 W/m 13,4 C 14,4 C 16,1 km/h (3 Bft) 100,00 %
14.06.2016 09:50 15,9 C 85 % 1002,3 hPa 0,0 l/m 9,1 km/h (2 Bft) W-SW 243 0 min 0,000 mm 1,8 UV-I 276 W/m 13,4 C 14,5 C 12,9 km/h (3 Bft) 96,55 %
14.06.2016 09:51 15,9 C 85 % 1002,3 hPa 0,0 l/m 11,5 km/h (2 Bft) SW 225 0 min 0,000 mm 1,8 UV-I 274 W/m 13,4 C 13,5 C 14,5 km/h (3 Bft) 100,00 %
14.06.2016 09:52 15,9 C 85 % 1002,3 hPa 0,0 l/m 10,1 km/h (2 Bft) SW 232 0 min 0,000 mm 1,8 UV-I 273 W/m 13,4 C 14,1 C 14,5 km/h (3 Bft) 100,00 %
14.06.2016 09:53 15,9 C 86 % 1002,4 hPa 0,0 l/m 13,0 km/h (3 Bft) SW 221 0 min 0,000 mm 1,8 UV-I 272 W/m 13,6 C 12,9 C 16,1 km/h (3 Bft) 100,00 %
14.06.2016 09:54 15,9 C 85 % 1002,3 hPa 0,0 l/m 12,4 km/h (3 Bft) S 188 0 min 0,000 mm 1,8 UV-I 270 W/m 13,4 C 13,2 C 17,7 km/h (3 Bft) 100,00 %
14.06.2016 09:55 15,9 C 84 % 1002,3 hPa 0,0 l/m 13,8 km/h (3 Bft) S-SW 209 0 min 0,000 mm 1,8 UV-I 267 W/m 13,2 C 12,7 C 19,3 km/h (3 Bft) 100,00 %
14.06.2016 09:56 15,8 C 84 % 1002,3 hPa 0,0 l/m 14,6 km/h (3 Bft) W-SW 239 0 min 0,000 mm 1,8 UV-I 267 W/m 13,1 C 12,3 C 19,3 km/h (3 Bft) 100,00 %
14.06.2016 09:57 15,8 C 83 % 1002,4 hPa 0,0 l/m 12,0 km/h (2 Bft) W-SW 237 0 min 0,000 mm 1,9 UV-I 268 W/m 12,9 C 13,2 C 16,1 km/h (3 Bft) 100,00 %
14.06.2016 09:58 15,8 C 84 % 1002,4 hPa 0,0 l/m 14,3 km/h (3 Bft) W-SW 238 0 min 0,000 mm 1,9 UV-I 273 W/m 13,1 C 12,4 C 19,3 km/h (3 Bft) 100,00 %
14.06.2016 09:59 15,7 C 83 % 1002,3 hPa 0,0 l/m 11,0 km/h (2 Bft) S-SW 209 0 min 0,000 mm 1,9 UV-I 283 W/m 12,8 C 13,5 C 16,1 km/h (3 Bft) 100,00 %
14.06.2016 10:00 15,7 C 84 % 1002,4 hPa 0,0 l/m 8,5 km/h (2 Bft) S 173 0 min 0,203 mm 2,0 UV-I 301 W/m 13,0 C 14,6 C 16,1 km/h (3 Bft) 96,15 %
14.06.2016 10:01 15,7 C 85 % 1002,4 hPa 0,0 l/m 9,9 km/h (2 Bft) SW 215 0 min 0,000 mm 2,1 UV-I 309 W/m 13,2 C 13,9 C 16,1 km/h (3 Bft) 100,00 %
14.06.2016 10:02 15,7 C 85 % 1002,4 hPa 0,0 l/m 9,8 km/h (2 Bft) W 262 0 min 0,000 mm 2,1 UV-I 306 W/m 13,2 C 14,0 C 16,1 km/h (3 Bft) 96,15 %
14.06.2016 10:03 15,7 C 85 % 1002,4 hPa 0,0 l/m 11,8 km/h (2 Bft) SW 232 0 min 0,000 mm 2,2 UV-I 319 W/m 13,2 C 13,2 C 16,1 km/h (3 Bft) 95,83 %
14.06.2016 10:04 15,8 C 85 % 1002,4 hPa 0,0 l/m 10,4 km/h (2 Bft) S 190 0 min 0,000 mm 2,2 UV-I 344 W/m 13,3 C 13,8 C 14,5 km/h (3 Bft) 100,00 %
14.06.2016 10:05 15,8 C 84 % 1002,4 hPa 0,0 l/m 7,6 km/h (2 Bft) S 170 0 min 0,000 mm 2,4 UV-I 378 W/m 13,1 C 15,1 C 11,3 km/h (2 Bft) 100,00 %
14.06.2016 10:06 15,8 C 85 % 1002,3 hPa 0,0 l/m 7,1 km/h (2 Bft) SW 234 1 min 0,000 mm 2,5 UV-I 415 W/m 13,3 C 15,4 C 11,3 km/h (2 Bft) 100,00 %
14.06.2016 10:07 15,9 C 84 % 1002,3 hPa 0,0 l/m 8,5 km/h (2 Bft) S-SW 208 1 min 0,000 mm 2,6 UV-I 441 W/m 13,2 C 14,8 C 12,9 km/h (3 Bft) 100,00 %
14.06.2016 10:08 15,9 C 84 % 1002,3 hPa 0,0 l/m 7,8 km/h (2 Bft) W-SW 239 1 min 0,000 mm 2,6 UV-I 440 W/m 13,2 C 15,1 C 11,3 km/h (2 Bft) 98,76 %
14.06.2016 10:09 16,1 C 85 % 1002,3 hPa 0,0 l/m 8,9 km/h (2 Bft) W 269 1 min 0,000 mm 2,6 UV-I 444 W/m 13,6 C 14,8 C 16,1 km/h (3 Bft) 100,00 %
14.06.2016 10:10 16,2 C 86 % 1002,3 hPa 0,0 l/m 7,0 km/h (2 Bft) W-SW 253 1 min 0,000 mm 2,7 UV-I 442 W/m 13,9 C 15,9 C 11,3 km/h (2 Bft) 100,00 %
14.06.2016 10:11 16,2 C 84 % 1002,3 hPa 0,0 l/m 8,6 km/h (2 Bft) W-SW 254 1 min 0,000 mm 2,8 UV-I 468 W/m 13,5 C 15,1 C 11,3 km/h (2 Bft) 100,00 %
14.06.2016 10:12 16,2 C 82 % 1002,3 hPa 0,0 l/m 10,4 km/h (2 Bft) S-SW 200 1 min 0,000 mm 2,9 UV-I 514 W/m 13,1 C 14,3 C 12,9 km/h (3 Bft) 96,30 %
14.06.2016 10:13 16,2 C 83 % 1002,3 hPa 0,0 l/m 9,0 km/h (2 Bft) S-SW 202 1 min 0,000 mm 3,0 UV-I 525 W/m 13,3 C 14,9 C 14,5 km/h (3 Bft) 100,00 %
14.06.2016 10:14 16,3 C 83 % 1002,3 hPa 0,0 l/m 11,1 km/h (2 Bft) S 179 1 min 0,000 mm 3,0 UV-I 515 W/m 13,4 C 14,1 C 19,3 km/h (3 Bft) 100,00 %
14.06.2016 10:15 16,3 C 83 % 1002,3 hPa 0,0 l/m 10,1 km/h (2 Bft) SW 215 1 min 0,000 mm 3,1 UV-I 548 W/m 13,4 C 14,5 C 16,1 km/h (3 Bft) 100,00 %
14.06.2016 10:16 16,2 C 83 % 1002,3 hPa 0,0 l/m 7,7 km/h (2 Bft) S-SW 193 1 min 0,000 mm 3,4 UV-I 609 W/m 13,3 C 15,5 C 14,5 km/h (3 Bft) 100,00 %
14.06.2016 10:17 16,3 C 84 % 1002,3 hPa 0,0 l/m 11,9 km/h (2 Bft) W-SW 252 1 min 0,000 mm 3,5 UV-I 632 W/m 13,6 C 13,8 C 19,3 km/h (3 Bft) 100,00 %
14.06.2016 10:18 16,4 C 83 % 1002,3 hPa 0,0 l/m 13,2 km/h (3 Bft) W-SW 240 1 min 0,000 mm 3,6 UV-I 688 W/m 13,5 C 13,5 C 17,7 km/h (3 Bft) 100,00 %
14.06.2016 10:19 16,5 C 83 % 1002,4 hPa 0,0 l/m 11,4 km/h (2 Bft) W-SW 248 1 min 0,000 mm 3,9 UV-I 763 W/m 13,6 C 14,2 C 14,5 km/h (3 Bft) 100,00 %
14.06.2016 10:20 16,6 C 83 % 1002,4 hPa 0,0 l/m 13,0 km/h (3 Bft) W-SW 244 1 min 0,000 mm 3,5 UV-I 763 W/m 13,7 C 13,8 C 17,7 km/h (3 Bft) 95,83 %
14.06.2016 10:21 16,7 C 83 % 1002,4 hPa 0,0 l/m 8,9 km/h (2 Bft) SW 236 1 min 0,000 mm 3,7 UV-I 728 W/m 13,8 C 15,5 C 17,7 km/h (3 Bft) 100,00 %
14.06.2016 10:22 16,7 C 82 % 1002,4 hPa 0,0 l/m 9,5 km/h (2 Bft) W 264 1 min 0,000 mm 3,5 UV-I 692 W/m 13,6 C 15,2 C 12,9 km/h (3 Bft) 100,00 %
14.06.2016 10:23 16,8 C 84 % 1002,4 hPa 0,0 l/m 11,1 km/h (2 Bft) SW 224 1 min 0,000 mm 3,3 UV-I 670 W/m 14,1 C 14,7 C 14,5 km/h (3 Bft) 100,00 %
14.06.2016 10:24 16,9 C 84 % 1002,4 hPa 0,0 l/m 7,7 km/h (2 Bft) W 263 1 min 0,000 mm 2,6 UV-I 666 W/m 14,2 C 16,2 C 11,3 km/h (2 Bft) 100,00 %
14.06.2016 10:25 16,9 C 82 % 1002,4 hPa 0,0 l/m 6,9 km/h (2 Bft) W 281 0 min 0,000 mm 2,2 UV-I 373 W/m 13,8 C 16,7 C 14,5 km/h (3 Bft) 100,00 %
14.06.2016 10:26 17,0 C 83 % 1002,5 hPa 0,0 l/m 5,5 km/h (1 Bft) SW 221 0 min 0,000 mm 2,0 UV-I 328 W/m 14,1 C 17,0 C 12,9 km/h (3 Bft) 100,00 %
14.06.2016 10:27 17,0 C 80 % 1002,4 hPa 0,0 l/m 6,8 km/h (2 Bft) S-SO 161 0 min 0,000 mm 1,9 UV-I 301 W/m 13,5 C 16,8 C 11,3 km/h (2 Bft) 96,67 %
14.06.2016 10:28 16,9 C 81 % 1002,4 hPa 0,0 l/m 8,5 km/h (2 Bft) S 174 0 min 0,000 mm 1,8 UV-I 287 W/m 13,6 C 15,9 C 11,3 km/h (2 Bft) 100,00 %
14.06.2016 10:29 16,8 C 81 % 1002,4 hPa 0,0 l/m 9,3 km/h (2 Bft) S 175 0 min 0,000 mm 1,6 UV-I 269 W/m 13,5 C 15,4 C 12,9 km/h (3 Bft) 100,00 %
14.06.2016 10:30 16,8 C 81 % 1002,4 hPa 0,0 l/m 9,7 km/h (2 Bft) SW 229 0 min 0,000 mm 1,5 UV-I 254 W/m 13,5 C 15,2 C 14,5 km/h (3 Bft) 100,00 %
14.06.2016 10:31 16,7 C 82 % 1002,4 hPa 0,0 l/m 13,0 km/h (3 Bft) W-SW 250 0 min 0,000 mm 1,4 UV-I 237 W/m 13,6 C 13,9 C 16,1 km/h (3 Bft) 100,00 %
14.06.2016 10:32 16,7 C 81 % 1002,4 hPa 0,0 l/m 8,9 km/h (2 Bft) SW 220 0 min 0,000 mm 1,3 UV-I 223 W/m 13,4 C 15,5 C 14,5 km/h (3 Bft) 100,00 %
14.06.2016 10:33 16,6 C 82 % 1002,4 hPa 0,0 l/m 11,2 km/h (2 Bft) W-SW 242 0 min 0,000 mm 1,3 UV-I 204 W/m 13,5 C 14,4 C 16,1 km/h (3 Bft) 100,00 %
14.06.2016 10:34 16,5 C 80 % 1002,4 hPa 0,0 l/m 9,3 km/h (2 Bft) SW 225 0 min 0,000 mm 1,2 UV-I 190 W/m 13,0 C 15,1 C 12,9 km/h (3 Bft) 100,00 %
14.06.2016 10:35 16,5 C 80 % 1002,4 hPa 0,0 l/m 7,1 km/h (2 Bft) W 267 0 min 0,000 mm 1,1 UV-I 180 W/m 13,0 C 16,1 C 12,9 km/h (3 Bft) 100,00 %
14.06.2016 10:36 16,4 C 82 % 1002,4 hPa 0,0 l/m 9,4 km/h (2 Bft) SW 229 0 min 0,000 mm 1,1 UV-I 176 W/m 13,3 C 14,9 C 14,5 km/h (3 Bft) 100,00 %
14.06.2016 10:37 16,5 C 83 % 1002,4 hPa 0,0 l/m 7,4 km/h (2 Bft) SW 219 0 min 0,000 mm 1,1 UV-I 176 W/m 13,6 C 16,0 C 12,9 km/h (3 Bft) 100,00 %
14.06.2016 10:38 16,4 C 82 % 1002,4 hPa 0,0 l/m 8,6 km/h (2 Bft) W-SW 253 0 min 0,000 mm 1,0 UV-I 174 W/m 13,3 C 15,3 C 11,3 km/h (2 Bft) 100,00 %
14.06.2016 10:39 16,4 C 80 % 1002,4 hPa 0,0 l/m 8,9 km/h (2 Bft) W-SW 240 0 min 0,000 mm 1,0 UV-I 167 W/m 12,9 C 15,1 C 12,9 km/h (3 Bft) 100,00 %
14.06.2016 10:40 16,4 C 81 % 1002,4 hPa 0,0 l/m 7,6 km/h (2 Bft) W-SW 257 0 min 0,000 mm 0,9 UV-I 155 W/m 13,1 C 15,8 C 12,9 km/h (3 Bft) 100,00 %
14.06.2016 10:41 16,3 C 82 % 1002,4 hPa 0,0 l/m 8,9 km/h (2 Bft) W-SW 252 0 min 0,000 mm 0,9 UV-I 145 W/m 13,2 C 15,0 C 12,9 km/h (3 Bft) 100,00 %
14.06.2016 10:42 16,3 C 81 % 1002,4 hPa 0,0 l/m 10,2 km/h (2 Bft) W-SW 252 0 min 0,000 mm 0,8 UV-I 134 W/m 13,0 C 14,5 C 12,9 km/h (3 Bft) 100,00 %
14.06.2016 10:43 16,3 C 81 % 1002,5 hPa 0,0 l/m 8,3 km/h (2 Bft) W-NW 284 0 min 0,000 mm 0,7 UV-I 126 W/m 13,0 C 15,3 C 12,9 km/h (3 Bft) 100,00 %
14.06.2016 10:44 16,2 C 82 % 1002,4 hPa 0,0 l/m 7,2 km/h (2 Bft) W 281 0 min 0,000 mm 0,7 UV-I 119 W/m 13,1 C 15,8 C 11,3 km/h (2 Bft) 100,00 %
14.06.2016 10:45 16,2 C 82 % 1002,5 hPa 0,0 l/m 5,7 km/h (1 Bft) W 263 0 min 0,000 mm 0,7 UV-I 113 W/m 13,1 C 16,2 C 8,0 km/h (2 Bft) 100,00 %
14.06.2016 10:46 16,2 C 82 % 1002,5 hPa 0,0 l/m 7,6 km/h (2 Bft) W-SW 252 0 min 0,000 mm 0,6 UV-I 110 W/m 13,1 C 15,6 C 11,3 km/h (2 Bft) 95,83 %
14.06.2016 10:47 16,2 C 83 % 1002,5 hPa 0,0 l/m 6,4 km/h (2 Bft) W-SW 242 0 min 0,000 mm 0,6 UV-I 109 W/m 13,3 C 16,2 C 14,5 km/h (3 Bft) 100,00 %
14.06.2016 10:48 16,1 C 82 % 1002,5 hPa 0,0 l/m 8,4 km/h (2 Bft) W 265 0 min 0,000 mm 0,7 UV-I 111 W/m 13,0 C 15,1 C 12,9 km/h (3 Bft) 100,00 %
14.06.2016 10:49 16,1 C 82 % 1002,5 hPa 0,0 l/m 8,0 km/h (2 Bft) W-SW 242 0 min 0,000 mm 0,7 UV-I 120 W/m 13,0 C 15,3 C 12,9 km/h (3 Bft) 100,00 %
14.06.2016 10:50 16,1 C 82 % 1002,4 hPa 0,0 l/m 10,3 km/h (2 Bft) W-SW 238 0 min 0,000 mm 0,8 UV-I 131 W/m 13,0 C 14,2 C 14,5 km/h (3 Bft) 100,00 %
14.06.2016 10:51 16,1 C 82 % 1002,4 hPa 0,0 l/m 8,7 km/h (2 Bft) W 270 0 min 0,000 mm 0,9 UV-I 144 W/m 13,0 C 14,9 C 11,3 km/h (2 Bft) 100,00 %
14.06.2016 10:52 16,1 C 82 % 1002,4 hPa 0,0 l/m 6,1 km/h (2 Bft) W-SW 244 0 min 0,000 mm 1,0 UV-I 153 W/m 13,0 C 16,1 C 9,7 km/h (2 Bft) 100,00 %
14.06.2016 10:53 16,1 C 83 % 1002,4 hPa 0,0 l/m 3,4 km/h (1 Bft) W-SW 244 0 min 0,000 mm 0,7 UV-I 165 W/m 13,2 C 16,1 C 6,4 km/h (2 Bft) 100,00 %
14.06.2016 10:54 16,0 C 83 % 1002,4 hPa 0,0 l/m 7,2 km/h (2 Bft) W 265 0 min 0,000 mm 1,2 UV-I 183 W/m 13,1 C 15,6 C 11,3 km/h (2 Bft) 100,00 %
14.06.2016 10:55 16,1 C 82 % 1002,4 hPa 0,0 l/m 6,4 km/h (2 Bft) W 259 0 min 0,000 mm 1,3 UV-I 203 W/m 13,0 C 16,1 C 9,7 km/h (2 Bft) 100,00 %
14.06.2016 10:56 16,1 C 82 % 1002,4 hPa 0,0 l/m 6,2 km/h (2 Bft) W-SW 244 0 min 0,000 mm 1,4 UV-I 231 W/m 13,0 C 16,1 C 9,7 km/h (2 Bft) 100,00 %
14.06.2016 10:57 16,1 C 83 % 1002,4 hPa 0,0 l/m 4,0 km/h (1 Bft) W-SW 245 0 min 0,000 mm 1,7 UV-I 268 W/m 13,2 C 16,1 C 4,8 km/h (1 Bft) 100,00 %
14.06.2016 10:58 16,1 C 84 % 1002,5 hPa 0,0 l/m 7,2 km/h (2 Bft) S-SW 210 0 min 0,000 mm 1,9 UV-I 308 W/m 13,4 C 15,7 C 11,3 km/h (2 Bft) 100,00 %
14.06.2016 10:59 16,2 C 83 % 1002,4 hPa 0,0 l/m 8,6 km/h (2 Bft) SW 229 0 min 0,000 mm 2,2 UV-I 353 W/m 13,3 C 15,1 C 12,9 km/h (3 Bft) 100,00 %
14.06.2016 11:00 16,2 C 82 % 1002,4 hPa 0,0 l/m 6,1 km/h (2 Bft) SW 235 0 min 0,203 mm 2,5 UV-I 395 W/m 13,1 C 16,2 C 8,0 km/h (2 Bft) 100,00 %
14.06.2016 11:02 16,3 C 83 % 1002,4 hPa 0,0 l/m 7,2 km/h (2 Bft) W 261 0 min 0,000 mm 2,7 UV-I 430 W/m 13,4 C 15,9 C 14,5 km/h (3 Bft) 94,74 %
14.06.2016 11:03 16,4 C 82 % 1002,4 hPa 0,0 l/m 8,0 km/h (2 Bft) W-SW 237 0 min 0,000 mm 2,6 UV-I 412 W/m 13,3 C 15,6 C 16,1 km/h (3 Bft) 100,00 %
14.06.2016 11:04 16,5 C 82 % 1002,4 hPa 0,0 l/m 12,8 km/h (3 Bft) W-SW 255 0 min 0,000 mm 2,6 UV-I 414 W/m 13,4 C 13,7 C 16,1 km/h (3 Bft) 95,83 %
14.06.2016 11:05 16,6 C 80 % 1002,3 hPa 0,0 l/m 12,2 km/h (2 Bft) W-SW 254 0 min 0,000 mm 2,6 UV-I 413 W/m 13,1 C 14,0 C 19,3 km/h (3 Bft) 100,00 %
14.06.2016 11:06 16,6 C 80 % 1002,4 hPa 0,0 l/m 12,6 km/h (3 Bft) W-SW 254 0 min 0,000 mm 2,5 UV-I 392 W/m 13,1 C 13,9 C 14,5 km/h (3 Bft) 90,91 %
14.06.2016 11:07 16,6 C 81 % 1002,4 hPa 0,0 l/m 10,4 km/h (2 Bft) W 279 0 min 0,000 mm 2,5 UV-I 375 W/m 13,3 C 14,7 C 14,5 km/h (3 Bft) 96,30 %
14.06.2016 11:08 16,6 C 80 % 1002,4 hPa 0,0 l/m 7,2 km/h (2 Bft) W 268 0 min 0,000 mm 2,4 UV-I 367 W/m 13,1 C 16,2 C 11,3 km/h (2 Bft) 93,10 %
14.06.2016 11:09 16,6 C 79 % 1002,3 hPa 0,0 l/m 9,0 km/h (2 Bft) N-NW 328 0 min 0,000 mm 2,3 UV-I 363 W/m 12,9 C 15,3 C 12,9 km/h (3 Bft) 100,00 %
14.06.2016 11:10 16,6 C 79 % 1002,4 hPa 0,0 l/m 6,0 km/h (2 Bft) W-SW 249 0 min 0,000 mm 2,4 UV-I 365 W/m 12,9 C 16,6 C 9,7 km/h (2 Bft) 97,37 %
14.06.2016 11:11 16,7 C 83 % 1002,4 hPa 0,0 l/m 5,6 km/h (1 Bft) W-SW 258 0 min 0,000 mm 2,4 UV-I 369 W/m 13,8 C 16,7 C 8,0 km/h (2 Bft) 96,30 %
14.06.2016 11:12 16,7 C 81 % 1002,4 hPa 0,0 l/m 6,5 km/h (2 Bft) W-SW 253 0 min 0,000 mm 2,4 UV-I 371 W/m 13,4 C 16,7 C 11,3 km/h (2 Bft) 96,15 %
14.06.2016 11:13 16,8 C 81 % 1002,4 hPa 0,0 l/m 8,8 km/h (2 Bft) W-SW 254 0 min 0,000 mm 2,4 UV-I 373 W/m 13,5 C 15,6 C 12,9 km/h (3 Bft) 98,81 %
14.06.2016 11:14 16,8 C 78 % 1002,3 hPa 0,0 l/m 6,4 km/h (2 Bft) W-SW 258 0 min 0,000 mm 2,5 UV-I 383 W/m 12,9 C 16,8 C 9,7 km/h (2 Bft) 97,56 %
14.06.2016 11:15 16,8 C 79 % 1002,3 hPa 0,0 l/m 6,0 km/h (2 Bft) W 268 0 min 0,000 mm 2,6 UV-I 392 W/m 13,1 C 16,8 C 11,3 km/h (2 Bft) 100,00 %
14.06.2016 11:16 16,8 C 80 % 1002,3 hPa 0,0 l/m 8,3 km/h (2 Bft) SW 234 0 min 0,000 mm 2,6 UV-I 398 W/m 13,3 C 15,8 C 11,3 km/h (2 Bft) 95,65 %
14.06.2016 11:17 16,8 C 80 % 1002,3 hPa 0,0 l/m 10,4 km/h (2 Bft) W-SW 238 0 min 0,000 mm 2,5 UV-I 395 W/m 13,3 C 14,9 C 17,7 km/h (3 Bft) 100,00 %
14.06.2016 11:18 16,8 C 80 % 1002,3 hPa 0,0 l/m 12,7 km/h (3 Bft) W-SW 249 0 min 0,000 mm 2,6 UV-I 405 W/m 13,3 C 14,1 C 14,5 km/h (3 Bft) 91,30 %
14.06.2016 11:19 16,8 C 78 % 1002,3 hPa 0,0 l/m 6,7 km/h (2 Bft) S-SW 211 0 min 0,000 mm 2,9 UV-I 438 W/m 12,9 C 16,7 C 8,0 km/h (2 Bft) 100,00 %
14.06.2016 11:20 16,8 C 79 % 1002,3 hPa 0,0 l/m 5,3 km/h (1 Bft) W-NW 287 0 min 0,000 mm 2,7 UV-I 412 W/m 13,1 C 16,8 C 6,4 km/h (2 Bft) 96,15 %
14.06.2016 11:21 16,9 C 80 % 1002,2 hPa 0,0 l/m 3,4 km/h (1 Bft) W 280 0 min 0,000 mm 2,6 UV-I 396 W/m 13,4 C 16,9 C 6,4 km/h (2 Bft) 95,83 %
14.06.2016 11:22 16,9 C 80 % 1002,2 hPa 0,0 l/m 3,8 km/h (1 Bft) W 259 0 min 0,000 mm 2,6 UV-I 376 W/m 13,4 C 16,9 C 4,8 km/h (1 Bft) 98,78 %
14.06.2016 11:23 16,9 C 79 % 1002,2 hPa 0,0 l/m 7,4 km/h (2 Bft) W 271 0 min 0,000 mm 2,4 UV-I 367 W/m 13,2 C 16,4 C 12,9 km/h (3 Bft) 97,56 %
14.06.2016 11:24 16,9 C 80 % 1002,3 hPa 0,0 l/m 7,8 km/h (2 Bft) W-SW 252 0 min 0,000 mm 2,3 UV-I 348 W/m 13,4 C 16,2 C 11,3 km/h (2 Bft) 100,00 %
14.06.2016 11:25 16,9 C 79 % 1002,2 hPa 0,0 l/m 6,6 km/h (2 Bft) SW 229 0 min 0,000 mm 2,3 UV-I 338 W/m 13,2 C 16,8 C 9,7 km/h (2 Bft) 94,44 %
14.06.2016 11:26 17,0 C 79 % 1002,2 hPa 0,0 l/m 4,5 km/h (1 Bft) S-SO 149 0 min 0,000 mm 2,3 UV-I 337 W/m 13,3 C 17,0 C 8,0 km/h (2 Bft) 100,00 %
14.06.2016 11:27 17,0 C 79 % 1002,1 hPa 0,0 l/m 6,1 km/h (2 Bft) S 189 0 min 0,000 mm 2,3 UV-I 337 W/m 13,3 C 17,0 C 11,3 km/h (2 Bft) 95,65 %
14.06.2016 11:28 16,9 C 79 % 1002,1 hPa 0,0 l/m 3,4 km/h (1 Bft) W-SW 255 0 min 0,000 mm 2,4 UV-I 339 W/m 13,2 C 16,9 C 4,8 km/h (1 Bft) 100,00 %
14.06.2016 11:29 16,9 C 79 % 1002,1 hPa 0,0 l/m 1,4 km/h (1 Bft) W-SW 255 0 min 0,000 mm 2,4 UV-I 345 W/m 13,2 C 16,9 C 3,2 km/h (1 Bft) 91,67 %
14.06.2016 11:30 16,9 C 79 % 1002,1 hPa 0,0 l/m 5,2 km/h (1 Bft) W 268 0 min 0,000 mm 2,4 UV-I 352 W/m 13,2 C 16,9 C 11,3 km/h (2 Bft) 95,83 %
14.06.2016 11:31 16,9 C 79 % 1002,1 hPa 0,0 l/m 7,3 km/h (2 Bft) W 259 0 min 0,000 mm 2,5 UV-I 355 W/m 13,2 C 16,4 C 11,3 km/h (2 Bft) 100,00 %
14.06.2016 11:32 16,9 C 78 % 1002,2 hPa 0,0 l/m 6,7 km/h (2 Bft) W 259 0 min 0,000 mm 2,5 UV-I 370 W/m 13,0 C 16,8 C 9,7 km/h (2 Bft) 100,00 %
14.06.2016 11:33 16,8 C 78 % 1002,2 hPa 0,0 l/m 4,7 km/h (1 Bft) SW 234 0 min 0,000 mm 2,7 UV-I 386 W/m 12,9 C 16,8 C 8,0 km/h (2 Bft) 96,55 %
14.06.2016 11:34 16,8 C 79 % 1002,1 hPa 0,0 l/m 6,8 km/h (2 Bft) SW 224 0 min 0,000 mm 2,7 UV-I 402 W/m 13,1 C 16,6 C 9,7 km/h (2 Bft) 92,59 %
14.06.2016 11:35 16,9 C 80 % 1002,2 hPa 0,0 l/m 6,4 km/h (2 Bft) W-SW 258 0 min 0,000 mm 2,8 UV-I 424 W/m 13,4 C 16,9 C 11,3 km/h (2 Bft) 100,00 %
14.06.2016 11:36 16,9 C 79 % 1002,1 hPa 0,0 l/m 8,3 km/h (2 Bft) W-SW 255 0 min 0,000 mm 2,9 UV-I 426 W/m 13,2 C 16,0 C 12,9 km/h (3 Bft) 100,00 %
14.06.2016 11:37 17,0 C 80 % 1002,1 hPa 0,0 l/m 10,2 km/h (2 Bft) SW 232 0 min 0,000 mm 2,9 UV-I 432 W/m 13,5 C 15,2 C 14,5 km/h (3 Bft) 100,00 %
14.06.2016 11:38 17,0 C 80 % 1002,1 hPa 0,0 l/m 8,0 km/h (2 Bft) W-SW 249 0 min 0,000 mm 2,9 UV-I 435 W/m 13,5 C 16,2 C 9,7 km/h (2 Bft) 91,67 %
14.06.2016 11:39 17,1 C 79 % 1002,1 hPa 0,0 l/m 5,4 km/h (1 Bft) S-SW 211 0 min 0,000 mm 2,9 UV-I 437 W/m 13,4 C 17,1 C 9,7 km/h (2 Bft) 100,00 %
14.06.2016 11:40 17,1 C 79 % 1002,1 hPa 0,0 l/m 7,5 km/h (2 Bft) SW 219 0 min 0,000 mm 2,8 UV-I 424 W/m 13,4 C 16,5 C 11,3 km/h (2 Bft) 100,00 %
14.06.2016 11:41 17,1 C 79 % 1002,1 hPa 0,0 l/m 10,9 km/h (2 Bft) W 268 0 min 0,000 mm 2,8 UV-I 418 W/m 13,4 C 15,1 C 17,7 km/h (3 Bft) 100,00 %
14.06.2016 11:42 17,1 C 79 % 1002,1 hPa 0,0 l/m 11,1 km/h (2 Bft) W 262 0 min 0,000 mm 2,8 UV-I 410 W/m 13,4 C 15,0 C 14,5 km/h (3 Bft) 100,00 %
14.06.2016 11:43 17,1 C 80 % 1002,1 hPa 0,0 l/m 8,4 km/h (2 Bft) W 259 0 min 0,000 mm 2,8 UV-I 404 W/m 13,6 C 16,1 C 11,3 km/h (2 Bft) 96,55 %
14.06.2016 11:44 17,2 C 78 % 1002,1 hPa 0,0 l/m 8,6 km/h (2 Bft) SW 233 0 min 0,000 mm 2,7 UV-I 400 W/m 13,3 C 16,1 C 12,9 km/h (3 Bft) 95,83 %
14.06.2016 11:45 17,1 C 79 % 1002,1 hPa 0,0 l/m 6,6 km/h (2 Bft) W 259 0 min 0,000 mm 2,8 UV-I 399 W/m 13,4 C 17,0 C 9,7 km/h (2 Bft) 100,00 %
14.06.2016 11:46 17,1 C 79 % 1002,1 hPa 0,0 l/m 10,0 km/h (2 Bft) S 188 0 min 0,000 mm 2,8 UV-I 399 W/m 13,4 C 15,4 C 14,5 km/h (3 Bft) 92,59 %
14.06.2016 11:47 17,1 C 78 % 1002,1 hPa 0,0 l/m 7,8 km/h (2 Bft) W 271 0 min 0,000 mm 2,8 UV-I 397 W/m 13,2 C 16,4 C 11,3 km/h (2 Bft) 100,00 %
14.06.2016 11:48 17,1 C 79 % 1002,0 hPa 0,0 l/m 8,4 km/h (2 Bft) S-SW 192 0 min 0,000 mm 2,9 UV-I 400 W/m 13,4 C 16,1 C 11,3 km/h (2 Bft) 100,00 %
14.06.2016 11:49 17,1 C 79 % 1002,0 hPa 0,0 l/m 5,1 km/h (1 Bft) SW 231 0 min 0,000 mm 2,9 UV-I 395 W/m 13,4 C 17,1 C 8,0 km/h (2 Bft) 100,00 %
14.06.2016 11:50 17,1 C 78 % 1002,0 hPa 0,0 l/m 7,1 km/h (2 Bft) SW 219 0 min 0,000 mm 2,8 UV-I 386 W/m 13,2 C 16,7 C 11,3 km/h (2 Bft) 100,00 %
14.06.2016 11:51 17,1 C 77 % 1002,1 hPa 0,0 l/m 10,3 km/h (2 Bft) SW 229 0 min 0,000 mm 2,8 UV-I 379 W/m 13,0 C 15,3 C 16,1 km/h (3 Bft) 100,00 %
14.06.2016 11:52 17,1 C 77 % 1002,1 hPa 0,0 l/m 7,2 km/h (2 Bft) SW 234 0 min 0,000 mm 2,8 UV-I 378 W/m 13,0 C 16,7 C 11,3 km/h (2 Bft) 100,00 %
14.06.2016 11:53 17,1 C 78 % 1002,1 hPa 0,0 l/m 6,0 km/h (2 Bft) W-NW 292 0 min 0,000 mm 2,9 UV-I 385 W/m 13,2 C 17,1 C 8,0 km/h (2 Bft) 100,00 %
14.06.2016 11:54 17,1 C 79 % 1002,1 hPa 0,0 l/m 7,0 km/h (2 Bft) W 259 0 min 0,000 mm 3,0 UV-I 400 W/m 13,4 C 16,8 C 12,9 km/h (3 Bft) 92,86 %
14.06.2016 11:55 17,1 C 78 % 1002,1 hPa 0,0 l/m 4,8 km/h (1 Bft) W-NW 283 0 min 0,000 mm 3,1 UV-I 424 W/m 13,2 C 17,1 C 6,4 km/h (2 Bft) 100,00 %
14.06.2016 11:56 17,1 C 76 % 1002,1 hPa 0,0 l/m 5,3 km/h (1 Bft) W 271 0 min 0,000 mm 3,3 UV-I 466 W/m 12,8 C 17,1 C 8,0 km/h (2 Bft) 100,00 %
14.06.2016 11:57 17,2 C 77 % 1002,1 hPa 0,0 l/m 6,8 km/h (2 Bft) SW 231 1 min 0,000 mm 3,6 UV-I 525 W/m 13,1 C 17,0 C 11,3 km/h (2 Bft) 100,00 %
14.06.2016 11:58 17,2 C 77 % 1002,1 hPa 0,0 l/m 11,7 km/h (2 Bft) W 263 1 min 0,000 mm 3,6 UV-I 526 W/m 13,1 C 14,9 C 16,1 km/h (3 Bft) 100,00 %
14.06.2016 11:59 17,2 C 77 % 1002,1 hPa 0,0 l/m 9,9 km/h (2 Bft) W-SW 242 1 min 0,000 mm 3,5 UV-I 497 W/m 13,1 C 15,6 C 12,9 km/h (3 Bft) 100,00 %
14.06.2016 12:00 17,3 C 79 % 1002,1 hPa 0,0 l/m 8,0 km/h (2 Bft) S 185 0 min 0,000 mm 3,4 UV-I 455 W/m 13,6 C 16,5 C 9,7 km/h (2 Bft) 100,00 %
14.06.2016 12:01 17,3 C 77 % 1002,1 hPa 0,0 l/m 9,6 km/h (2 Bft) W-SW 250 0 min 0,229 mm 3,4 UV-I 439 W/m 13,2 C 15,8 C 12,9 km/h (3 Bft) 100,00 %
14.06.2016 12:02 17,3 C 77 % 1002,1 hPa 0,0 l/m 8,3 km/h (2 Bft) S 188 0 min 0,000 mm 3,5 UV-I 464 W/m 13,2 C 16,4 C 11,3 km/h (2 Bft) 100,00 %
14.06.2016 12:03 17,3 C 76 % 1002,1 hPa 0,0 l/m 8,6 km/h (2 Bft) S 188 1 min 0,000 mm 3,7 UV-I 514 W/m 13,0 C 16,2 C 11,3 km/h (2 Bft) 100,00 %
14.06.2016 12:04 17,3 C 77 % 1002,1 hPa 0,0 l/m 7,6 km/h (2 Bft) W-SW 242 0 min 0,000 mm 3,5 UV-I 468 W/m 13,2 C 16,7 C 11,3 km/h (2 Bft) 100,00 %
14.06.2016 12:05 17,3 C 76 % 1002,0 hPa 0,0 l/m 5,1 km/h (1 Bft) W 270 1 min 0,000 mm 3,7 UV-I 515 W/m 13,0 C 17,3 C 9,7 km/h (2 Bft) 100,00 %
14.06.2016 12:06 17,3 C 77 % 1002,0 hPa 0,0 l/m 8,3 km/h (2 Bft) W 259 1 min 0,000 mm 4,1 UV-I 551 W/m 13,2 C 16,4 C 14,5 km/h (3 Bft) 100,00 %
14.06.2016 12:07 17,3 C 75 % 1002,0 hPa 0,0 l/m 9,0 km/h (2 Bft) W-NW 284 1 min 0,000 mm 4,3 UV-I 581 W/m 12,8 C 16,1 C 14,5 km/h (3 Bft) 100,00 %
14.06.2016 12:08 17,4 C 75 % 1002,0 hPa 0,0 l/m 6,2 km/h (2 Bft) W 263 1 min 0,000 mm 4,2 UV-I 596 W/m 12,9 C 17,4 C 9,7 km/h (2 Bft) 100,00 %
14.06.2016 12:09 17,5 C 76 % 1002,0 hPa 0,0 l/m 7,3 km/h (2 Bft) W 276 1 min 0,000 mm 4,8 UV-I 619 W/m 13,2 C 17,1 C 11,3 km/h (2 Bft) 96,88 %
14.06.2016 12:10 17,6 C 76 % 1002,0 hPa 0,0 l/m 6,1 km/h (2 Bft) W 277 1 min 0,000 mm 5,4 UV-I 642 W/m 13,3 C 17,6 C 9,7 km/h (2 Bft) 100,00 %
14.06.2016 12:11 17,7 C 75 % 1002,0 hPa 0,0 l/m 7,2 km/h (2 Bft) W 268 1 min 0,000 mm 5,4 UV-I 844 W/m 13,2 C 17,3 C 9,7 km/h (2 Bft) 100,00 %
14.06.2016 12:12 17,7 C 75 % 1002,0 hPa 0,0 l/m 4,3 km/h (1 Bft) W-NW 295 1 min 0,000 mm 5,5 UV-I 872 W/m 13,2 C 17,7 C 6,4 km/h (2 Bft) 100,00 %
14.06.2016 12:13 17,9 C 77 % 1001,9 hPa 0,0 l/m 2,8 km/h (1 Bft) W-NW 288 1 min 0,000 mm 5,8 UV-I 915 W/m 13,8 C 17,9 C 9,7 km/h (2 Bft) 100,00 %
14.06.2016 12:14 18,1 C 76 % 1001,9 hPa 0,0 l/m 5,3 km/h (1 Bft) W 261 1 min 0,000 mm 5,6 UV-I 883 W/m 13,8 C 18,1 C 11,3 km/h (2 Bft) 100,00 %
14.06.2016 12:15 18,2 C 75 % 1001,9 hPa 0,0 l/m 6,8 km/h (2 Bft) W-SW 238 1 min 0,000 mm 4,9 UV-I 865 W/m 13,7 C 18,0 C 9,7 km/h (2 Bft) 100,00 %
14.06.2016 12:16 18,2 C 74 % 1001,9 hPa 0,0 l/m 7,9 km/h (2 Bft) W-SW 242 1 min 0,000 mm 4,4 UV-I 648 W/m 13,5 C 17,5 C 11,3 km/h (2 Bft) 100,00 %
14.06.2016 12:17 18,2 C 76 % 1001,9 hPa 0,0 l/m 4,0 km/h (1 Bft) W-SW 249 1 min 0,000 mm 4,1 UV-I 559 W/m 13,9 C 18,2 C 8,0 km/h (2 Bft) 100,00 %
14.06.2016 12:18 18,1 C 73 % 1001,9 hPa 0,0 l/m 6,5 km/h (2 Bft) W-SW 240 1 min 0,000 mm 3,9 UV-I 536 W/m 13,2 C 18,1 C 9,7 km/h (2 Bft) 100,00 %
14.06.2016 12:19 18,0 C 73 % 1001,8 hPa 0,0 l/m 2,3 km/h (1 Bft) W 275 1 min 0,000 mm 3,8 UV-I 492 W/m 13,1 C 18,0 C 4,8 km/h (1 Bft) 100,00 %
14.06.2016 12:20 17,9 C 75 % 1001,9 hPa 0,0 l/m 5,2 km/h (1 Bft) N-NW 333 0 min 0,000 mm 3,5 UV-I 459 W/m 13,4 C 17,9 C 9,7 km/h (2 Bft) 100,00 %
14.06.2016 12:21 17,9 C 74 % 1001,8 hPa 0,0 l/m 3,4 km/h (1 Bft) NW 306 0 min 0,000 mm 3,5 UV-I 452 W/m 13,2 C 17,9 C 4,8 km/h (1 Bft) 96,15 %
14.06.2016 12:22 17,9 C 73 % 1001,8 hPa 0,0 l/m 2,1 km/h (1 Bft) NW 307 1 min 0,000 mm 4,0 UV-I 533 W/m 13,0 C 17,9 C 3,2 km/h (1 Bft) 100,00 %
14.06.2016 12:23 17,8 C 74 % 1001,8 hPa 0,0 l/m 4,6 km/h (1 Bft) S 185 1 min 0,000 mm 3,1 UV-I 493 W/m 13,1 C 17,8 C 6,4 km/h (2 Bft) 100,00 %
14.06.2016 12:24 17,8 C 74 % 1001,8 hPa 0,0 l/m 4,4 km/h (1 Bft) S 177 0 min 0,000 mm 3,0 UV-I 398 W/m 13,1 C 17,8 C 8,0 km/h (2 Bft) 100,00 %
14.06.2016 12:25 17,8 C 76 % 1001,8 hPa 0,0 l/m 6,9 km/h (2 Bft) SW 221 0 min 0,000 mm 3,0 UV-I 375 W/m 13,5 C 17,6 C 9,7 km/h (2 Bft) 100,00 %
14.06.2016 12:26 17,8 C 74 % 1001,8 hPa 0,0 l/m 5,6 km/h (1 Bft) S-SW 199 0 min 0,000 mm 2,5 UV-I 315 W/m 13,1 C 17,8 C 8,0 km/h (2 Bft) 100,00 %
14.06.2016 12:27 17,8 C 76 % 1001,8 hPa 0,0 l/m 6,4 km/h (2 Bft) SW 232 0 min 0,000 mm 2,3 UV-I 295 W/m 13,5 C 17,8 C 8,0 km/h (2 Bft) 100,00 %
14.06.2016 12:28 17,8 C 74 % 1001,8 hPa 0,0 l/m 2,7 km/h (1 Bft) S-SW 212 0 min 0,000 mm 2,2 UV-I 277 W/m 13,1 C 17,8 C 6,4 km/h (2 Bft) 95,65 %
14.06.2016 12:29 17,7 C 73 % 1001,8 hPa 0,0 l/m 4,2 km/h (1 Bft) S 186 0 min 0,000 mm 2,2 UV-I 272 W/m 12,8 C 17,7 C 4,8 km/h (1 Bft) 100,00 %
14.06.2016 12:30 17,7 C 73 % 1001,8 hPa 0,0 l/m 2,4 km/h (1 Bft) S-SW 205 0 min 0,000 mm 2,2 UV-I 280 W/m 12,8 C 17,7 C 4,8 km/h (1 Bft) 95,65 %
14.06.2016 12:31 17,7 C 74 % 1001,8 hPa 0,0 l/m 3,0 km/h (1 Bft) S 188 0 min 0,000 mm 2,3 UV-I 288 W/m 13,0 C 17,7 C 6,4 km/h (2 Bft) 96,30 %
14.06.2016 12:32 17,6 C 73 % 1001,8 hPa 0,0 l/m 5,8 km/h (2 Bft) W-SW 246 0 min 0,000 mm 2,2 UV-I 278 W/m 12,7 C 17,6 C 8,0 km/h (2 Bft) 100,00 %
14.06.2016 12:33 17,6 C 73 % 1001,7 hPa 0,0 l/m 4,6 km/h (1 Bft) W 262 0 min 0,000 mm 2,0 UV-I 260 W/m 12,7 C 17,6 C 6,4 km/h (2 Bft) 100,00 %
14.06.2016 12:34 17,6 C 75 % 1001,7 hPa 0,0 l/m 3,8 km/h (1 Bft) W-SW 242 0 min 0,000 mm 1,8 UV-I 249 W/m 13,1 C 17,6 C 6,4 km/h (2 Bft) 100,00 %
14.06.2016 12:35 17,6 C 75 % 1001,7 hPa 0,0 l/m 4,4 km/h (1 Bft) S-SW 208 0 min 0,000 mm 1,8 UV-I 242 W/m 13,1 C 17,6 C 8,0 km/h (2 Bft) 95,83 %
14.06.2016 12:36 17,6 C 75 % 1001,7 hPa 0,0 l/m 5,5 km/h (1 Bft) SW 225 0 min 0,000 mm 1,7 UV-I 240 W/m 13,1 C 17,6 C 8,0 km/h (2 Bft) 96,15 %
14.06.2016 12:37 17,6 C 74 % 1001,7 hPa 0,0 l/m 6,3 km/h (2 Bft) W-SW 254 0 min 0,000 mm 1,8 UV-I 244 W/m 12,9 C 17,6 C 9,7 km/h (2 Bft) 100,00 %
14.06.2016 12:38 17,6 C 75 % 1001,7 hPa 0,0 l/m 8,3 km/h (2 Bft) S 191 0 min 0,000 mm 2,0 UV-I 257 W/m 13,1 C 16,7 C 11,3 km/h (2 Bft) 100,00 %
14.06.2016 12:39 17,6 C 75 % 1001,7 hPa 0,0 l/m 6,3 km/h (2 Bft) SW 231 0 min 0,000 mm 2,1 UV-I 258 W/m 13,1 C 17,6 C 8,0 km/h (2 Bft) 100,00 %
14.06.2016 12:40 17,6 C 75 % 1001,7 hPa 0,0 l/m 5,7 km/h (1 Bft) SW 228 0 min 0,000 mm 2,2 UV-I 280 W/m 13,1 C 17,6 C 8,0 km/h (2 Bft) 100,00 %
14.06.2016 12:41 17,6 C 75 % 1001,7 hPa 0,0 l/m 8,2 km/h (2 Bft) W-SW 252 0 min 0,000 mm 2,7 UV-I 343 W/m 13,1 C 16,7 C 9,7 km/h (2 Bft) 100,00 %
14.06.2016 12:42 17,6 C 74 % 1001,6 hPa 0,0 l/m 6,4 km/h (2 Bft) W-SW 242 0 min 0,000 mm 3,1 UV-I 390 W/m 12,9 C 17,6 C 11,3 km/h (2 Bft) 100,00 %
14.06.2016 12:43 17,6 C 74 % 1001,6 hPa 0,0 l/m 4,9 km/h (1 Bft) W-SW 248 0 min 0,000 mm 3,5 UV-I 459 W/m 12,9 C 17,6 C 8,0 km/h (2 Bft) 100,00 %
14.06.2016 12:44 17,7 C 75 % 1001,6 hPa 0,0 l/m 5,5 km/h (1 Bft) W-SW 243 1 min 0,000 mm 4,0 UV-I 552 W/m 13,2 C 17,7 C 8,0 km/h (2 Bft) 100,00 %
14.06.2016 12:45 17,7 C 77 % 1001,6 hPa 0,0 l/m 6,4 km/h (2 Bft) SW 234 1 min 0,000 mm 4,1 UV-I 564 W/m 13,6 C 17,7 C 9,7 km/h (2 Bft) 100,00 %
14.06.2016 12:46 17,8 C 73 % 1001,5 hPa 0,0 l/m 3,5 km/h (1 Bft) S 190 1 min 0,000 mm 4,1 UV-I 509 W/m 12,9 C 17,8 C 8,0 km/h (2 Bft) 100,00 %
14.06.2016 12:47 17,7 C 73 % 1001,6 hPa 0,0 l/m 8,1 km/h (2 Bft) SW 214 1 min 0,000 mm 4,5 UV-I 582 W/m 12,8 C 16,9 C 9,7 km/h (2 Bft) 100,00 %
14.06.2016 12:48 17,8 C 75 % 1001,5 hPa 0,0 l/m 4,1 km/h (1 Bft) SW 214 1 min 0,000 mm 5,0 UV-I 681 W/m 13,3 C 17,8 C 4,8 km/h (1 Bft) 100,00 %
14.06.2016 12:49 17,8 C 76 % 1001,5 hPa 0,0 l/m 2,2 km/h (1 Bft) S-SW 211 1 min 0,000 mm 5,3 UV-I 731 W/m 13,5 C 17,8 C 3,2 km/h (1 Bft) 92,86 %
14.06.2016 12:50 17,8 C 73 % 1001,5 hPa 0,0 l/m 2,2 km/h (1 Bft) S-SO 166 1 min 0,000 mm 5,4 UV-I 729 W/m 12,9 C 17,8 C 6,4 km/h (2 Bft) 100,00 %
14.06.2016 12:51 17,8 C 73 % 1001,5 hPa 0,0 l/m 1,5 km/h (1 Bft) S-SO 166 1 min 0,000 mm 5,6 UV-I 789 W/m 12,9 C 17,8 C 4,8 km/h (1 Bft) 96,15 %
14.06.2016 12:52 17,9 C 75 % 1001,5 hPa 0,0 l/m 2,3 km/h (1 Bft) S 172 1 min 0,000 mm 5,6 UV-I 803 W/m 13,4 C 17,9 C 4,8 km/h (1 Bft) 100,00 %
14.06.2016 12:53 18,0 C 76 % 1001,5 hPa 0,0 l/m 5,5 km/h (1 Bft) W-NW 284 1 min 0,000 mm 5,8 UV-I 844 W/m 13,7 C 18,0 C 9,7 km/h (2 Bft) 100,00 %
14.06.2016 12:54 18,1 C 74 % 1001,5 hPa 0,0 l/m 5,1 km/h (1 Bft) W 279 1 min 0,000 mm 5,3 UV-I 830 W/m 13,4 C 18,1 C 9,7 km/h (2 Bft) 100,00 %
14.06.2016 12:55 18,2 C 74 % 1001,5 hPa 0,0 l/m 3,8 km/h (1 Bft) W-NW 284 1 min 0,000 mm 4,8 UV-I 703 W/m 13,5 C 18,2 C 6,4 km/h (2 Bft) 100,00 %
14.06.2016 12:56 18,2 C 71 % 1001,5 hPa 0,0 l/m 0,7 km/h (0 Bft) W-NW 284 1 min 0,000 mm 4,2 UV-I 649 W/m 12,9 C 18,2 C 1,6 km/h (1 Bft) 100,00 %
14.06.2016 12:57 18,0 C 71 % 1001,4 hPa 0,0 l/m 1,0 km/h (0 Bft) W-NW 286 0 min 0,000 mm 4,0 UV-I 475 W/m 12,7 C 18,0 C 3,2 km/h (1 Bft) 100,00 %
14.06.2016 12:58 17,9 C 72 % 1001,5 hPa 0,0 l/m 3,6 km/h (1 Bft) NW 307 0 min 0,000 mm 3,8 UV-I 427 W/m 12,8 C 17,9 C 4,8 km/h (1 Bft) 100,00 %
14.06.2016 12:59 18,0 C 75 % 1001,5 hPa 0,0 l/m 1,0 km/h (0 Bft) NW 307 0 min 0,000 mm 3,5 UV-I 393 W/m 13,5 C 18,0 C 1,6 km/h (1 Bft) 98,81 %
14.06.2016 13:00 18,1 C 73 % 1001,4 hPa 0,0 l/m 4,0 km/h (1 Bft) W 277 0 min 0,305 mm 3,7 UV-I 420 W/m 13,2 C 18,1 C 6,4 km/h (2 Bft) 97,56 %
14.06.2016 13:01 18,1 C 71 % 1001,4 hPa 0,0 l/m 2,9 km/h (1 Bft) W 280 0 min 0,000 mm 3,9 UV-I 471 W/m 12,8 C 18,1 C 4,8 km/h (1 Bft) 100,00 %
14.06.2016 13:02 18,1 C 71 % 1001,4 hPa 0,0 l/m 4,0 km/h (1 Bft) NW 313 1 min 0,000 mm 4,1 UV-I 526 W/m 12,8 C 18,1 C 6,4 km/h (2 Bft) 95,83 %
14.06.2016 13:03 18,1 C 72 % 1001,4 hPa 0,0 l/m 2,5 km/h (1 Bft) NW 313 1 min 0,000 mm 4,1 UV-I 539 W/m 13,0 C 18,1 C 3,2 km/h (1 Bft) 95,65 %
14.06.2016 13:04 18,1 C 74 % 1001,4 hPa 0,0 l/m 1,2 km/h (1 Bft) W-NW 290 1 min 0,000 mm 3,8 UV-I 506 W/m 13,4 C 18,1 C 3,2 km/h (1 Bft) 95,83 %
14.06.2016 13:05 18,2 C 75 % 1001,4 hPa 0,0 l/m 5,4 km/h (1 Bft) W-NW 290 1 min 0,000 mm 4,5 UV-I 588 W/m 13,7 C 18,2 C 9,7 km/h (2 Bft) 96,15 %
14.06.2016 13:06 18,3 C 73 % 1001,4 hPa 0,0 l/m 4,6 km/h (1 Bft) NW 305 1 min 0,000 mm 4,1 UV-I 619 W/m 13,4 C 18,3 C 6,4 km/h (2 Bft) 100,00 %
14.06.2016 13:07 18,2 C 71 % 1001,3 hPa 0,0 l/m 1,2 km/h (1 Bft) NW 306 1 min 0,000 mm 3,9 UV-I 561 W/m 12,9 C 18,2 C 3,2 km/h (1 Bft) 100,00 %
14.06.2016 13:08 18,2 C 73 % 1001,3 hPa 0,0 l/m 1,9 km/h (1 Bft) NW 304 0 min 0,000 mm 3,6 UV-I 468 W/m 13,3 C 18,2 C 3,2 km/h (1 Bft) 96,15 %
14.06.2016 13:09 18,2 C 72 % 1001,3 hPa 0,0 l/m 2,5 km/h (1 Bft) W-NW 302 0 min 0,000 mm 3,4 UV-I 432 W/m 13,1 C 18,2 C 4,8 km/h (1 Bft) 96,67 %
14.06.2016 13:10 18,2 C 72 % 1001,3 hPa 0,0 l/m 2,4 km/h (1 Bft) S 191 0 min 0,000 mm 3,4 UV-I 426 W/m 13,1 C 18,2 C 4,8 km/h (1 Bft) 90,91 %
14.06.2016 13:11 18,3 C 73 % 1001,3 hPa 0,0 l/m 3,1 km/h (1 Bft) S-SW 192 0 min 0,000 mm 3,5 UV-I 445 W/m 13,4 C 18,3 C 4,8 km/h (1 Bft) 96,97 %
14.06.2016 13:12 18,3 C 75 % 1001,3 hPa 0,0 l/m 3,9 km/h (1 Bft) W 273 0 min 0,000 mm 3,6 UV-I 466 W/m 13,8 C 18,3 C 4,8 km/h (1 Bft) 86,96 %
14.06.2016 13:13 18,4 C 72 % 1001,3 hPa 0,0 l/m 4,4 km/h (1 Bft) W 279 0 min 0,000 mm 3,5 UV-I 446 W/m 13,3 C 18,4 C 4,8 km/h (1 Bft) 95,83 %
14.06.2016 13:14 18,4 C 72 % 1001,3 hPa 0,0 l/m 3,7 km/h (1 Bft) W 262 0 min 0,000 mm 3,4 UV-I 414 W/m 13,3 C 18,4 C 6,4 km/h (2 Bft) 95,65 %
14.06.2016 13:15 18,4 C 71 % 1001,3 hPa 0,0 l/m 3,3 km/h (1 Bft) W-SW 243 0 min 0,000 mm 3,2 UV-I 397 W/m 13,0 C 18,4 C 4,8 km/h (1 Bft) 100,00 %
14.06.2016 13:16 18,4 C 71 % 1001,3 hPa 0,0 l/m 2,4 km/h (1 Bft) W 279 0 min 0,000 mm 3,2 UV-I 384 W/m 13,0 C 18,4 C 3,2 km/h (1 Bft) 96,15 %
14.06.2016 13:17 18,4 C 72 % 1001,3 hPa 0,0 l/m 6,9 km/h (2 Bft) W 263 0 min 0,000 mm 3,2 UV-I 379 W/m 13,3 C 18,2 C 11,3 km/h (2 Bft) 98,73 %
14.06.2016 13:18 18,4 C 70 % 1001,3 hPa 0,0 l/m 5,2 km/h (1 Bft) W-NW 293 0 min 0,000 mm 3,3 UV-I 388 W/m 12,8 C 18,4 C 9,7 km/h (2 Bft) 97,37 %
14.06.2016 13:19 18,3 C 70 % 1001,3 hPa 0,0 l/m 5,6 km/h (1 Bft) W-NW 290 0 min 0,000 mm 3,1 UV-I 380 W/m 12,7 C 18,3 C 8,0 km/h (2 Bft) 100,00 %
14.06.2016 13:20 18,3 C 71 % 1001,3 hPa 0,0 l/m 4,2 km/h (1 Bft) W-NW 301 0 min 0,000 mm 3,1 UV-I 374 W/m 12,9 C 18,3 C 4,8 km/h (1 Bft) 92,31 %
14.06.2016 13:21 18,3 C 73 % 1001,2 hPa 0,0 l/m 2,8 km/h (1 Bft) W-NW 298 0 min 0,000 mm 3,0 UV-I 359 W/m 13,4 C 18,3 C 6,4 km/h (2 Bft) 96,30 %
14.06.2016 13:22 18,3 C 72 % 1001,2 hPa 0,0 l/m 3,1 km/h (1 Bft) W-SW 240 0 min 0,000 mm 2,8 UV-I 344 W/m 13,2 C 18,3 C 6,4 km/h (2 Bft) 100,00 %
14.06.2016 13:23 18,3 C 73 % 1001,2 hPa 0,0 l/m 5,6 km/h (1 Bft) S-SW 203 0 min 0,000 mm 2,7 UV-I 339 W/m 13,4 C 18,3 C 8,0 km/h (2 Bft) 100,00 %
14.06.2016 13:24 18,3 C 73 % 1001,2 hPa 0,0 l/m 3,9 km/h (1 Bft) S-SW 202 0 min 0,000 mm 2,8 UV-I 346 W/m 13,4 C 18,3 C 4,8 km/h (1 Bft) 92,59 %
14.06.2016 13:25 18,4 C 75 % 1001,2 hPa 0,0 l/m 2,8 km/h (1 Bft) W 273 0 min 0,000 mm 2,9 UV-I 360 W/m 13,9 C 18,4 C 4,8 km/h (1 Bft) 96,55 %
14.06.2016 13:26 18,4 C 73 % 1001,2 hPa 0,0 l/m 2,7 km/h (1 Bft) W-SW 257 0 min 0,000 mm 3,1 UV-I 381 W/m 13,5 C 18,4 C 6,4 km/h (2 Bft) 100,00 %
14.06.2016 13:27 18,4 C 72 % 1001,2 hPa 0,0 l/m 5,1 km/h (1 Bft) W-SW 245 0 min 0,000 mm 4,2 UV-I 427 W/m 13,3 C 18,4 C 8,0 km/h (2 Bft) 96,55 %
14.06.2016 13:28 18,4 C 72 % 1001,2 hPa 0,0 l/m 5,0 km/h (1 Bft) W-SW 253 0 min 0,000 mm 3,3 UV-I 399 W/m 13,3 C 18,4 C 6,4 km/h (2 Bft) 100,00 %
14.06.2016 13:29 18,4 C 72 % 1001,2 hPa 0,0 l/m 3,2 km/h (1 Bft) W-SW 251 0 min 0,000 mm 3,2 UV-I 375 W/m 13,3 C 18,4 C 4,8 km/h (1 Bft) 95,65 %
14.06.2016 13:30 18,4 C 74 % 1001,1 hPa 0,0 l/m 1,5 km/h (1 Bft) W-SW 251 0 min 0,000 mm 3,8 UV-I 418 W/m 13,7 C 18,4 C 3,2 km/h (1 Bft) 100,00 %
14.06.2016 13:31 18,5 C 75 % 1001,0 hPa 0,0 l/m 1,6 km/h (1 Bft) NW 309 1 min 0,000 mm 4,0 UV-I 491 W/m 14,0 C 18,5 C 4,8 km/h (1 Bft) 96,15 %
14.06.2016 13:32 18,6 C 73 % 1001,0 hPa 0,0 l/m 1,0 km/h (0 Bft) NW 309 1 min 0,000 mm 3,4 UV-I 496 W/m 13,7 C 18,6 C 3,2 km/h (1 Bft) 100,00 %
14.06.2016 13:33 18,6 C 73 % 1001,1 hPa 0,0 l/m 2,0 km/h (1 Bft) NW 309 0 min 0,000 mm 3,1 UV-I 325 W/m 13,7 C 18,6 C 3,2 km/h (1 Bft) 100,00 %
14.06.2016 13:34 18,6 C 73 % 1001,1 hPa 0,0 l/m 1,2 km/h (1 Bft) W-NW 296 0 min 0,000 mm 3,2 UV-I 338 W/m 13,7 C 18,6 C 3,2 km/h (1 Bft) 95,83 %
14.06.2016 13:35 18,7 C 74 % 1001,0 hPa 0,0 l/m 2,8 km/h (1 Bft) W-NW 303 0 min 0,000 mm 3,2 UV-I 338 W/m 14,0 C 18,7 C 4,8 km/h (1 Bft) 100,00 %
14.06.2016 13:36 18,6 C 70 % 1001,0 hPa 0,0 l/m 2,2 km/h (1 Bft) NW 318 0 min 0,000 mm 3,3 UV-I 345 W/m 13,0 C 18,6 C 3,2 km/h (1 Bft) 100,00 %
14.06.2016 13:37 18,6 C 70 % 1001,0 hPa 0,0 l/m 2,0 km/h (1 Bft) NW 319 0 min 0,000 mm 3,5 UV-I 459 W/m 13,0 C 18,6 C 3,2 km/h (1 Bft) 100,00 %
14.06.2016 13:38 18,6 C 71 % 1001,0 hPa 0,0 l/m 3,2 km/h (1 Bft) N 5 0 min 0,000 mm 3,6 UV-I 420 W/m 13,2 C 18,6 C 4,8 km/h (1 Bft) 100,00 %
14.06.2016 13:39 18,6 C 72 % 1001,0 hPa 0,0 l/m 2,3 km/h (1 Bft) W-NW 290 0 min 0,000 mm 3,5 UV-I 412 W/m 13,4 C 18,6 C 6,4 km/h (2 Bft) 95,65 %
14.06.2016 13:40 18,6 C 72 % 1001,0 hPa 0,0 l/m 6,0 km/h (2 Bft) NW 315 0 min 0,000 mm 3,7 UV-I 456 W/m 13,4 C 18,6 C 8,0 km/h (2 Bft) 100,00 %
14.06.2016 13:41 18,6 C 71 % 1001,0 hPa 0,0 l/m 1,8 km/h (1 Bft) N-NO 23 0 min 0,000 mm 3,7 UV-I 415 W/m 13,2 C 18,6 C 4,8 km/h (1 Bft) 100,00 %
14.06.2016 13:42 18,6 C 74 % 1001,0 hPa 0,0 l/m 3,4 km/h (1 Bft) NW 323 0 min 0,000 mm 3,4 UV-I 366 W/m 13,9 C 18,6 C 6,4 km/h (2 Bft) 100,00 %
14.06.2016 13:43 18,5 C 72 % 1001,0 hPa 0,0 l/m 3,0 km/h (1 Bft) N-NW 327 0 min 0,000 mm 3,0 UV-I 334 W/m 13,4 C 18,5 C 4,8 km/h (1 Bft) 96,15 %
14.06.2016 13:44 18,5 C 72 % 1000,9 hPa 0,0 l/m 5,0 km/h (1 Bft) W-NW 303 0 min 0,000 mm 2,9 UV-I 323 W/m 13,4 C 18,5 C 6,4 km/h (2 Bft) 100,00 %
14.06.2016 13:45 18,4 C 72 % 1000,9 hPa 0,0 l/m 2,6 km/h (1 Bft) W-NW 298 0 min 0,000 mm 2,9 UV-I 327 W/m 13,3 C 18,4 C 4,8 km/h (1 Bft) 100,00 %
14.06.2016 13:46 18,4 C 73 % 1000,9 hPa 0,0 l/m 2,4 km/h (1 Bft) NW 305 0 min 0,000 mm 3,0 UV-I 368 W/m 13,5 C 18,4 C 4,8 km/h (1 Bft) 100,00 %
14.06.2016 13:47 18,5 C 74 % 1000,9 hPa 0,0 l/m 2,6 km/h (1 Bft) NW 304 0 min 0,000 mm 4,3 UV-I 408 W/m 13,8 C 18,5 C 3,2 km/h (1 Bft) 98,70 %
14.06.2016 13:48 18,6 C 72 % 1000,9 hPa 0,0 l/m 2,8 km/h (1 Bft) NW 304 1 min 0,000 mm 5,3 UV-I 656 W/m 13,4 C 18,6 C 3,2 km/h (1 Bft) 100,00 %
14.06.2016 13:49 18,7 C 71 % 1000,9 hPa 0,0 l/m 2,4 km/h (1 Bft) NW 309 1 min 0,000 mm 4,5 UV-I 821 W/m 13,3 C 18,7 C 3,2 km/h (1 Bft) 100,00 %
14.06.2016 13:50 18,7 C 71 % 1000,8 hPa 0,0 l/m 1,0 km/h (0 Bft) NW 309 1 min 0,000 mm 3,5 UV-I 563 W/m 13,3 C 18,7 C 1,6 km/h (1 Bft) 100,00 %
14.06.2016 13:51 18,7 C 70 % 1000,9 hPa 0,0 l/m 1,4 km/h (1 Bft) NW 309 1 min 0,000 mm 2,9 UV-I 489 W/m 13,1 C 18,7 C 3,2 km/h (1 Bft) 98,71 %
14.06.2016 13:52 18,7 C 68 % 1000,8 hPa 0,0 l/m 0,1 km/h (0 Bft) NW 309 0 min 0,000 mm 2,6 UV-I 318 W/m 12,7 C 18,7 C 1,6 km/h (1 Bft) 100,00 %
14.06.2016 13:53 18,6 C 69 % 1000,8 hPa 0,0 l/m 0,0 km/h (0 Bft) NW 309 0 min 0,000 mm 2,6 UV-I 345 W/m 12,8 C 18,6 C 0,0 km/h (0 Bft) 100,00 %
14.06.2016 13:54 18,6 C 71 % 1000,8 hPa 0,0 l/m 0,1 km/h (0 Bft) NW 309 0 min 0,000 mm 2,8 UV-I 388 W/m 13,2 C 18,6 C 1,6 km/h (1 Bft) 100,00 %
14.06.2016 13:55 18,6 C 70 % 1000,8 hPa 0,0 l/m 1,3 km/h (1 Bft) S-SW 205 0 min 0,000 mm 2,9 UV-I 403 W/m 13,0 C 18,6 C 4,8 km/h (1 Bft) 100,00 %
14.06.2016 13:56 18,5 C 72 % 1000,8 hPa 0,0 l/m 4,2 km/h (1 Bft) S-SW 205 0 min 0,000 mm 2,9 UV-I 399 W/m 13,4 C 18,5 C 6,4 km/h (2 Bft) 100,00 %
14.06.2016 13:57 18,4 C 70 % 1000,8 hPa 0,0 l/m 1,8 km/h (1 Bft) S-SW 205 0 min 0,000 mm 2,7 UV-I 383 W/m 12,8 C 18,4 C 3,2 km/h (1 Bft) 93,10 %
14.06.2016 13:58 18,4 C 71 % 1000,8 hPa 0,0 l/m 1,0 km/h (0 Bft) S-SW 205 0 min 0,000 mm 2,6 UV-I 345 W/m 13,0 C 18,4 C 3,2 km/h (1 Bft) 100,00 %
14.06.2016 13:59 18,4 C 71 % 1000,7 hPa 0,0 l/m 0,2 km/h (0 Bft) S-SW 205 0 min 0,000 mm 2,5 UV-I 328 W/m 13,0 C 18,4 C 1,6 km/h (1 Bft) 100,00 %
14.06.2016 14:00 18,4 C 71 % 1000,7 hPa 0,0 l/m 0,1 km/h (0 Bft) S-SW 205 0 min 0,254 mm 2,4 UV-I 325 W/m 13,0 C 18,4 C 1,6 km/h (1 Bft) 100,00 %
14.06.2016 14:01 18,4 C 71 % 1000,8 hPa 0,0 l/m 2,2 km/h (1 Bft) W-SW 244 0 min 0,000 mm 2,4 UV-I 322 W/m 13,0 C 18,4 C 4,8 km/h (1 Bft) 100,00 %
14.06.2016 14:02 18,5 C 74 % 1000,7 hPa 0,0 l/m 2,5 km/h (1 Bft) W-SW 246 0 min 0,000 mm 2,4 UV-I 317 W/m 13,8 C 18,5 C 4,8 km/h (1 Bft) 95,83 %
14.06.2016 14:03 18,5 C 70 % 1000,7 hPa 0,0 l/m 3,5 km/h (1 Bft) S-SW 200 0 min 0,000 mm 2,4 UV-I 328 W/m 12,9 C 18,5 C 4,8 km/h (1 Bft) 95,65 %
14.06.2016 14:04 18,6 C 71 % 1000,7 hPa 0,0 l/m 5,1 km/h (1 Bft) W-SW 246 0 min 0,000 mm 2,4 UV-I 333 W/m 13,2 C 18,6 C 6,4 km/h (2 Bft) 96,30 %
14.06.2016 14:05 18,6 C 74 % 1000,7 hPa 0,0 l/m 4,5 km/h (1 Bft) W 260 0 min 0,000 mm 2,5 UV-I 351 W/m 13,9 C 18,6 C 6,4 km/h (2 Bft) 100,00 %
14.06.2016 14:06 18,7 C 71 % 1000,7 hPa 0,0 l/m 3,0 km/h (1 Bft) W 259 0 min 0,000 mm 2,7 UV-I 375 W/m 13,3 C 18,7 C 4,8 km/h (1 Bft) 100,00 %
14.06.2016 14:07 18,7 C 71 % 1000,7 hPa 0,0 l/m 5,1 km/h (1 Bft) W-SW 254 0 min 0,000 mm 2,8 UV-I 392 W/m 13,3 C 18,7 C 9,7 km/h (2 Bft) 100,00 %
14.06.2016 14:08 18,7 C 73 % 1000,7 hPa 0,0 l/m 3,3 km/h (1 Bft) W 277 0 min 0,000 mm 3,0 UV-I 422 W/m 13,8 C 18,7 C 4,8 km/h (1 Bft) 100,00 %
14.06.2016 14:09 18,8 C 74 % 1000,7 hPa 0,0 l/m 2,7 km/h (1 Bft) N-NW 330 0 min 0,000 mm 3,7 UV-I 457 W/m 14,1 C 18,8 C 4,8 km/h (1 Bft) 100,00 %
14.06.2016 14:10 18,8 C 72 % 1000,7 hPa 0,0 l/m 2,1 km/h (1 Bft) W-NW 294 0 min 0,000 mm 5,2 UV-I 457 W/m 13,6 C 18,8 C 3,2 km/h (1 Bft) 100,00 %
14.06.2016 14:11 18,8 C 70 % 1000,6 hPa 0,0 l/m 3,2 km/h (1 Bft) W-NW 295 0 min 0,000 mm 3,7 UV-I 468 W/m 13,2 C 18,8 C 6,4 km/h (2 Bft) 100,00 %
14.06.2016 14:12 18,9 C 70 % 1000,6 hPa 0,0 l/m 4,0 km/h (1 Bft) W 280 0 min 0,000 mm 3,4 UV-I 448 W/m 13,3 C 18,9 C 4,8 km/h (1 Bft) 100,00 %
14.06.2016 14:13 18,9 C 71 % 1000,6 hPa 0,0 l/m 2,8 km/h (1 Bft) W-NW 295 0 min 0,000 mm 3,2 UV-I 431 W/m 13,5 C 18,9 C 4,8 km/h (1 Bft) 100,00 %
14.06.2016 14:14 18,9 C 69 % 1000,6 hPa 0,0 l/m 2,3 km/h (1 Bft) W-NW 295 0 min 0,000 mm 3,0 UV-I 373 W/m 13,1 C 18,9 C 3,2 km/h (1 Bft) 100,00 %
14.06.2016 14:15 18,9 C 71 % 1000,6 hPa 0,0 l/m 2,2 km/h (1 Bft) W-NW 299 0 min 0,000 mm 2,8 UV-I 336 W/m 13,5 C 18,9 C 3,2 km/h (1 Bft) 100,00 %
14.06.2016 14:16 18,9 C 68 % 1000,6 hPa 0,0 l/m 1,1 km/h (1 Bft) W-NW 299 0 min 0,000 mm 2,5 UV-I 308 W/m 12,9 C 18,9 C 1,6 km/h (1 Bft) 100,00 %
14.06.2016 14:17 18,9 C 69 % 1000,6 hPa 0,0 l/m 2,0 km/h (1 Bft) N 350 0 min 0,000 mm 2,3 UV-I 291 W/m 13,1 C 18,9 C 3,2 km/h (1 Bft) 100,00 %
14.06.2016 14:18 18,8 C 73 % 1000,6 hPa 0,0 l/m 0,9 km/h (0 Bft) N 5 0 min 0,000 mm 2,1 UV-I 280 W/m 13,9 C 18,8 C 1,6 km/h (1 Bft) 100,00 %
14.06.2016 14:19 18,8 C 68 % 1000,5 hPa 0,0 l/m 2,8 km/h (1 Bft) N 5 0 min 0,000 mm 2,0 UV-I 269 W/m 12,8 C 18,8 C 4,8 km/h (1 Bft) 100,00 %
14.06.2016 14:20 18,8 C 70 % 1000,5 hPa 0,0 l/m 4,0 km/h (1 Bft) W-SW 244 0 min 0,000 mm 2,0 UV-I 265 W/m 13,2 C 18,8 C 6,4 km/h (2 Bft) 95,83 %
14.06.2016 14:21 18,7 C 68 % 1000,5 hPa 0,0 l/m 2,2 km/h (1 Bft) W-SW 244 0 min 0,000 mm 2,0 UV-I 271 W/m 12,7 C 18,7 C 4,8 km/h (1 Bft) 100,00 %
14.06.2016 14:22 18,6 C 68 % 1000,5 hPa 0,0 l/m 1,0 km/h (0 Bft) W-SW 238 0 min 0,000 mm 2,1 UV-I 289 W/m 12,6 C 18,6 C 1,6 km/h (1 Bft) 96,15 %
14.06.2016 14:23 18,6 C 72 % 1000,5 hPa 0,0 l/m 2,8 km/h (1 Bft) W-SW 238 0 min 0,000 mm 2,3 UV-I 313 W/m 13,4 C 18,6 C 4,8 km/h (1 Bft) 100,00 %
14.06.2016 14:24 18,6 C 69 % 1000,5 hPa 0,0 l/m 0,8 km/h (0 Bft) W-SW 238 0 min 0,000 mm 2,5 UV-I 346 W/m 12,8 C 18,6 C 1,6 km/h (1 Bft) 100,00 %
14.06.2016 14:25 18,6 C 70 % 1000,5 hPa 0,0 l/m 0,9 km/h (0 Bft) W-SW 238 0 min 0,000 mm 2,7 UV-I 378 W/m 13,0 C 18,6 C 1,6 km/h (1 Bft) 100,00 %
14.06.2016 14:26 18,6 C 71 % 1000,6 hPa 0,0 l/m 2,9 km/h (1 Bft) SW 220 0 min 0,000 mm 2,8 UV-I 367 W/m 13,2 C 18,6 C 4,8 km/h (1 Bft) 100,00 %
14.06.2016 14:27 18,6 C 69 % 1000,6 hPa 0,0 l/m 4,5 km/h (1 Bft) SW 234 0 min 0,000 mm 2,7 UV-I 350 W/m 12,8 C 18,6 C 6,4 km/h (2 Bft) 100,00 %
14.06.2016 14:28 18,6 C 69 % 1000,6 hPa 0,0 l/m 6,4 km/h (2 Bft) W-SW 247 0 min 0,000 mm 2,7 UV-I 338 W/m 12,8 C 18,6 C 11,3 km/h (2 Bft) 100,00 %
14.06.2016 14:29 18,6 C 69 % 1000,6 hPa 0,0 l/m 5,7 km/h (1 Bft) W 259 0 min 0,000 mm 2,5 UV-I 328 W/m 12,8 C 18,6 C 11,3 km/h (2 Bft) 100,00 %
14.06.2016 14:30 18,6 C 67 % 1000,6 hPa 0,0 l/m 1,7 km/h (1 Bft) W 259 0 min 0,000 mm 2,4 UV-I 321 W/m 12,3 C 18,6 C 3,2 km/h (1 Bft) 100,00 %
14.06.2016 14:31 18,6 C 70 % 1000,5 hPa 0,0 l/m 3,9 km/h (1 Bft) W-SW 245 0 min 0,000 mm 2,3 UV-I 314 W/m 13,0 C 18,6 C 6,4 km/h (2 Bft) 100,00 %
14.06.2016 14:32 18,6 C 70 % 1000,5 hPa 0,0 l/m 3,5 km/h (1 Bft) S-SW 196 0 min 0,000 mm 2,3 UV-I 307 W/m 13,0 C 18,6 C 8,0 km/h (2 Bft) 100,00 %
14.06.2016 14:33 18,6 C 69 % 1000,5 hPa 0,0 l/m 7,5 km/h (2 Bft) SW 232 0 min 0,000 mm 2,2 UV-I 299 W/m 12,8 C 18,1 C 9,7 km/h (2 Bft) 100,00 %
14.06.2016 14:34 18,6 C 69 % 1000,5 hPa 0,0 l/m 3,4 km/h (1 Bft) SW 225 0 min 0,000 mm 2,1 UV-I 292 W/m 12,8 C 18,6 C 6,4 km/h (2 Bft) 100,00 %
14.06.2016 14:35 18,6 C 70 % 1000,6 hPa 0,0 l/m 3,9 km/h (1 Bft) W-SW 257 0 min 0,000 mm 2,1 UV-I 288 W/m 13,0 C 18,6 C 4,8 km/h (1 Bft) 100,00 %
14.06.2016 14:36 18,5 C 69 % 1000,5 hPa 0,0 l/m 4,0 km/h (1 Bft) S-SW 212 0 min 0,000 mm 2,0 UV-I 287 W/m 12,7 C 18,5 C 6,4 km/h (2 Bft) 96,15 %
14.06.2016 14:37 18,5 C 71 % 1000,5 hPa 0,0 l/m 7,4 km/h (2 Bft) SW 219 0 min 0,000 mm 2,0 UV-I 288 W/m 13,1 C 18,0 C 11,3 km/h (2 Bft) 100,00 %
14.06.2016 14:38 18,6 C 69 % 1000,5 hPa 0,0 l/m 7,2 km/h (2 Bft) W-SW 248 0 min 0,000 mm 2,1 UV-I 297 W/m 12,8 C 18,2 C 11,3 km/h (2 Bft) 100,00 %
14.06.2016 14:39 18,6 C 71 % 1000,5 hPa 0,0 l/m 6,7 km/h (2 Bft) W-SW 248 0 min 0,000 mm 2,1 UV-I 309 W/m 13,2 C 18,5 C 8,0 km/h (2 Bft) 100,00 %
14.06.2016 14:40 18,5 C 69 % 1000,5 hPa 0,0 l/m 5,5 km/h (1 Bft) SW 232 0 min 0,000 mm 2,2 UV-I 325 W/m 12,7 C 18,5 C 6,4 km/h (2 Bft) 100,00 %
14.06.2016 14:41 18,5 C 69 % 1000,5 hPa 0,0 l/m 4,8 km/h (1 Bft) W-SW 250 0 min 0,000 mm 2,4 UV-I 341 W/m 12,7 C 18,5 C 8,0 km/h (2 Bft) 100,00 %
14.06.2016 14:42 18,6 C 69 % 1000,5 hPa 0,0 l/m 3,0 km/h (1 Bft) W-SW 250 0 min 0,000 mm 2,5 UV-I 364 W/m 12,8 C 18,6 C 4,8 km/h (1 Bft) 100,00 %
14.06.2016 14:43 18,5 C 68 % 1000,5 hPa 0,0 l/m 3,1 km/h (1 Bft) W-SW 239 0 min 0,000 mm 2,7 UV-I 397 W/m 12,5 C 18,5 C 4,8 km/h (1 Bft) 96,15 %
14.06.2016 14:44 18,6 C 71 % 1000,4 hPa 0,0 l/m 4,5 km/h (1 Bft) W 262 0 min 0,000 mm 3,0 UV-I 425 W/m 13,2 C 18,6 C 4,8 km/h (1 Bft) 100,00 %
14.06.2016 14:45 18,7 C 70 % 1000,4 hPa 0,0 l/m 2,0 km/h (1 Bft) W 262 0 min 0,000 mm 4,1 UV-I 425 W/m 13,1 C 18,7 C 3,2 km/h (1 Bft) 96,55 %
14.06.2016 14:46 18,8 C 70 % 1000,4 hPa 0,0 l/m 1,0 km/h (0 Bft) W 262 1 min 0,000 mm 4,8 UV-I 693 W/m 13,2 C 18,8 C 3,2 km/h (1 Bft) 100,00 %
14.06.2016 14:47 18,9 C 69 % 1000,4 hPa 0,0 l/m 3,0 km/h (1 Bft) W-NW 290 1 min 0,000 mm 4,6 UV-I 854 W/m 13,1 C 18,9 C 4,8 km/h (1 Bft) 100,00 %
14.06.2016 14:48 19,1 C 72 % 1000,4 hPa 0,0 l/m 3,0 km/h (1 Bft) W-NW 290 1 min 0,000 mm 4,1 UV-I 579 W/m 13,9 C 19,1 C 4,8 km/h (1 Bft) 100,00 %
14.06.2016 14:49 19,2 C 69 % 1000,3 hPa 0,0 l/m 1,2 km/h (1 Bft) S-SO 161 1 min 0,000 mm 3,9 UV-I 513 W/m 13,4 C 19,2 C 3,2 km/h (1 Bft) 100,00 %
14.06.2016 14:50 19,2 C 69 % 1000,3 hPa 0,0 l/m 0,8 km/h (0 Bft) S-SO 161 0 min 0,000 mm 3,5 UV-I 457 W/m 13,4 C 19,2 C 3,2 km/h (1 Bft) 98,76 %
14.06.2016 14:51 19,2 C 67 % 1000,3 hPa 0,0 l/m 1,4 km/h (1 Bft) SW 220 0 min 0,000 mm 3,5 UV-I 437 W/m 12,9 C 19,2 C 3,2 km/h (1 Bft) 100,00 %
14.06.2016 14:52 19,2 C 68 % 1000,3 hPa 0,0 l/m 1,1 km/h (1 Bft) SW 221 0 min 0,000 mm 3,4 UV-I 413 W/m 13,1 C 19,2 C 1,6 km/h (1 Bft) 100,00 %
14.06.2016 14:53 19,2 C 67 % 1000,3 hPa 0,0 l/m 0,5 km/h (0 Bft) SW 221 0 min 0,000 mm 3,1 UV-I 364 W/m 12,9 C 19,2 C 1,6 km/h (1 Bft) 100,00 %
14.06.2016 14:54 19,2 C 69 % 1000,3 hPa 0,0 l/m 1,3 km/h (1 Bft) S-SW 212 0 min 0,000 mm 3,0 UV-I 356 W/m 13,4 C 19,2 C 4,8 km/h (1 Bft) 100,00 %
14.06.2016 14:55 19,1 C 68 % 1000,3 hPa 0,0 l/m 3,0 km/h (1 Bft) S-SW 212 0 min 0,000 mm 3,0 UV-I 357 W/m 13,1 C 19,1 C 4,8 km/h (1 Bft) 98,77 %
14.06.2016 14:56 19,1 C 69 % 1000,3 hPa 0,0 l/m 4,1 km/h (1 Bft) W-SW 255 0 min 0,000 mm 3,0 UV-I 361 W/m 13,3 C 19,1 C 6,4 km/h (2 Bft) 100,00 %
14.06.2016 14:57 19,1 C 69 % 1000,2 hPa 0,0 l/m 4,4 km/h (1 Bft) W 271 0 min 0,000 mm 2,9 UV-I 366 W/m 13,3 C 19,1 C 6,4 km/h (2 Bft) 100,00 %
14.06.2016 14:58 19,1 C 68 % 1000,2 hPa 0,0 l/m 5,2 km/h (1 Bft) W-SW 248 0 min 0,000 mm 3,0 UV-I 378 W/m 13,1 C 19,1 C 8,0 km/h (2 Bft) 96,55 %
14.06.2016 14:59 19,0 C 67 % 1000,3 hPa 0,0 l/m 5,0 km/h (1 Bft) S-SW 197 0 min 0,000 mm 3,0 UV-I 394 W/m 12,7 C 19,0 C 6,4 km/h (2 Bft) 91,30 %
14.06.2016 15:00 19,0 C 67 % 1000,3 hPa 0,0 l/m 5,6 km/h (1 Bft) S 182 0 min 0,228 mm 3,1 UV-I 415 W/m 12,7 C 19,0 C 8,0 km/h (2 Bft) 95,83 %
14.06.2016 15:02 18,9 C 69 % 1000,3 hPa 0,0 l/m 2,7 km/h (1 Bft) W-NW 296 2 min 0,000 mm 3,3 UV-I 451 W/m 13,1 C 18,9 C 4,8 km/h (1 Bft) 98,11 %
14.06.2016 15:03 19,0 C 70 % 1000,3 hPa 0,0 l/m 0,3 km/h (0 Bft) W-NW 296 1 min 0,000 mm 3,5 UV-I 493 W/m 13,4 C 19,0 C 1,6 km/h (1 Bft) 100,00 %
14.06.2016 15:04 19,2 C 71 % 1000,2 hPa 0,0 l/m 2,6 km/h (1 Bft) S 191 1 min 0,000 mm 5,2 UV-I 519 W/m 13,8 C 19,2 C 3,2 km/h (1 Bft) 96,55 %
14.06.2016 15:05 19,3 C 71 % 1000,2 hPa 0,0 l/m 6,3 km/h (2 Bft) SW 225 1 min 0,000 mm 6,1 UV-I 824 W/m 13,9 C 19,3 C 9,7 km/h (2 Bft) 100,00 %
14.06.2016 15:06 19,4 C 68 % 1000,2 hPa 0,0 l/m 5,6 km/h (1 Bft) W-SW 243 1 min 0,000 mm 6,1 UV-I 896 W/m 13,3 C 19,4 C 9,7 km/h (2 Bft) 96,15 %
14.06.2016 15:07 19,7 C 70 % 1000,3 hPa 0,0 l/m 4,2 km/h (1 Bft) W-NW 283 1 min 0,000 mm 5,1 UV-I 1150 W/m 14,1 C 19,7 C 6,4 km/h (2 Bft) 100,00 %
14.06.2016 15:08 19,8 C 68 % 1000,2 hPa 0,0 l/m 2,5 km/h (1 Bft) W 261 1 min 0,000 mm 3,6 UV-I 1150 W/m 13,7 C 19,8 C 3,2 km/h (1 Bft) 96,15 %
14.06.2016 15:09 19,8 C 67 % 1000,2 hPa 0,0 l/m 8,6 km/h (2 Bft) S-SW 196 1 min 0,000 mm 4,2 UV-I 1150 W/m 13,5 C 18,9 C 12,9 km/h (3 Bft) 95,83 %
14.06.2016 15:10 19,7 C 64 % 1000,2 hPa 0,0 l/m 5,3 km/h (1 Bft) S-SO 168 1 min 0,000 mm 4,2 UV-I 1150 W/m 12,7 C 19,7 C 11,3 km/h (2 Bft) 100,00 %
14.06.2016 15:11 19,6 C 65 % 1000,2 hPa 0,0 l/m 6,6 km/h (2 Bft) S-SW 201 1 min 0,000 mm 3,8 UV-I 1150 W/m 12,8 C 19,5 C 9,7 km/h (2 Bft) 95,83 %
14.06.2016 15:12 19,6 C 68 % 1000,2 hPa 0,0 l/m 3,7 km/h (1 Bft) S 175 1 min 0,000 mm 4,0 UV-I 706 W/m 13,5 C 19,6 C 6,4 km/h (2 Bft) 100,00 %
14.06.2016 15:13 19,6 C 67 % 1000,2 hPa 0,0 l/m 5,7 km/h (1 Bft) S 175 1 min 0,000 mm 3,5 UV-I 622 W/m 13,3 C 19,6 C 8,0 km/h (2 Bft) 95,83 %
14.06.2016 15:14 19,4 C 65 % 1000,2 hPa 0,0 l/m 3,6 km/h (1 Bft) S 179 1 min 0,000 mm 3,7 UV-I 483 W/m 12,6 C 19,4 C 4,8 km/h (1 Bft) 100,00 %
14.06.2016 15:15 19,4 C 69 % 1000,2 hPa 0,0 l/m 3,5 km/h (1 Bft) S 186 1 min 0,000 mm 3,9 UV-I 530 W/m 13,6 C 19,4 C 4,8 km/h (1 Bft) 91,67 %
14.06.2016 15:16 19,4 C 67 % 1000,2 hPa 0,0 l/m 2,8 km/h (1 Bft) S-SW 194 1 min 0,000 mm 3,9 UV-I 540 W/m 13,1 C 19,4 C 4,8 km/h (1 Bft) 100,00 %
14.06.2016 15:17 19,4 C 69 % 1000,2 hPa 0,0 l/m 4,7 km/h (1 Bft) W-SW 251 1 min 0,000 mm 3,9 UV-I 531 W/m 13,6 C 19,4 C 8,0 km/h (2 Bft) 96,30 %
14.06.2016 15:18 19,4 C 68 % 1000,2 hPa 0,0 l/m 5,4 km/h (1 Bft) SW 223 1 min 0,000 mm 3,7 UV-I 471 W/m 13,3 C 19,4 C 6,4 km/h (2 Bft) 96,15 %
14.06.2016 15:19 19,5 C 67 % 1000,2 hPa 0,0 l/m 4,5 km/h (1 Bft) S-SW 212 1 min 0,000 mm 3,5 UV-I 456 W/m 13,2 C 19,5 C 8,0 km/h (2 Bft) 100,00 %
14.06.2016 15:20 19,5 C 69 % 1000,2 hPa 0,0 l/m 3,6 km/h (1 Bft) W-SW 240 1 min 0,000 mm 3,6 UV-I 480 W/m 13,7 C 19,5 C 4,8 km/h (1 Bft) 91,67 %
14.06.2016 15:21 19,6 C 66 % 1000,1 hPa 0,0 l/m 0,6 km/h (0 Bft) W-SW 240 1 min 0,000 mm 4,0 UV-I 596 W/m 13,1 C 19,6 C 3,2 km/h (1 Bft) 100,00 %
14.06.2016 15:22 19,6 C 65 % 1000,1 hPa 0,0 l/m 1,2 km/h (1 Bft) S 176 1 min 0,000 mm 4,8 UV-I 679 W/m 12,8 C 19,6 C 3,2 km/h (1 Bft) 96,30 %
14.06.2016 15:23 19,8 C 69 % 1000,1 hPa 0,0 l/m 3,3 km/h (1 Bft) W-SW 258 1 min 0,000 mm 5,1 UV-I 926 W/m 13,9 C 19,8 C 4,8 km/h (1 Bft) 100,00 %
14.06.2016 15:24 19,9 C 73 % 1000,1 hPa 0,0 l/m 2,4 km/h (1 Bft) W-NW 284 1 min 0,000 mm 4,2 UV-I 949 W/m 14,9 C 19,9 C 3,2 km/h (1 Bft) 96,30 %
14.06.2016 15:25 20,2 C 70 % 1000,1 hPa 0,0 l/m 4,0 km/h (1 Bft) W-SW 248 1 min 0,000 mm 3,5 UV-I 949 W/m 14,5 C 20,2 C 4,8 km/h (1 Bft) 100,00 %
14.06.2016 15:26 20,2 C 69 % 1000,1 hPa 0,0 l/m 1,3 km/h (1 Bft) W-SW 248 1 min 0,000 mm 3,7 UV-I 949 W/m 14,3 C 20,2 C 3,2 km/h (1 Bft) 95,83 %
14.06.2016 15:27 20,2 C 69 % 1000,1 hPa 0,0 l/m 2,6 km/h (1 Bft) W-NW 300 1 min 0,000 mm 4,5 UV-I 949 W/m 14,3 C 20,2 C 6,4 km/h (2 Bft) 95,65 %
14.06.2016 15:28 20,3 C 66 % 1000,1 hPa 0,0 l/m 3,1 km/h (1 Bft) W-NW 296 1 min 0,000 mm 4,0 UV-I 949 W/m 13,7 C 20,3 C 6,4 km/h (2 Bft) 100,00 %
14.06.2016 15:29 20,3 C 61 % 1000,1 hPa 0,0 l/m 2,5 km/h (1 Bft) W-NW 298 1 min 0,000 mm 4,0 UV-I 944 W/m 12,5 C 20,3 C 6,4 km/h (2 Bft) 95,65 %
14.06.2016 15:30 20,3 C 64 % 1000,1 hPa 0,0 l/m 1,8 km/h (1 Bft) W-NW 296 1 min 0,000 mm 4,4 UV-I 833 W/m 13,3 C 20,3 C 3,2 km/h (1 Bft) 100,00 %
14.06.2016 15:31 20,3 C 64 % 1000,0 hPa 0,0 l/m 4,0 km/h (1 Bft) W 270 1 min 0,000 mm 4,7 UV-I 834 W/m 13,3 C 20,3 C 6,4 km/h (2 Bft) 96,15 %
14.06.2016 15:32 20,4 C 67 % 1000,1 hPa 0,0 l/m 3,0 km/h (1 Bft) S 182 1 min 0,000 mm 4,6 UV-I 820 W/m 14,1 C 20,4 C 4,8 km/h (1 Bft) 100,00 %
14.06.2016 15:33 20,3 C 63 % 1000,0 hPa 0,0 l/m 3,1 km/h (1 Bft) S-SW 209 1 min 0,000 mm 4,3 UV-I 765 W/m 13,0 C 20,3 C 4,8 km/h (1 Bft) 100,00 %
14.06.2016 15:34 20,3 C 65 % 1000,0 hPa 0,0 l/m 1,3 km/h (1 Bft) SW 233 1 min 0,000 mm 4,5 UV-I 806 W/m 13,5 C 20,3 C 3,2 km/h (1 Bft) 100,00 %
14.06.2016 15:35 20,4 C 65 % 1000,0 hPa 0,0 l/m 6,8 km/h (2 Bft) W 268 1 min 0,000 mm 4,5 UV-I 735 W/m 13,6 C 20,2 C 11,3 km/h (2 Bft) 100,00 %
14.06.2016 15:36 20,4 C 62 % 1000,0 hPa 0,0 l/m 3,5 km/h (1 Bft) W-NW 283 1 min 0,000 mm 4,5 UV-I 735 W/m 12,9 C 20,4 C 6,4 km/h (2 Bft) 100,00 %
14.06.2016 15:37 20,4 C 63 % 1000,0 hPa 0,0 l/m 2,9 km/h (1 Bft) W-NW 284 1 min 0,000 mm 2,7 UV-I 597 W/m 13,1 C 20,4 C 4,8 km/h (1 Bft) 100,00 %
14.06.2016 15:38 20,3 C 63 % 1000,0 hPa 0,0 l/m 3,6 km/h (1 Bft) W 280 0 min 0,000 mm 3,4 UV-I 274 W/m 13,0 C 20,3 C 4,8 km/h (1 Bft) 100,00 %
14.06.2016 15:39 20,3 C 61 % 1000,0 hPa 0,0 l/m 4,2 km/h (1 Bft) W 275 0 min 0,000 mm 3,9 UV-I 274 W/m 12,5 C 20,3 C 4,8 km/h (1 Bft) 100,00 %
14.06.2016 15:40 20,2 C 62 % 1000,0 hPa 0,0 l/m 2,6 km/h (1 Bft) W 271 0 min 0,000 mm 3,1 UV-I 334 W/m 12,7 C 20,2 C 4,8 km/h (1 Bft) 95,65 %
14.06.2016 15:41 20,1 C 62 % 1000,0 hPa 0,0 l/m 3,4 km/h (1 Bft) N 360 0 min 0,000 mm 3,4 UV-I 352 W/m 12,6 C 20,1 C 6,4 km/h (2 Bft) 100,00 %
14.06.2016 15:42 20,0 C 63 % 999,9 hPa 0,0 l/m 1,8 km/h (1 Bft) NW 307 1 min 0,000 mm 3,1 UV-I 434 W/m 12,7 C 20,0 C 4,8 km/h (1 Bft) 100,00 %
14.06.2016 15:43 19,9 C 60 % 1000,0 hPa 0,0 l/m 1,3 km/h (1 Bft) NW 307 1 min 0,000 mm 3,1 UV-I 423 W/m 11,9 C 19,9 C 1,6 km/h (1 Bft) 100,00 %
14.06.2016 15:44 19,8 C 64 % 1000,0 hPa 0,0 l/m 0,8 km/h (0 Bft) NW 307 1 min 0,000 mm 3,4 UV-I 440 W/m 12,8 C 19,8 C 1,6 km/h (1 Bft) 100,00 %
14.06.2016 15:45 19,8 C 61 % 999,9 hPa 0,0 l/m 1,2 km/h (1 Bft) NW 307 1 min 0,000 mm 4,1 UV-I 461 W/m 12,1 C 19,8 C 1,6 km/h (1 Bft) 100,00 %
14.06.2016 15:46 19,9 C 66 % 999,9 hPa 0,0 l/m 1,0 km/h (0 Bft) NW 317 1 min 0,000 mm 3,6 UV-I 461 W/m 13,4 C 19,9 C 3,2 km/h (1 Bft) 100,00 %
14.06.2016 15:47 19,9 C 64 % 999,9 hPa 0,0 l/m 1,4 km/h (1 Bft) NW 317 1 min 0,000 mm 3,4 UV-I 461 W/m 12,9 C 19,9 C 3,2 km/h (1 Bft) 96,30 %
14.06.2016 15:48 19,9 C 62 % 999,9 hPa 0,0 l/m 1,2 km/h (1 Bft) NW 313 1 min 0,000 mm 3,7 UV-I 461 W/m 12,4 C 19,9 C 3,2 km/h (1 Bft) 100,00 %
14.06.2016 15:49 20,0 C 65 % 999,9 hPa 0,0 l/m 1,5 km/h (1 Bft) NW 317 1 min 0,000 mm 4,3 UV-I 603 W/m 13,2 C 20,0 C 3,2 km/h (1 Bft) 100,00 %
14.06.2016 15:50 20,1 C 65 % 999,9 hPa 0,0 l/m 0,2 km/h (0 Bft) NW 317 1 min 0,000 mm 4,2 UV-I 795 W/m 13,3 C 20,1 C 1,6 km/h (1 Bft) 100,00 %
14.06.2016 15:51 20,2 C 66 % 999,9 hPa 0,0 l/m 1,8 km/h (1 Bft) NW 317 1 min 0,000 mm 4,1 UV-I 771 W/m 13,6 C 20,2 C 3,2 km/h (1 Bft) 100,00 %
14.06.2016 15:52 20,3 C 64 % 999,9 hPa 0,0 l/m 0,9 km/h (0 Bft) NW 307 1 min 0,000 mm 4,0 UV-I 760 W/m 13,3 C 20,3 C 3,2 km/h (1 Bft) 100,00 %
14.06.2016 15:53 20,3 C 62 % 999,9 hPa 0,0 l/m 3,7 km/h (1 Bft) W-NW 296 1 min 0,000 mm 4,0 UV-I 728 W/m 12,8 C 20,3 C 4,8 km/h (1 Bft) 100,00 %
14.06.2016 15:54 20,4 C 63 % 999,8 hPa 0,0 l/m 2,4 km/h (1 Bft) W-NW 296 1 min 0,000 mm 3,9 UV-I 702 W/m 13,1 C 20,4 C 3,2 km/h (1 Bft) 95,65 %
14.06.2016 15:55 20,6 C 65 % 999,9 hPa 0,0 l/m 4,1 km/h (1 Bft) W-NW 302 1 min 0,000 mm 3,6 UV-I 664 W/m 13,8 C 20,6 C 9,7 km/h (2 Bft) 100,00 %
14.06.2016 15:56 20,6 C 61 % 999,8 hPa 0,0 l/m 6,0 km/h (2 Bft) N-NW 344 1 min 0,000 mm 3,4 UV-I 597 W/m 12,8 C 20,6 C 11,3 km/h (2 Bft) 100,00 %
14.06.2016 15:57 20,6 C 62 % 999,8 hPa 0,0 l/m 2,7 km/h (1 Bft) W-NW 295 1 min 0,000 mm 3,5 UV-I 579 W/m 13,1 C 20,6 C 4,8 km/h (1 Bft) 100,00 %
14.06.2016 15:58 20,6 C 61 % 999,8 hPa 0,0 l/m 1,5 km/h (1 Bft) N-NW 335 1 min 0,000 mm 3,6 UV-I 624 W/m 12,8 C 20,6 C 1,6 km/h (1 Bft) 100,00 %
14.06.2016 15:59 20,6 C 63 % 999,8 hPa 0,0 l/m 3,5 km/h (1 Bft) N-NO 23 1 min 0,000 mm 3,5 UV-I 618 W/m 13,3 C 20,6 C 8,0 km/h (2 Bft) 100,00 %
14.06.2016 16:00 20,6 C 64 % 999,8 hPa 0,0 l/m 3,8 km/h (1 Bft) N-NW 327 1 min 0,381 mm 3,4 UV-I 587 W/m 13,5 C 20,6 C 6,4 km/h (2 Bft) 100,00 %
14.06.2016 16:01 20,6 C 65 % 999,7 hPa 0,0 l/m 2,0 km/h (1 Bft) N 355 1 min 0,000 mm 3,5 UV-I 607 W/m 13,8 C 20,6 C 3,2 km/h (1 Bft) 100,00 %
14.06.2016 16:02 20,6 C 66 % 999,7 hPa 0,0 l/m 2,4 km/h (1 Bft) N 5 1 min 0,000 mm 3,5 UV-I 594 W/m 14,0 C 20,6 C 3,2 km/h (1 Bft) 93,33 %
14.06.2016 16:03 20,6 C 64 % 999,7 hPa 0,0 l/m 1,5 km/h (1 Bft) N-NW 343 1 min 0,000 mm 3,3 UV-I 583 W/m 13,5 C 20,6 C 3,2 km/h (1 Bft) 100,00 %
14.06.2016 16:04 20,6 C 63 % 999,7 hPa 0,0 l/m 0,8 km/h (0 Bft) N 349 1 min 0,000 mm 3,5 UV-I 610 W/m 13,3 C 20,6 C 1,6 km/h (1 Bft) 100,00 %
14.06.2016 16:05 20,6 C 63 % 999,7 hPa 0,0 l/m 0,9 km/h (0 Bft) N-NW 331 1 min 0,000 mm 3,4 UV-I 585 W/m 13,3 C 20,6 C 3,2 km/h (1 Bft) 100,00 %
14.06.2016 16:06 20,5 C 63 % 999,7 hPa 0,0 l/m 1,4 km/h (1 Bft) N-NW 331 1 min 0,000 mm 3,4 UV-I 585 W/m 13,2 C 20,5 C 3,2 km/h (1 Bft) 100,00 %
14.06.2016 16:07 20,5 C 64 % 999,7 hPa 0,0 l/m 0,9 km/h (0 Bft) N-NW 331 1 min 0,000 mm 3,5 UV-I 631 W/m 13,5 C 20,5 C 1,6 km/h (1 Bft) 100,00 %
14.06.2016 16:08 20,6 C 67 % 999,7 hPa 0,0 l/m 1,0 km/h (0 Bft) N 355 1 min 0,000 mm 3,4 UV-I 623 W/m 14,3 C 20,6 C 3,2 km/h (1 Bft) 100,00 %
14.06.2016 16:09 20,6 C 61 % 999,7 hPa 0,0 l/m 1,8 km/h (1 Bft) N 351 1 min 0,000 mm 2,9 UV-I 615 W/m 12,8 C 20,6 C 3,2 km/h (1 Bft) 95,65 %
14.06.2016 16:10 20,6 C 62 % 999,7 hPa 0,0 l/m 1,2 km/h (1 Bft) N 351 1 min 0,000 mm 2,8 UV-I 615 W/m 13,1 C 20,6 C 1,6 km/h (1 Bft) 100,00 %
14.06.2016 16:11 20,6 C 64 % 999,7 hPa 0,0 l/m 1,3 km/h (1 Bft) N-NW 337 1 min 0,000 mm 3,4 UV-I 615 W/m 13,5 C 20,6 C 3,2 km/h (1 Bft) 96,15 %
14.06.2016 16:12 20,6 C 61 % 999,7 hPa 0,0 l/m 4,2 km/h (1 Bft) S 180 1 min 0,000 mm 3,4 UV-I 615 W/m 12,8 C 20,6 C 6,4 km/h (2 Bft) 100,00 %
14.06.2016 16:13 20,5 C 60 % 999,7 hPa 0,0 l/m 2,1 km/h (1 Bft) W-SW 248 1 min 0,000 mm 3,4 UV-I 622 W/m 12,5 C 20,5 C 3,2 km/h (1 Bft) 100,00 %
14.06.2016 16:14 20,4 C 61 % 999,7 hPa 0,0 l/m 7,1 km/h (2 Bft) SW 232 1 min 0,000 mm 3,3 UV-I 644 W/m 12,6 C 20,1 C 11,3 km/h (2 Bft) 100,00 %
14.06.2016 16:15 20,6 C 62 % 999,7 hPa 0,0 l/m 6,1 km/h (2 Bft) W 259 1 min 0,000 mm 3,3 UV-I 626 W/m 13,1 C 20,6 C 11,3 km/h (2 Bft) 100,00 %
14.06.2016 16:16 20,6 C 62 % 999,7 hPa 0,0 l/m 6,7 km/h (2 Bft) S-SW 213 1 min 0,000 mm 3,3 UV-I 649 W/m 13,1 C 20,5 C 11,3 km/h (2 Bft) 100,00 %
14.06.2016 16:17 20,7 C 61 % 999,6 hPa 0,0 l/m 4,3 km/h (1 Bft) W-SW 244 1 min 0,000 mm 3,3 UV-I 574 W/m 12,9 C 20,7 C 6,4 km/h (2 Bft) 100,00 %
14.06.2016 16:18 20,6 C 60 % 999,7 hPa 0,0 l/m 7,5 km/h (2 Bft) W-SW 252 1 min 0,000 mm 3,3 UV-I 625 W/m 12,6 C 20,2 C 12,9 km/h (3 Bft) 100,00 %
14.06.2016 16:19 20,7 C 62 % 999,7 hPa 0,0 l/m 8,7 km/h (2 Bft) S-SW 207 1 min 0,000 mm 3,4 UV-I 653 W/m 13,2 C 19,8 C 11,3 km/h (2 Bft) 100,00 %
14.06.2016 16:20 20,7 C 60 % 999,7 hPa 0,0 l/m 9,2 km/h (2 Bft) W-SW 246 1 min 0,000 mm 3,4 UV-I 622 W/m 12,7 C 19,7 C 12,9 km/h (3 Bft) 100,00 %
14.06.2016 16:21 20,7 C 60 % 999,7 hPa 0,0 l/m 9,3 km/h (2 Bft) SW 221 1 min 0,000 mm 3,4 UV-I 672 W/m 12,7 C 19,6 C 12,9 km/h (3 Bft) 100,00 %
14.06.2016 16:22 20,7 C 61 % 999,6 hPa 0,0 l/m 5,4 km/h (1 Bft) SW 226 1 min 0,000 mm 3,4 UV-I 678 W/m 12,9 C 20,7 C 6,4 km/h (2 Bft) 100,00 %
14.06.2016 16:23 20,8 C 61 % 999,6 hPa 0,0 l/m 7,5 km/h (2 Bft) W-SW 246 1 min 0,000 mm 3,2 UV-I 669 W/m 13,0 C 20,4 C 12,9 km/h (3 Bft) 100,00 %
14.06.2016 16:24 20,8 C 61 % 999,6 hPa 0,0 l/m 9,6 km/h (2 Bft) W-SW 249 1 min 0,000 mm 3,3 UV-I 677 W/m 13,0 C 19,6 C 12,9 km/h (3 Bft) 100,00 %
14.06.2016 16:25 20,8 C 59 % 999,6 hPa 0,0 l/m 7,3 km/h (2 Bft) W 268 1 min 0,000 mm 3,4 UV-I 702 W/m 12,5 C 20,5 C 11,3 km/h (2 Bft) 100,00 %
14.06.2016 16:26 20,8 C 58 % 999,6 hPa 0,0 l/m 8,7 km/h (2 Bft) W-SW 254 1 min 0,000 mm 3,4 UV-I 694 W/m 12,2 C 19,9 C 12,9 km/h (3 Bft) 100,00 %
14.06.2016 16:27 20,8 C 57 % 999,6 hPa 0,0 l/m 6,1 km/h (2 Bft) W 269 1 min 0,000 mm 3,3 UV-I 683 W/m 12,0 C 20,8 C 9,7 km/h (2 Bft) 100,00 %
14.06.2016 16:28 20,8 C 59 % 999,5 hPa 0,0 l/m 4,2 km/h (1 Bft) W-SW 250 1 min 0,000 mm 3,3 UV-I 664 W/m 12,5 C 20,8 C 6,4 km/h (2 Bft) 100,00 %
14.06.2016 16:29 20,8 C 59 % 999,5 hPa 0,0 l/m 5,5 km/h (1 Bft) SW 229 1 min 0,000 mm 3,2 UV-I 684 W/m 12,5 C 20,8 C 6,4 km/h (2 Bft) 100,00 %
14.06.2016 16:30 20,7 C 59 % 999,5 hPa 0,0 l/m 4,5 km/h (1 Bft) W 265 1 min 0,000 mm 3,2 UV-I 682 W/m 12,4 C 20,7 C 6,4 km/h (2 Bft) 100,00 %
14.06.2016 16:31 20,7 C 59 % 999,5 hPa 0,0 l/m 3,0 km/h (1 Bft) W 262 1 min 0,000 mm 3,2 UV-I 694 W/m 12,4 C 20,7 C 3,2 km/h (1 Bft) 100,00 %
14.06.2016 16:32 20,8 C 59 % 999,5 hPa 0,0 l/m 7,1 km/h (2 Bft) SW 225 1 min 0,000 mm 3,2 UV-I 699 W/m 12,5 C 20,5 C 11,3 km/h (2 Bft) 100,00 %
14.06.2016 16:33 20,8 C 61 % 999,5 hPa 0,0 l/m 5,8 km/h (2 Bft) S-SW 210 1 min 0,000 mm 3,2 UV-I 711 W/m 13,0 C 20,8 C 9,7 km/h (2 Bft) 100,00 %
14.06.2016 16:34 20,9 C 59 % 999,4 hPa 0,0 l/m 5,0 km/h (1 Bft) S 190 1 min 0,000 mm 2,2 UV-I 714 W/m 12,6 C 20,9 C 8,0 km/h (2 Bft) 100,00 %
14.06.2016 16:35 20,8 C 59 % 999,5 hPa 0,0 l/m 7,1 km/h (2 Bft) S-SW 202 1 min 0,000 mm 1,9 UV-I 533 W/m 12,5 C 20,5 C 9,7 km/h (2 Bft) 100,00 %
14.06.2016 16:36 20,7 C 61 % 999,5 hPa 0,0 l/m 6,7 km/h (2 Bft) S-SW 213 0 min 0,000 mm 2,3 UV-I 142 W/m 12,9 C 20,6 C 11,3 km/h (2 Bft) 100,00 %
14.06.2016 16:37 20,6 C 62 % 999,5 hPa 0,0 l/m 1,6 km/h (1 Bft) S-SW 209 1 min 0,000 mm 3,0 UV-I 420 W/m 13,1 C 20,6 C 3,2 km/h (1 Bft) 100,00 %
14.06.2016 16:38 20,6 C 62 % 999,4 hPa 0,0 l/m 5,6 km/h (1 Bft) W-SW 251 1 min 0,000 mm 3,0 UV-I 664 W/m 13,1 C 20,6 C 9,7 km/h (2 Bft) 95,65 %
14.06.2016 16:39 20,7 C 63 % 999,5 hPa 0,0 l/m 4,7 km/h (1 Bft) W-NW 300 1 min 0,000 mm 3,0 UV-I 668 W/m 13,4 C 20,7 C 6,4 km/h (2 Bft) 100,00 %
14.06.2016 16:40 20,8 C 62 % 999,5 hPa 0,0 l/m 3,9 km/h (1 Bft) N-NW 327 1 min 0,000 mm 2,9 UV-I 652 W/m 13,2 C 20,8 C 6,4 km/h (2 Bft) 100,00 %
14.06.2016 16:41 20,9 C 65 % 999,4 hPa 0,0 l/m 3,4 km/h (1 Bft) NW 324 1 min 0,000 mm 3,0 UV-I 665 W/m 14,1 C 20,9 C 4,8 km/h (1 Bft) 96,15 %
14.06.2016 16:42 20,9 C 63 % 999,5 hPa 0,0 l/m 2,5 km/h (1 Bft) NW 320 1 min 0,000 mm 2,9 UV-I 661 W/m 13,6 C 20,9 C 4,8 km/h (1 Bft) 100,00 %
14.06.2016 16:43 20,9 C 61 % 999,5 hPa 0,0 l/m 0,9 km/h (0 Bft) NW 320 1 min 0,000 mm 2,9 UV-I 660 W/m 13,1 C 20,9 C 3,2 km/h (1 Bft) 100,00 %
14.06.2016 16:44 20,9 C 62 % 999,4 hPa 0,0 l/m 1,9 km/h (1 Bft) N-NW 331 1 min 0,000 mm 2,9 UV-I 660 W/m 13,3 C 20,9 C 3,2 km/h (1 Bft) 100,00 %
14.06.2016 16:45 21,0 C 59 % 999,4 hPa 0,0 l/m 0,1 km/h (0 Bft) N-NW 331 1 min 0,000 mm 2,8 UV-I 655 W/m 12,7 C 21,0 C 1,6 km/h (1 Bft) 96,15 %
14.06.2016 16:46 21,0 C 60 % 999,4 hPa 0,0 l/m 0,2 km/h (0 Bft) N-NW 331 1 min 0,000 mm 2,8 UV-I 651 W/m 12,9 C 21,0 C 1,6 km/h (1 Bft) 100,00 %
14.06.2016 16:47 21,2 C 65 % 999,4 hPa 0,0 l/m 0,8 km/h (0 Bft) N-NW 331 1 min 0,000 mm 2,8 UV-I 649 W/m 14,4 C 21,2 C 3,2 km/h (1 Bft) 100,00 %
14.06.2016 16:48 21,3 C 62 % 999,4 hPa 0,0 l/m 3,1 km/h (1 Bft) N-NO 30 1 min 0,000 mm 2,7 UV-I 651 W/m 13,7 C 21,3 C 4,8 km/h (1 Bft) 100,00 %
14.06.2016 16:49 21,3 C 60 % 999,3 hPa 0,0 l/m 3,3 km/h (1 Bft) N-NO 25 1 min 0,000 mm 2,4 UV-I 603 W/m 13,2 C 21,3 C 4,8 km/h (1 Bft) 100,00 %
14.06.2016 16:50 21,3 C 64 % 999,4 hPa 0,0 l/m 3,0 km/h (1 Bft) N-NO 26 1 min 0,000 mm 2,4 UV-I 543 W/m 14,2 C 21,3 C 4,8 km/h (1 Bft) 100,00 %
14.06.2016 16:51 21,3 C 62 % 999,3 hPa 0,0 l/m 1,5 km/h (1 Bft) N-NW 336 1 min 0,000 mm 2,6 UV-I 617 W/m 13,7 C 21,3 C 3,2 km/h (1 Bft) 100,00 %
14.06.2016 16:52 21,3 C 63 % 999,3 hPa 0,0 l/m 2,4 km/h (1 Bft) NW 318 1 min 0,000 mm 2,6 UV-I 627 W/m 14,0 C 21,3 C 3,2 km/h (1 Bft) 100,00 %
14.06.2016 16:53 21,3 C 60 % 999,3 hPa 0,0 l/m 2,3 km/h (1 Bft) NW 311 1 min 0,000 mm 2,6 UV-I 620 W/m 13,2 C 21,3 C 4,8 km/h (1 Bft) 100,00 %
14.06.2016 16:54 21,3 C 63 % 999,3 hPa 0,0 l/m 1,5 km/h (1 Bft) N-NW 347 1 min 0,000 mm 2,6 UV-I 608 W/m 14,0 C 21,3 C 3,2 km/h (1 Bft) 100,00 %
14.06.2016 16:55 21,3 C 61 % 999,3 hPa 0,0 l/m 2,0 km/h (1 Bft) N-NW 335 1 min 0,000 mm 2,6 UV-I 598 W/m 13,5 C 21,3 C 3,2 km/h (1 Bft) 95,65 %
14.06.2016 16:56 21,3 C 63 % 999,2 hPa 0,0 l/m 1,8 km/h (1 Bft) N-NW 329 1 min 0,000 mm 2,6 UV-I 603 W/m 14,0 C 21,3 C 3,2 km/h (1 Bft) 100,00 %
14.06.2016 16:57 21,3 C 61 % 999,3 hPa 0,0 l/m 2,9 km/h (1 Bft) NW 306 1 min 0,000 mm 2,5 UV-I 612 W/m 13,5 C 21,3 C 4,8 km/h (1 Bft) 96,67 %
14.06.2016 16:58 21,3 C 62 % 999,3 hPa 0,0 l/m 0,9 km/h (0 Bft) NW 324 1 min 0,000 mm 2,5 UV-I 622 W/m 13,7 C 21,3 C 1,6 km/h (1 Bft) 100,00 %
14.06.2016 16:59 21,3 C 63 % 999,3 hPa 0,0 l/m 3,0 km/h (1 Bft) N-NO 19 1 min 0,000 mm 1,9 UV-I 622 W/m 14,0 C 21,3 C 4,8 km/h (1 Bft) 96,15 %
14.06.2016 17:00 21,2 C 60 % 999,3 hPa 0,0 l/m 2,9 km/h (1 Bft) N-NO 32 1 min 0,381 mm 2,4 UV-I 635 W/m 13,1 C 21,2 C 4,8 km/h (1 Bft) 100,00 %
14.06.2016 17:02 21,3 C 66 % 999,3 hPa 0,0 l/m 1,4 km/h (1 Bft) N-NO 31 2 min 0,000 mm 2,4 UV-I 644 W/m 14,7 C 21,3 C 3,2 km/h (1 Bft) 94,34 %
14.06.2016 17:03 21,4 C 64 % 999,3 hPa 0,0 l/m 2,8 km/h (1 Bft) N 351 1 min 0,000 mm 2,4 UV-I 634 W/m 14,3 C 21,4 C 8,0 km/h (2 Bft) 100,00 %
14.06.2016 17:04 21,3 C 63 % 999,2 hPa 0,0 l/m 3,2 km/h (1 Bft) N-NO 25 1 min 0,000 mm 2,3 UV-I 619 W/m 14,0 C 21,3 C 4,8 km/h (1 Bft) 92,86 %
14.06.2016 17:05 21,3 C 63 % 999,3 hPa 0,0 l/m 6,2 km/h (2 Bft) N-NO 15 1 min 0,000 mm 2,3 UV-I 619 W/m 14,0 C 21,3 C 9,7 km/h (2 Bft) 100,00 %
14.06.2016 17:06 21,3 C 62 % 999,3 hPa 0,0 l/m 6,5 km/h (2 Bft) NO 38 1 min 0,000 mm 2,3 UV-I 624 W/m 13,7 C 21,3 C 8,0 km/h (2 Bft) 95,65 %
14.06.2016 17:07 21,2 C 64 % 999,3 hPa 0,0 l/m 5,0 km/h (1 Bft) NO 41 1 min 0,000 mm 2,3 UV-I 623 W/m 14,1 C 21,2 C 6,4 km/h (2 Bft) 100,00 %
14.06.2016 17:08 21,3 C 64 % 999,3 hPa 0,0 l/m 5,0 km/h (1 Bft) NO 38 1 min 0,000 mm 2,3 UV-I 611 W/m 14,2 C 21,3 C 6,4 km/h (2 Bft) 96,15 %
14.06.2016 17:09 21,3 C 63 % 999,3 hPa 0,0 l/m 5,3 km/h (1 Bft) O-NO 58 1 min 0,000 mm 2,2 UV-I 607 W/m 14,0 C 21,3 C 8,0 km/h (2 Bft) 95,83 %
14.06.2016 17:10 21,3 C 62 % 999,3 hPa 0,0 l/m 6,4 km/h (2 Bft) NO 51 1 min 0,000 mm 2,2 UV-I 600 W/m 13,7 C 21,3 C 8,0 km/h (2 Bft) 100,00 %
14.06.2016 17:11 21,4 C 62 % 999,3 hPa 0,0 l/m 6,2 km/h (2 Bft) NO 51 1 min 0,000 mm 2,1 UV-I 599 W/m 13,8 C 21,4 C 8,0 km/h (2 Bft) 94,12 %
14.06.2016 17:12 21,4 C 62 % 999,3 hPa 0,0 l/m 4,4 km/h (1 Bft) O-NO 60 1 min 0,000 mm 2,1 UV-I 596 W/m 13,8 C 21,4 C 6,4 km/h (2 Bft) 100,00 %
14.06.2016 17:13 21,4 C 62 % 999,3 hPa 0,0 l/m 5,7 km/h (1 Bft) O-NO 61 1 min 0,000 mm 2,1 UV-I 600 W/m 13,8 C 21,4 C 6,4 km/h (2 Bft) 96,15 %
14.06.2016 17:14 21,3 C 61 % 999,3 hPa 0,0 l/m 3,5 km/h (1 Bft) O-NO 57 1 min 0,000 mm 2,0 UV-I 611 W/m 13,5 C 21,3 C 6,4 km/h (2 Bft) 100,00 %
14.06.2016 17:15 21,2 C 59 % 999,3 hPa 0,0 l/m 2,0 km/h (1 Bft) NO 55 1 min 0,000 mm 1,8 UV-I 612 W/m 12,9 C 21,2 C 3,2 km/h (1 Bft) 96,30 %
14.06.2016 17:16 21,2 C 64 % 999,3 hPa 0,0 l/m 3,4 km/h (1 Bft) NO 53 1 min 0,000 mm 1,6 UV-I 585 W/m 14,1 C 21,2 C 4,8 km/h (1 Bft) 100,00 %
14.06.2016 17:17 21,1 C 63 % 999,2 hPa 0,0 l/m 1,8 km/h (1 Bft) NO 40 1 min 0,000 mm 1,9 UV-I 530 W/m 13,8 C 21,1 C 3,2 km/h (1 Bft) 96,15 %
14.06.2016 17:18 21,1 C 62 % 999,3 hPa 0,0 l/m 1,3 km/h (1 Bft) NO 40 1 min 0,000 mm 2,1 UV-I 576 W/m 13,5 C 21,1 C 3,2 km/h (1 Bft) 96,30 %
14.06.2016 17:19 21,1 C 66 % 999,3 hPa 0,0 l/m 0,7 km/h (0 Bft) NO 40 1 min 0,000 mm 2,0 UV-I 563 W/m 14,5 C 21,1 C 1,6 km/h (1 Bft) 100,00 %
14.06.2016 17:20 21,1 C 62 % 999,3 hPa 0,0 l/m 0,7 km/h (0 Bft) NO 40 1 min 0,000 mm 2,0 UV-I 552 W/m 13,5 C 21,1 C 3,2 km/h (1 Bft) 95,83 %
14.06.2016 17:21 21,1 C 60 % 999,3 hPa 0,0 l/m 1,0 km/h (0 Bft) NO 40 1 min 0,000 mm 1,9 UV-I 525 W/m 13,0 C 21,1 C 1,6 km/h (1 Bft) 100,00 %
14.06.2016 17:22 21,1 C 62 % 999,2 hPa 0,0 l/m 1,4 km/h (1 Bft) NO 40 1 min 0,000 mm 1,9 UV-I 538 W/m 13,5 C 21,1 C 3,2 km/h (1 Bft) 95,83 %
14.06.2016 17:23 21,1 C 61 % 999,2 hPa 0,0 l/m 0,2 km/h (0 Bft) NO 40 1 min 0,000 mm 1,9 UV-I 518 W/m 13,3 C 21,1 C 1,6 km/h (1 Bft) 100,00 %
14.06.2016 17:24 21,1 C 59 % 999,2 hPa 0,0 l/m 1,0 km/h (0 Bft) NO 40 1 min 0,000 mm 1,8 UV-I 506 W/m 12,8 C 21,1 C 3,2 km/h (1 Bft) 95,83 %
14.06.2016 17:25 21,2 C 60 % 999,2 hPa 0,0 l/m 0,8 km/h (0 Bft) NO 39 1 min 0,000 mm 1,8 UV-I 511 W/m 13,1 C 21,2 C 1,6 km/h (1 Bft) 100,00 %
14.06.2016 17:26 21,2 C 60 % 999,3 hPa 0,0 l/m 3,0 km/h (1 Bft) W 277 1 min 0,000 mm 1,8 UV-I 515 W/m 13,1 C 21,2 C 6,4 km/h (2 Bft) 96,30 %
14.06.2016 17:27 21,2 C 63 % 999,2 hPa 0,0 l/m 4,3 km/h (1 Bft) W-SW 244 1 min 0,000 mm 1,8 UV-I 545 W/m 13,9 C 21,2 C 6,4 km/h (2 Bft) 96,15 %
14.06.2016 17:28 21,2 C 59 % 999,1 hPa 0,0 l/m 3,5 km/h (1 Bft) W 277 1 min 0,000 mm 1,8 UV-I 511 W/m 12,9 C 21,2 C 4,8 km/h (1 Bft) 96,30 %
14.06.2016 17:29 21,3 C 61 % 999,1 hPa 0,0 l/m 2,7 km/h (1 Bft) NW 311 1 min 0,000 mm 1,8 UV-I 509 W/m 13,5 C 21,3 C 4,8 km/h (1 Bft) 100,00 %
14.06.2016 17:30 21,3 C 57 % 999,1 hPa 0,0 l/m 2,7 km/h (1 Bft) NW 318 1 min 0,000 mm 1,8 UV-I 492 W/m 12,4 C 21,3 C 4,8 km/h (1 Bft) 95,83 %
14.06.2016 17:31 21,2 C 60 % 999,1 hPa 0,0 l/m 1,4 km/h (1 Bft) NW 321 1 min 0,000 mm 1,7 UV-I 478 W/m 13,1 C 21,2 C 3,2 km/h (1 Bft) 100,00 %
14.06.2016 17:32 21,2 C 60 % 999,1 hPa 0,0 l/m 1,0 km/h (0 Bft) N-NW 333 1 min 0,000 mm 1,7 UV-I 490 W/m 13,1 C 21,2 C 3,2 km/h (1 Bft) 100,00 %
14.06.2016 17:33 21,2 C 62 % 999,1 hPa 0,0 l/m 2,6 km/h (1 Bft) N-NW 333 1 min 0,000 mm 1,7 UV-I 481 W/m 13,6 C 21,2 C 3,2 km/h (1 Bft) 95,65 %
14.06.2016 17:34 21,2 C 60 % 999,1 hPa 0,0 l/m 1,4 km/h (1 Bft) S-SW 193 1 min 0,000 mm 1,7 UV-I 452 W/m 13,1 C 21,2 C 4,8 km/h (1 Bft) 100,00 %
14.06.2016 17:35 21,2 C 59 % 999,1 hPa 0,0 l/m 8,4 km/h (2 Bft) W-SW 242 1 min 0,000 mm 1,7 UV-I 450 W/m 12,9 C 20,5 C 11,3 km/h (2 Bft) 100,00 %
14.06.2016 17:36 21,2 C 60 % 999,0 hPa 0,0 l/m 4,3 km/h (1 Bft) SW 225 1 min 0,000 mm 1,6 UV-I 435 W/m 13,1 C 21,2 C 8,0 km/h (2 Bft) 95,83 %
14.06.2016 17:37 21,1 C 57 % 999,0 hPa 0,0 l/m 1,4 km/h (1 Bft) S-SW 192 1 min 0,000 mm 1,6 UV-I 433 W/m 12,2 C 21,1 C 3,2 km/h (1 Bft) 100,00 %
14.06.2016 17:38 21,1 C 59 % 999,0 hPa 0,0 l/m 8,2 km/h (2 Bft) S-SW 204 1 min 0,000 mm 1,6 UV-I 434 W/m 12,8 C 20,4 C 9,7 km/h (2 Bft) 100,00 %
14.06.2016 17:39 21,0 C 58 % 999,0 hPa 0,0 l/m 5,8 km/h (2 Bft) S 180 1 min 0,000 mm 1,6 UV-I 440 W/m 12,4 C 21,0 C 9,7 km/h (2 Bft) 100,00 %
14.06.2016 17:40 20,9 C 58 % 999,1 hPa 0,0 l/m 3,8 km/h (1 Bft) S 189 1 min 0,000 mm 1,6 UV-I 451 W/m 12,3 C 20,9 C 6,4 km/h (2 Bft) 100,00 %
14.06.2016 17:41 20,9 C 58 % 999,0 hPa 0,0 l/m 1,8 km/h (1 Bft) S 188 1 min 0,000 mm 1,6 UV-I 475 W/m 12,3 C 20,9 C 4,8 km/h (1 Bft) 100,00 %
14.06.2016 17:42 20,9 C 62 % 999,1 hPa 0,0 l/m 3,0 km/h (1 Bft) SW 214 1 min 0,000 mm 1,6 UV-I 482 W/m 13,3 C 20,9 C 4,8 km/h (1 Bft) 95,65 %
14.06.2016 17:43 21,0 C 61 % 999,0 hPa 0,0 l/m 0,7 km/h (0 Bft) SW 214 1 min 0,000 mm 1,6 UV-I 454 W/m 13,2 C 21,0 C 3,2 km/h (1 Bft) 95,83 %
14.06.2016 17:44 21,1 C 58 % 999,0 hPa 0,0 l/m 1,9 km/h (1 Bft) S 175 1 min 0,000 mm 1,5 UV-I 420 W/m 12,5 C 21,1 C 6,4 km/h (2 Bft) 100,00 %
14.06.2016 17:45 21,1 C 59 % 998,9 hPa 0,0 l/m 4,4 km/h (1 Bft) S 169 1 min 0,000 mm 1,5 UV-I 432 W/m 12,8 C 21,1 C 8,0 km/h (2 Bft) 100,00 %
14.06.2016 17:46 21,1 C 58 % 998,9 hPa 0,0 l/m 3,1 km/h (1 Bft) S-SO 157 1 min 0,000 mm 1,5 UV-I 426 W/m 12,5 C 21,1 C 6,4 km/h (2 Bft) 100,00 %
14.06.2016 17:47 21,0 C 58 % 998,9 hPa 0,0 l/m 0,8 km/h (0 Bft) S-SO 154 1 min 0,000 mm 1,4 UV-I 438 W/m 12,4 C 21,0 C 3,2 km/h (1 Bft) 95,83 %
14.06.2016 17:48 21,0 C 58 % 998,9 hPa 0,0 l/m 4,0 km/h (1 Bft) SO 134 1 min 0,000 mm 1,5 UV-I 449 W/m 12,4 C 21,0 C 6,4 km/h (2 Bft) 100,00 %
14.06.2016 17:49 20,9 C 60 % 998,9 hPa 0,0 l/m 3,3 km/h (1 Bft) SO 135 1 min 0,000 mm 1,4 UV-I 438 W/m 12,8 C 20,9 C 6,4 km/h (2 Bft) 100,00 %
14.06.2016 17:50 20,9 C 59 % 998,9 hPa 0,0 l/m 1,0 km/h (0 Bft) SO 135 1 min 0,000 mm 1,4 UV-I 457 W/m 12,6 C 20,9 C 1,6 km/h (1 Bft) 100,00 %
14.06.2016 17:51 21,0 C 59 % 998,8 hPa 0,0 l/m 0,3 km/h (0 Bft) SO 135 1 min 0,000 mm 1,4 UV-I 467 W/m 12,7 C 21,0 C 1,6 km/h (1 Bft) 100,00 %
14.06.2016 17:52 21,1 C 61 % 998,8 hPa 0,0 l/m 0,1 km/h (0 Bft) SO 135 1 min 0,000 mm 1,4 UV-I 465 W/m 13,3 C 21,1 C 1,6 km/h (1 Bft) 100,00 %
14.06.2016 17:53 21,1 C 60 % 998,9 hPa 0,0 l/m 0,0 km/h (0 Bft) SO 135 1 min 0,000 mm 1,4 UV-I 474 W/m 13,0 C 21,1 C 0,0 km/h (0 Bft) 100,00 %
14.06.2016 17:54 21,2 C 61 % 998,9 hPa 0,0 l/m 0,2 km/h (0 Bft) SO 135 1 min 0,000 mm 1,3 UV-I 466 W/m 13,4 C 21,2 C 1,6 km/h (1 Bft) 100,00 %
14.06.2016 17:55 21,3 C 62 % 998,9 hPa 0,0 l/m 0,9 km/h (0 Bft) SW 229 1 min 0,000 mm 1,3 UV-I 453 W/m 13,7 C 21,3 C 3,2 km/h (1 Bft) 100,00 %
14.06.2016 17:56 21,4 C 61 % 998,8 hPa 0,0 l/m 2,2 km/h (1 Bft) W-SW 252 1 min 0,000 mm 1,3 UV-I 450 W/m 13,6 C 21,4 C 4,8 km/h (1 Bft) 100,00 %
14.06.2016 17:57 21,4 C 59 % 998,9 hPa 0,0 l/m 2,3 km/h (1 Bft) W 280 1 min 0,000 mm 1,3 UV-I 433 W/m 13,0 C 21,4 C 3,2 km/h (1 Bft) 100,00 %
14.06.2016 17:58 21,4 C 58 % 998,8 hPa 0,0 l/m 1,4 km/h (1 Bft) W 274 1 min 0,000 mm 1,3 UV-I 430 W/m 12,8 C 21,4 C 3,2 km/h (1 Bft) 100,00 %
14.06.2016 17:59 21,4 C 57 % 998,8 hPa 0,0 l/m 7,2 km/h (2 Bft) W-NW 285 1 min 0,000 mm 1,3 UV-I 415 W/m 12,5 C 21,1 C 11,3 km/h (2 Bft) 98,75 %
14.06.2016 18:00 21,4 C 57 % 998,8 hPa 0,0 l/m 6,7 km/h (2 Bft) W 266 1 min 0,000 mm 1,2 UV-I 394 W/m 12,5 C 21,3 C 11,3 km/h (2 Bft) 100,00 %
14.06.2016 18:01 21,3 C 57 % 998,8 hPa 0,0 l/m 4,4 km/h (1 Bft) SW 219 1 min 0,305 mm 1,1 UV-I 350 W/m 12,4 C 21,3 C 6,4 km/h (2 Bft) 100,00 %
14.06.2016 18:02 21,3 C 61 % 998,8 hPa 0,0 l/m 4,3 km/h (1 Bft) S 180 1 min 0,000 mm 1,1 UV-I 331 W/m 13,5 C 21,3 C 6,4 km/h (2 Bft) 96,30 %
14.06.2016 18:03 21,3 C 58 % 998,8 hPa 0,0 l/m 1,9 km/h (1 Bft) S 180 1 min 0,000 mm 1,1 UV-I 316 W/m 12,7 C 21,3 C 3,2 km/h (1 Bft) 100,00 %
14.06.2016 18:04 21,2 C 61 % 998,8 hPa 0,0 l/m 3,7 km/h (1 Bft) S-SW 202 1 min 0,000 mm 1,1 UV-I 323 W/m 13,4 C 21,2 C 6,4 km/h (2 Bft) 96,30 %
14.06.2016 18:05 21,2 C 60 % 998,8 hPa 0,0 l/m 4,9 km/h (1 Bft) W-SW 244 1 min 0,000 mm 1,1 UV-I 315 W/m 13,1 C 21,2 C 8,0 km/h (2 Bft) 100,00 %
14.06.2016 18:06 21,2 C 63 % 998,8 hPa 0,0 l/m 2,8 km/h (1 Bft) W-SW 237 1 min 0,000 mm 1,0 UV-I 317 W/m 13,9 C 21,2 C 6,4 km/h (2 Bft) 100,00 %
14.06.2016 18:07 21,2 C 60 % 998,8 hPa 0,0 l/m 1,2 km/h (1 Bft) SW 230 1 min 0,000 mm 1,0 UV-I 338 W/m 13,1 C 21,2 C 3,2 km/h (1 Bft) 100,00 %
14.06.2016 18:08 21,2 C 62 % 998,8 hPa 0,0 l/m 2,7 km/h (1 Bft) W-NW 284 1 min 0,000 mm 1,0 UV-I 346 W/m 13,6 C 21,2 C 4,8 km/h (1 Bft) 100,00 %
14.06.2016 18:09 21,2 C 58 % 998,8 hPa 0,0 l/m 3,2 km/h (1 Bft) W 264 1 min 0,000 mm 1,0 UV-I 378 W/m 12,6 C 21,2 C 6,4 km/h (2 Bft) 100,00 %
14.06.2016 18:10 21,2 C 58 % 998,7 hPa 0,0 l/m 4,5 km/h (1 Bft) W 261 1 min 0,000 mm 1,0 UV-I 342 W/m 12,6 C 21,2 C 6,4 km/h (2 Bft) 100,00 %
14.06.2016 18:11 21,2 C 57 % 998,7 hPa 0,0 l/m 3,4 km/h (1 Bft) W 261 1 min 0,000 mm 1,0 UV-I 309 W/m 12,3 C 21,2 C 4,8 km/h (1 Bft) 100,00 %
14.06.2016 18:12 21,3 C 58 % 998,8 hPa 0,0 l/m 2,0 km/h (1 Bft) W 261 1 min 0,000 mm 1,0 UV-I 412 W/m 12,7 C 21,3 C 3,2 km/h (1 Bft) 100,00 %
14.06.2016 18:13 21,3 C 59 % 998,7 hPa 0,0 l/m 1,3 km/h (1 Bft) W 265 1 min 0,000 mm 1,0 UV-I 436 W/m 13,0 C 21,3 C 3,2 km/h (1 Bft) 100,00 %
14.06.2016 18:14 21,3 C 62 % 998,7 hPa 0,0 l/m 1,2 km/h (1 Bft) W-NW 283 1 min 0,000 mm 1,0 UV-I 459 W/m 13,7 C 21,3 C 3,2 km/h (1 Bft) 100,00 %
14.06.2016 18:15 21,3 C 56 % 998,7 hPa 0,0 l/m 1,6 km/h (1 Bft) NW 312 1 min 0,000 mm 0,9 UV-I 448 W/m 12,2 C 21,3 C 4,8 km/h (1 Bft) 100,00 %
14.06.2016 18:16 21,3 C 57 % 998,7 hPa 0,0 l/m 2,4 km/h (1 Bft) W-NW 300 1 min 0,000 mm 0,9 UV-I 314 W/m 12,4 C 21,3 C 4,8 km/h (1 Bft) 96,55 %
14.06.2016 18:17 21,2 C 56 % 998,7 hPa 0,0 l/m 1,9 km/h (1 Bft) W-NW 300 1 min 0,000 mm 0,9 UV-I 298 W/m 12,1 C 21,2 C 3,2 km/h (1 Bft) 100,00 %
14.06.2016 18:18 21,2 C 57 % 998,7 hPa 0,0 l/m 0,9 km/h (0 Bft) W-NW 300 1 min 0,000 mm 0,9 UV-I 284 W/m 12,3 C 21,2 C 1,6 km/h (1 Bft) 100,00 %
14.06.2016 18:19 21,2 C 58 % 998,7 hPa 0,0 l/m 1,1 km/h (1 Bft) NW 304 1 min 0,000 mm 0,9 UV-I 300 W/m 12,6 C 21,2 C 3,2 km/h (1 Bft) 100,00 %
14.06.2016 18:20 21,2 C 62 % 998,7 hPa 0,0 l/m 1,6 km/h (1 Bft) N-NW 345 1 min 0,000 mm 0,8 UV-I 252 W/m 13,6 C 21,2 C 3,2 km/h (1 Bft) 100,00 %
14.06.2016 18:21 21,1 C 63 % 998,7 hPa 0,0 l/m 3,3 km/h (1 Bft) N-NO 14 1 min 0,000 mm 0,8 UV-I 250 W/m 13,8 C 21,1 C 6,4 km/h (2 Bft) 100,00 %
14.06.2016 18:22 21,0 C 59 % 998,7 hPa 0,0 l/m 4,7 km/h (1 Bft) N-NO 17 1 min 0,000 mm 0,8 UV-I 253 W/m 12,7 C 21,0 C 6,4 km/h (2 Bft) 100,00 %
14.06.2016 18:23 20,9 C 62 % 998,6 hPa 0,0 l/m 1,3 km/h (1 Bft) N-NO 17 1 min 0,000 mm 0,8 UV-I 249 W/m 13,3 C 20,9 C 3,2 km/h (1 Bft) 100,00 %
14.06.2016 18:24 20,9 C 63 % 998,7 hPa 0,0 l/m 1,2 km/h (1 Bft) N-NO 17 1 min 0,000 mm 0,8 UV-I 246 W/m 13,6 C 20,9 C 3,2 km/h (1 Bft) 95,65 %
14.06.2016 18:25 20,9 C 63 % 998,6 hPa 0,0 l/m 4,4 km/h (1 Bft) N-NO 18 1 min 0,000 mm 0,8 UV-I 289 W/m 13,6 C 20,9 C 6,4 km/h (2 Bft) 100,00 %
14.06.2016 18:26 20,9 C 64 % 998,6 hPa 0,0 l/m 3,5 km/h (1 Bft) N-NO 19 1 min 0,000 mm 0,8 UV-I 296 W/m 13,8 C 20,9 C 4,8 km/h (1 Bft) 90,91 %
14.06.2016 18:27 20,9 C 65 % 998,7 hPa 0,0 l/m 4,2 km/h (1 Bft) N-NO 20 1 min 0,000 mm 0,8 UV-I 342 W/m 14,1 C 20,9 C 4,8 km/h (1 Bft) 100,00 %
14.06.2016 18:28 20,9 C 62 % 998,6 hPa 0,0 l/m 3,1 km/h (1 Bft) N-NO 20 1 min 0,000 mm 0,8 UV-I 338 W/m 13,3 C 20,9 C 3,2 km/h (1 Bft) 100,00 %
14.06.2016 18:29 21,0 C 62 % 998,7 hPa 0,0 l/m 1,9 km/h (1 Bft) N-NO 20 1 min 0,000 mm 0,7 UV-I 300 W/m 13,4 C 21,0 C 3,2 km/h (1 Bft) 100,00 %
14.06.2016 18:30 21,1 C 59 % 998,7 hPa 0,0 l/m 3,5 km/h (1 Bft) N-NO 32 1 min 0,000 mm 0,8 UV-I 306 W/m 12,8 C 21,1 C 4,8 km/h (1 Bft) 100,00 %
14.06.2016 18:31 21,0 C 59 % 998,7 hPa 0,0 l/m 1,5 km/h (1 Bft) N-NO 32 1 min 0,000 mm 0,7 UV-I 211 W/m 12,7 C 21,0 C 3,2 km/h (1 Bft) 100,00 %
14.06.2016 18:32 21,0 C 59 % 998,6 hPa 0,0 l/m 3,3 km/h (1 Bft) N-NO 32 0 min 0,000 mm 0,6 UV-I 160 W/m 12,7 C 21,0 C 4,8 km/h (1 Bft) 100,00 %
14.06.2016 18:33 20,9 C 61 % 998,7 hPa 0,0 l/m 2,5 km/h (1 Bft) N-NO 32 0 min 0,000 mm 0,6 UV-I 162 W/m 13,1 C 20,9 C 4,8 km/h (1 Bft) 100,00 %
14.06.2016 18:34 20,9 C 59 % 998,7 hPa 0,0 l/m 0,6 km/h (0 Bft) N-NO 28 0 min 0,000 mm 0,6 UV-I 155 W/m 12,6 C 20,9 C 1,6 km/h (1 Bft) 100,00 %
14.06.2016 18:35 20,9 C 61 % 998,7 hPa 0,0 l/m 1,7 km/h (1 Bft) N 9 0 min 0,000 mm 0,6 UV-I 149 W/m 13,1 C 20,9 C 3,2 km/h (1 Bft) 100,00 %
14.06.2016 18:36 20,8 C 61 % 998,6 hPa 0,0 l/m 0,9 km/h (0 Bft) N 9 0 min 0,000 mm 0,6 UV-I 169 W/m 13,0 C 20,8 C 3,2 km/h (1 Bft) 100,00 %
14.06.2016 18:37 20,8 C 63 % 998,6 hPa 0,0 l/m 1,5 km/h (1 Bft) N-NO 15 0 min 0,000 mm 0,6 UV-I 189 W/m 13,5 C 20,8 C 3,2 km/h (1 Bft) 100,00 %
14.06.2016 18:38 20,8 C 62 % 998,6 hPa 0,0 l/m 2,5 km/h (1 Bft) N-NO 15 0 min 0,000 mm 0,6 UV-I 183 W/m 13,2 C 20,8 C 3,2 km/h (1 Bft) 100,00 %
14.06.2016 18:39 20,7 C 62 % 998,7 hPa 0,0 l/m 1,8 km/h (1 Bft) N 11 0 min 0,000 mm 0,6 UV-I 180 W/m 13,2 C 20,7 C 3,2 km/h (1 Bft) 100,00 %
14.06.2016 18:40 20,7 C 64 % 998,6 hPa 0,0 l/m 0,5 km/h (0 Bft) N 11 0 min 0,000 mm 0,6 UV-I 180 W/m 13,6 C 20,7 C 1,6 km/h (1 Bft) 100,00 %
14.06.2016 18:41 20,6 C 67 % 998,7 hPa 0,0 l/m 0,5 km/h (0 Bft) N 11 0 min 0,000 mm 0,5 UV-I 178 W/m 14,3 C 20,6 C 1,6 km/h (1 Bft) 96,15 %
14.06.2016 18:42 20,5 C 67 % 998,7 hPa 0,0 l/m 1,4 km/h (1 Bft) N 11 0 min 0,000 mm 0,5 UV-I 171 W/m 14,2 C 20,5 C 3,2 km/h (1 Bft) 100,00 %
14.06.2016 18:43 20,4 C 65 % 998,7 hPa 0,0 l/m 0,0 km/h (0 Bft) N 11 0 min 0,000 mm 0,5 UV-I 168 W/m 13,6 C 20,4 C 0,0 km/h (0 Bft) 100,00 %
14.06.2016 18:44 20,4 C 66 % 998,7 hPa 0,0 l/m 0,3 km/h (0 Bft) N 11 0 min 0,000 mm 0,5 UV-I 165 W/m 13,8 C 20,4 C 1,6 km/h (1 Bft) 100,00 %
14.06.2016 18:45 20,3 C 65 % 998,7 hPa 0,0 l/m 0,1 km/h (0 Bft) N 11 0 min 0,000 mm 0,5 UV-I 166 W/m 13,5 C 20,3 C 1,6 km/h (1 Bft) 100,00 %
14.06.2016 18:46 20,3 C 66 % 998,7 hPa 0,0 l/m 0,5 km/h (0 Bft) N 11 0 min 0,000 mm 0,5 UV-I 175 W/m 13,7 C 20,3 C 1,6 km/h (1 Bft) 96,67 %
14.06.2016 18:47 20,4 C 64 % 998,7 hPa 0,0 l/m 0,6 km/h (0 Bft) N 11 0 min 0,000 mm 0,5 UV-I 179 W/m 13,4 C 20,4 C 1,6 km/h (1 Bft) 100,00 %
14.06.2016 18:48 20,4 C 65 % 998,7 hPa 0,0 l/m 1,1 km/h (1 Bft) N 11 0 min 0,000 mm 0,5 UV-I 176 W/m 13,6 C 20,4 C 1,6 km/h (1 Bft) 100,00 %
14.06.2016 18:49 20,4 C 65 % 998,7 hPa 0,0 l/m 2,7 km/h (1 Bft) N 11 0 min 0,000 mm 0,5 UV-I 171 W/m 13,6 C 20,4 C 3,2 km/h (1 Bft) 100,00 %
14.06.2016 18:50 20,4 C 66 % 998,7 hPa 0,0 l/m 0,6 km/h (0 Bft) N 11 1 min 0,000 mm 0,5 UV-I 183 W/m 13,8 C 20,4 C 1,6 km/h (1 Bft) 100,00 %
14.06.2016 18:51 20,4 C 64 % 998,7 hPa 0,0 l/m 0,0 km/h (0 Bft) N 11 1 min 0,000 mm 0,5 UV-I 195 W/m 13,4 C 20,4 C 0,0 km/h (0 Bft) 100,00 %
14.06.2016 18:52 20,4 C 63 % 998,7 hPa 0,0 l/m 0,0 km/h (0 Bft) N 11 1 min 0,000 mm 0,5 UV-I 199 W/m 13,1 C 20,4 C 0,0 km/h (0 Bft) 95,83 %
14.06.2016 18:53 20,4 C 63 % 998,8 hPa 0,0 l/m 0,0 km/h (0 Bft) N 11 1 min 0,000 mm 0,5 UV-I 191 W/m 13,1 C 20,4 C 0,0 km/h (0 Bft) 100,00 %
14.06.2016 18:54 20,4 C 63 % 998,8 hPa 0,0 l/m 0,5 km/h (0 Bft) N 11 1 min 0,000 mm 0,5 UV-I 186 W/m 13,1 C 20,4 C 1,6 km/h (1 Bft) 96,88 %
14.06.2016 18:55 20,4 C 61 % 998,7 hPa 0,0 l/m 1,0 km/h (0 Bft) N-NO 12 0 min 0,000 mm 0,1 UV-I 172 W/m 12,6 C 20,4 C 3,2 km/h (1 Bft) 100,00 %
14.06.2016 18:56 20,4 C 60 % 998,7 hPa 0,0 l/m 0,5 km/h (0 Bft) N-NO 12 1 min 0,000 mm 0,0 UV-I 173 W/m 12,4 C 20,4 C 1,6 km/h (1 Bft) 96,15 %
14.06.2016 18:57 20,5 C 61 % 998,8 hPa 0,0 l/m 0,2 km/h (0 Bft) N-NO 12 1 min 0,000 mm 0,0 UV-I 170 W/m 12,7 C 20,5 C 1,6 km/h (1 Bft) 95,83 %
14.06.2016 18:58 20,5 C 62 % 998,8 hPa 0,0 l/m 0,0 km/h (0 Bft) N-NO 12 0 min 0,000 mm 0,0 UV-I 165 W/m 13,0 C 20,5 C 0,0 km/h (0 Bft) 100,00 %
14.06.2016 18:59 20,5 C 60 % 998,8 hPa 0,0 l/m 0,3 km/h (0 Bft) N-NO 16 0 min 0,000 mm 0,0 UV-I 163 W/m 12,5 C 20,5 C 1,6 km/h (1 Bft) 96,30 %
14.06.2016 19:00 20,5 C 60 % 998,8 hPa 0,0 l/m 1,9 km/h (1 Bft) SO 124 0 min 0,000 mm 0,0 UV-I 165 W/m 12,5 C 20,5 C 3,2 km/h (1 Bft) 100,00 %
14.06.2016 19:01 20,5 C 60 % 998,8 hPa 0,0 l/m 1,7 km/h (1 Bft) SO 132 1 min 0,152 mm 0,0 UV-I 165 W/m 12,5 C 20,5 C 3,2 km/h (1 Bft) 95,83 %
14.06.2016 19:02 20,5 C 61 % 998,8 hPa 0,0 l/m 2,3 km/h (1 Bft) S-SO 150 1 min 0,000 mm 0,0 UV-I 171 W/m 12,7 C 20,5 C 4,8 km/h (1 Bft) 100,00 %
14.06.2016 19:03 20,5 C 61 % 998,8 hPa 0,0 l/m 4,4 km/h (1 Bft) S-SO 163 1 min 0,000 mm 0,0 UV-I 176 W/m 12,7 C 20,5 C 8,0 km/h (2 Bft) 95,83 %
14.06.2016 19:04 20,5 C 63 % 998,8 hPa 0,0 l/m 2,0 km/h (1 Bft) S-SO 163 1 min 0,000 mm 0,0 UV-I 174 W/m 13,2 C 20,5 C 3,2 km/h (1 Bft) 86,96 %
14.06.2016 19:05 20,5 C 61 % 998,8 hPa 0,0 l/m 3,4 km/h (1 Bft) S-SO 165 1 min 0,000 mm 0,0 UV-I 167 W/m 12,7 C 20,5 C 6,4 km/h (2 Bft) 100,00 %
14.06.2016 19:06 20,4 C 63 % 998,8 hPa 0,0 l/m 3,0 km/h (1 Bft) S-SO 165 1 min 0,000 mm 0,0 UV-I 163 W/m 13,1 C 20,4 C 6,4 km/h (2 Bft) 95,65 %
14.06.2016 19:07 20,4 C 63 % 998,8 hPa 0,0 l/m 3,3 km/h (1 Bft) S-SO 165 1 min 0,000 mm 0,0 UV-I 165 W/m 13,1 C 20,4 C 6,4 km/h (2 Bft) 100,00 %
14.06.2016 19:08 20,5 C 64 % 998,9 hPa 0,0 l/m 3,9 km/h (1 Bft) S-SO 167 1 min 0,000 mm 0,0 UV-I 163 W/m 13,5 C 20,5 C 6,4 km/h (2 Bft) 96,55 %
14.06.2016 19:09 20,4 C 61 % 998,8 hPa 0,0 l/m 3,8 km/h (1 Bft) S-SO 167 1 min 0,000 mm 0,0 UV-I 164 W/m 12,6 C 20,4 C 6,4 km/h (2 Bft) 96,30 %
14.06.2016 19:10 20,4 C 61 % 998,8 hPa 0,0 l/m 1,3 km/h (1 Bft) S-SO 165 1 min 0,000 mm 0,0 UV-I 165 W/m 12,6 C 20,4 C 3,2 km/h (1 Bft) 91,30 %
14.06.2016 19:11 20,4 C 62 % 998,8 hPa 0,0 l/m 3,2 km/h (1 Bft) S 171 1 min 0,000 mm 0,0 UV-I 161 W/m 12,9 C 20,4 C 6,4 km/h (2 Bft) 100,00 %
14.06.2016 19:12 20,4 C 61 % 998,8 hPa 0,0 l/m 2,3 km/h (1 Bft) S 171 1 min 0,000 mm 0,0 UV-I 153 W/m 12,6 C 20,4 C 3,2 km/h (1 Bft) 95,83 %
14.06.2016 19:13 20,4 C 62 % 998,8 hPa 0,0 l/m 2,7 km/h (1 Bft) S 171 0 min 0,000 mm 0,0 UV-I 145 W/m 12,9 C 20,4 C 6,4 km/h (2 Bft) 96,15 %
14.06.2016 19:14 20,4 C 60 % 998,8 hPa 0,0 l/m 3,4 km/h (1 Bft) S 175 0 min 0,000 mm 0,0 UV-I 142 W/m 12,4 C 20,4 C 4,8 km/h (1 Bft) 100,00 %
14.06.2016 19:15 20,4 C 61 % 998,8 hPa 0,0 l/m 3,6 km/h (1 Bft) S 175 0 min 0,000 mm 0,0 UV-I 140 W/m 12,6 C 20,4 C 6,4 km/h (2 Bft) 95,83 %
14.06.2016 19:16 20,4 C 59 % 998,9 hPa 0,0 l/m 4,9 km/h (1 Bft) S 175 0 min 0,000 mm 0,0 UV-I 138 W/m 12,1 C 20,4 C 6,4 km/h (2 Bft) 100,00 %
14.06.2016 19:17 20,4 C 61 % 998,8 hPa 0,0 l/m 4,3 km/h (1 Bft) S 175 0 min 0,000 mm 0,0 UV-I 137 W/m 12,6 C 20,4 C 4,8 km/h (1 Bft) 95,83 %
14.06.2016 19:18 20,3 C 61 % 998,8 hPa 0,0 l/m 4,0 km/h (1 Bft) S 175 0 min 0,000 mm 0,0 UV-I 134 W/m 12,5 C 20,3 C 4,8 km/h (1 Bft) 95,65 %
14.06.2016 19:19 20,3 C 62 % 998,8 hPa 0,0 l/m 2,5 km/h (1 Bft) S 175 0 min 0,000 mm 0,0 UV-I 131 W/m 12,8 C 20,3 C 4,8 km/h (1 Bft) 100,00 %
14.06.2016 19:20 20,3 C 61 % 998,9 hPa 0,0 l/m 1,1 km/h (1 Bft) S 175 0 min 0,000 mm 0,0 UV-I 130 W/m 12,5 C 20,3 C 1,6 km/h (1 Bft) 96,30 %
14.06.2016 19:21 20,3 C 61 % 998,8 hPa 0,0 l/m 0,9 km/h (0 Bft) S 175 0 min 0,000 mm 0,0 UV-I 125 W/m 12,5 C 20,3 C 3,2 km/h (1 Bft) 100,00 %
14.06.2016 19:22 20,3 C 60 % 998,8 hPa 0,0 l/m 0,2 km/h (0 Bft) S 175 0 min 0,000 mm 0,0 UV-I 121 W/m 12,3 C 20,3 C 1,6 km/h (1 Bft) 92,59 %
14.06.2016 19:23 20,3 C 60 % 998,8 hPa 0,0 l/m 1,4 km/h (1 Bft) S 175 0 min 0,000 mm 0,0 UV-I 119 W/m 12,3 C 20,3 C 3,2 km/h (1 Bft) 100,00 %
14.06.2016 19:24 20,3 C 62 % 998,8 hPa 0,0 l/m 1,5 km/h (1 Bft) S 175 0 min 0,000 mm 0,0 UV-I 117 W/m 12,8 C 20,3 C 3,2 km/h (1 Bft) 96,30 %
14.06.2016 19:25 20,3 C 63 % 998,9 hPa 0,0 l/m 2,7 km/h (1 Bft) S 175 0 min 0,000 mm 0,0 UV-I 122 W/m 13,0 C 20,3 C 3,2 km/h (1 Bft) 100,00 %
14.06.2016 19:26 20,3 C 64 % 998,8 hPa 0,0 l/m 2,1 km/h (1 Bft) S 175 1 min 0,000 mm 0,0 UV-I 128 W/m 13,3 C 20,3 C 3,2 km/h (1 Bft) 100,00 %
14.06.2016 19:27 20,3 C 62 % 998,8 hPa 0,0 l/m 1,9 km/h (1 Bft) S 175 1 min 0,000 mm 0,0 UV-I 136 W/m 12,8 C 20,3 C 3,2 km/h (1 Bft) 100,00 %
14.06.2016 19:28 20,3 C 63 % 998,8 hPa 0,0 l/m 3,0 km/h (1 Bft) S 175 1 min 0,000 mm 0,0 UV-I 142 W/m 13,0 C 20,3 C 3,2 km/h (1 Bft) 95,83 %
14.06.2016 19:29 20,3 C 66 % 998,8 hPa 0,0 l/m 2,1 km/h (1 Bft) S 175 1 min 0,000 mm 0,0 UV-I 141 W/m 13,7 C 20,3 C 3,2 km/h (1 Bft) 100,00 %
14.06.2016 19:30 20,3 C 62 % 998,8 hPa 0,0 l/m 0,6 km/h (0 Bft) S 175 1 min 0,000 mm 0,0 UV-I 130 W/m 12,8 C 20,3 C 1,6 km/h (1 Bft) 100,00 %
14.06.2016 19:31 20,3 C 62 % 998,8 hPa 0,0 l/m 0,9 km/h (0 Bft) S 175 1 min 0,000 mm 0,0 UV-I 128 W/m 12,8 C 20,3 C 3,2 km/h (1 Bft) 100,00 %
14.06.2016 19:32 20,3 C 63 % 998,8 hPa 0,0 l/m 3,4 km/h (1 Bft) S 175 1 min 0,000 mm 0,0 UV-I 128 W/m 13,0 C 20,3 C 4,8 km/h (1 Bft) 100,00 %
14.06.2016 19:33 20,3 C 63 % 998,8 hPa 0,0 l/m 3,3 km/h (1 Bft) S 175 1 min 0,000 mm 0,0 UV-I 129 W/m 13,0 C 20,3 C 4,8 km/h (1 Bft) 92,59 %
14.06.2016 19:34 20,3 C 63 % 998,8 hPa 0,0 l/m 1,7 km/h (1 Bft) S 175 1 min 0,000 mm 0,0 UV-I 125 W/m 13,0 C 20,3 C 3,2 km/h (1 Bft) 100,00 %
14.06.2016 19:35 20,3 C 64 % 998,8 hPa 0,0 l/m 2,3 km/h (1 Bft) S 175 1 min 0,000 mm 0,0 UV-I 119 W/m 13,3 C 20,3 C 3,2 km/h (1 Bft) 100,00 %
14.06.2016 19:36 20,3 C 63 % 998,8 hPa 0,0 l/m 1,9 km/h (1 Bft) S 175 0 min 0,000 mm 0,0 UV-I 112 W/m 13,0 C 20,3 C 3,2 km/h (1 Bft) 100,00 %
14.06.2016 19:37 20,3 C 62 % 998,8 hPa 0,0 l/m 1,9 km/h (1 Bft) S 175 0 min 0,000 mm 0,0 UV-I 104 W/m 12,8 C 20,3 C 3,2 km/h (1 Bft) 100,00 %
14.06.2016 19:38 20,3 C 62 % 998,8 hPa 0,0 l/m 1,8 km/h (1 Bft) S 175 0 min 0,000 mm 0,0 UV-I 107 W/m 12,8 C 20,3 C 3,2 km/h (1 Bft) 100,00 %
14.06.2016 19:39 20,3 C 64 % 998,9 hPa 0,0 l/m 2,3 km/h (1 Bft) S 175 0 min 0,000 mm 0,0 UV-I 109 W/m 13,3 C 20,3 C 3,2 km/h (1 Bft) 100,00 %
14.06.2016 19:40 20,3 C 64 % 998,9 hPa 0,0 l/m 3,0 km/h (1 Bft) S 175 1 min 0,000 mm 0,0 UV-I 110 W/m 13,3 C 20,3 C 6,4 km/h (2 Bft) 100,00 %
14.06.2016 19:41 20,2 C 64 % 998,9 hPa 0,0 l/m 2,4 km/h (1 Bft) S 175 0 min 0,000 mm 0,0 UV-I 105 W/m 13,2 C 20,2 C 4,8 km/h (1 Bft) 100,00 %
14.06.2016 19:42 20,2 C 63 % 998,9 hPa 0,0 l/m 3,2 km/h (1 Bft) S 175 0 min 0,000 mm 0,0 UV-I 96 W/m 12,9 C 20,2 C 4,8 km/h (1 Bft) 100,00 %
14.06.2016 19:43 20,2 C 64 % 998,9 hPa 0,0 l/m 2,7 km/h (1 Bft) S 175 0 min 0,000 mm 0,0 UV-I 91 W/m 13,2 C 20,2 C 3,2 km/h (1 Bft) 100,00 %
14.06.2016 19:44 20,2 C 63 % 998,9 hPa 0,0 l/m 1,0 km/h (0 Bft) S 175 0 min 0,000 mm 0,0 UV-I 89 W/m 12,9 C 20,2 C 1,6 km/h (1 Bft) 100,00 %
14.06.2016 19:45 20,2 C 64 % 999,0 hPa 0,0 l/m 2,0 km/h (1 Bft) S 175 0 min 0,000 mm 0,0 UV-I 86 W/m 13,2 C 20,2 C 3,2 km/h (1 Bft) 100,00 %
14.06.2016 19:46 20,2 C 65 % 998,9 hPa 0,0 l/m 1,6 km/h (1 Bft) S 175 0 min 0,000 mm 0,0 UV-I 83 W/m 13,4 C 20,2 C 3,2 km/h (1 Bft) 100,00 %
14.06.2016 19:47 20,1 C 64 % 998,9 hPa 0,0 l/m 1,9 km/h (1 Bft) S 175 0 min 0,000 mm 0,0 UV-I 79 W/m 13,1 C 20,1 C 3,2 km/h (1 Bft) 100,00 %
14.06.2016 19:48 20,1 C 64 % 998,9 hPa 0,0 l/m 2,4 km/h (1 Bft) S 175 0 min 0,000 mm 0,0 UV-I 77 W/m 13,1 C 20,1 C 3,2 km/h (1 Bft) 100,00 %
14.06.2016 19:49 20,1 C 64 % 998,9 hPa 0,0 l/m 3,6 km/h (1 Bft) S 175 0 min 0,000 mm 0,0 UV-I 77 W/m 13,1 C 20,1 C 4,8 km/h (1 Bft) 100,00 %
14.06.2016 19:50 20,1 C 64 % 998,9 hPa 0,0 l/m 2,2 km/h (1 Bft) S 175 0 min 0,000 mm 0,0 UV-I 76 W/m 13,1 C 20,1 C 3,2 km/h (1 Bft) 100,00 %
14.06.2016 19:51 20,1 C 65 % 998,9 hPa 0,0 l/m 1,2 km/h (1 Bft) S 175 0 min 0,000 mm 0,0 UV-I 75 W/m 13,3 C 20,1 C 1,6 km/h (1 Bft) 100,00 %
14.06.2016 19:52 20,1 C 65 % 998,9 hPa 0,0 l/m 1,7 km/h (1 Bft) S 175 0 min 0,000 mm 0,0 UV-I 74 W/m 13,3 C 20,1 C 3,2 km/h (1 Bft) 100,00 %
14.06.2016 19:53 20,1 C 66 % 998,9 hPa 0,0 l/m 2,7 km/h (1 Bft) S 175 0 min 0,000 mm 0,0 UV-I 74 W/m 13,5 C 20,1 C 3,2 km/h (1 Bft) 100,00 %
14.06.2016 19:54 20,0 C 65 % 998,9 hPa 0,0 l/m 2,2 km/h (1 Bft) S 175 0 min 0,000 mm 0,0 UV-I 74 W/m 13,2 C 20,0 C 3,2 km/h (1 Bft) 100,00 %
14.06.2016 19:55 20,0 C 65 % 999,0 hPa 0,0 l/m 2,6 km/h (1 Bft) S 175 0 min 0,000 mm 0,0 UV-I 74 W/m 13,2 C 20,0 C 3,2 km/h (1 Bft) 100,00 %
14.06.2016 19:56 20,0 C 65 % 998,9 hPa 0,0 l/m 1,5 km/h (1 Bft) S 175 0 min 0,000 mm 0,0 UV-I 74 W/m 13,2 C 20,0 C 3,2 km/h (1 Bft) 100,00 %
14.06.2016 19:57 19,9 C 67 % 998,9 hPa 0,0 l/m 2,3 km/h (1 Bft) S 175 0 min 0,000 mm 0,0 UV-I 73 W/m 13,6 C 19,9 C 4,8 km/h (1 Bft) 100,00 %
14.06.2016 19:58 19,9 C 71 % 998,9 hPa 0,0 l/m 1,9 km/h (1 Bft) S 175 0 min 0,000 mm 0,0 UV-I 72 W/m 14,5 C 19,9 C 3,2 km/h (1 Bft) 100,00 %
14.06.2016 19:59 19,9 C 71 % 999,0 hPa 0,0 l/m 0,9 km/h (0 Bft) S 175 0 min 0,000 mm 0,0 UV-I 70 W/m 14,5 C 19,9 C 3,2 km/h (1 Bft) 100,00 %
14.06.2016 20:00 19,8 C 72 % 998,9 hPa 0,0 l/m 2,0 km/h (1 Bft) S 175 0 min 0,077 mm 0,0 UV-I 68 W/m 14,6 C 19,8 C 3,2 km/h (1 Bft) 100,00 %
14.06.2016 20:01 19,8 C 71 % 999,0 hPa 0,0 l/m 1,1 km/h (1 Bft) S 175 0 min 0,000 mm 0,0 UV-I 66 W/m 14,4 C 19,8 C 1,6 km/h (1 Bft) 100,00 %
14.06.2016 20:02 19,7 C 73 % 998,9 hPa 0,0 l/m 2,2 km/h (1 Bft) S 175 0 min 0,000 mm 0,0 UV-I 64 W/m 14,7 C 19,7 C 3,2 km/h (1 Bft) 100,00 %
14.06.2016 20:03 19,7 C 74 % 998,9 hPa 0,0 l/m 3,1 km/h (1 Bft) S 175 0 min 0,000 mm 0,0 UV-I 62 W/m 14,9 C 19,7 C 4,8 km/h (1 Bft) 95,65 %
14.06.2016 20:04 19,6 C 74 % 998,9 hPa 0,0 l/m 3,2 km/h (1 Bft) S 175 0 min 0,000 mm 0,0 UV-I 62 W/m 14,8 C 19,6 C 3,2 km/h (1 Bft) 100,00 %
14.06.2016 20:05 19,4 C 75 % 998,9 hPa 0,0 l/m 3,1 km/h (1 Bft) S 175 0 min 0,000 mm 0,0 UV-I 60 W/m 14,8 C 19,4 C 3,2 km/h (1 Bft) 100,00 %
14.06.2016 20:06 19,3 C 76 % 998,9 hPa 0,0 l/m 2,4 km/h (1 Bft) S 175 0 min 0,000 mm 0,0 UV-I 57 W/m 15,0 C 19,3 C 3,2 km/h (1 Bft) 100,00 %
14.06.2016 20:07 19,2 C 77 % 998,8 hPa 0,0 l/m 2,5 km/h (1 Bft) S 175 0 min 0,000 mm 0,0 UV-I 55 W/m 15,1 C 19,2 C 3,2 km/h (1 Bft) 100,00 %
14.06.2016 20:08 19,1 C 77 % 998,9 hPa 0,0 l/m 2,7 km/h (1 Bft) S 175 0 min 0,000 mm 0,0 UV-I 53 W/m 15,0 C 19,1 C 3,2 km/h (1 Bft) 100,00 %
14.06.2016 20:09 19,0 C 78 % 998,8 hPa 0,0 l/m 2,8 km/h (1 Bft) S 175 0 min 0,000 mm 0,0 UV-I 52 W/m 15,1 C 19,0 C 3,2 km/h (1 Bft) 100,00 %
14.06.2016 20:10 18,9 C 76 % 998,8 hPa 0,0 l/m 3,3 km/h (1 Bft) S 175 0 min 0,000 mm 0,0 UV-I 49 W/m 14,6 C 18,9 C 4,8 km/h (1 Bft) 100,00 %
14.06.2016 20:11 18,8 C 76 % 998,8 hPa 0,0 l/m 3,1 km/h (1 Bft) S 175 0 min 0,000 mm 0,0 UV-I 47 W/m 14,5 C 18,8 C 4,8 km/h (1 Bft) 100,00 %
14.06.2016 20:12 18,8 C 76 % 998,9 hPa 0,0 l/m 2,3 km/h (1 Bft) S 175 0 min 0,000 mm 0,0 UV-I 46 W/m 14,5 C 18,8 C 4,8 km/h (1 Bft) 100,00 %
14.06.2016 20:13 18,8 C 76 % 998,9 hPa 0,0 l/m 2,4 km/h (1 Bft) S 175 0 min 0,000 mm 0,0 UV-I 45 W/m 14,5 C 18,8 C 4,8 km/h (1 Bft) 100,00 %
14.06.2016 20:14 18,8 C 78 % 998,9 hPa 0,0 l/m 1,4 km/h (1 Bft) S 175 0 min 0,000 mm 0,0 UV-I 43 W/m 14,9 C 18,8 C 3,2 km/h (1 Bft) 100,00 %
14.06.2016 20:15 18,8 C 79 % 998,9 hPa 0,0 l/m 1,3 km/h (1 Bft) S 175 0 min 0,000 mm 0,0 UV-I 42 W/m 15,1 C 18,8 C 3,2 km/h (1 Bft) 100,00 %
14.06.2016 20:16 18,8 C 79 % 998,9 hPa 0,0 l/m 1,5 km/h (1 Bft) S 175 0 min 0,000 mm 0,0 UV-I 40 W/m 15,1 C 18,8 C 3,2 km/h (1 Bft) 100,00 %
14.06.2016 20:17 18,8 C 80 % 998,9 hPa 0,0 l/m 0,8 km/h (0 Bft) S 175 0 min 0,000 mm 0,0 UV-I 40 W/m 15,3 C 18,8 C 1,6 km/h (1 Bft) 100,00 %
14.06.2016 20:18 18,8 C 81 % 998,9 hPa 0,0 l/m 0,1 km/h (0 Bft) S 175 0 min 0,000 mm 0,0 UV-I 40 W/m 15,5 C 18,8 C 1,6 km/h (1 Bft) 98,77 %
14.06.2016 20:19 18,8 C 81 % 998,9 hPa 0,0 l/m 0,3 km/h (0 Bft) S 175 0 min 0,000 mm 0,0 UV-I 39 W/m 15,5 C 18,8 C 1,6 km/h (1 Bft) 100,00 %
14.06.2016 20:20 18,8 C 79 % 998,9 hPa 0,0 l/m 0,0 km/h (0 Bft) S 175 0 min 0,000 mm 0,0 UV-I 38 W/m 15,1 C 18,8 C 0,0 km/h (0 Bft) 100,00 %
14.06.2016 20:21 18,8 C 79 % 998,9 hPa 0,0 l/m 0,3 km/h (0 Bft) S 175 0 min 0,000 mm 0,0 UV-I 37 W/m 15,1 C 18,8 C 1,6 km/h (1 Bft) 100,00 %
14.06.2016 20:22 18,8 C 79 % 998,9 hPa 0,0 l/m 0,8 km/h (0 Bft) S 175 0 min 0,000 mm 0,0 UV-I 37 W/m 15,1 C 18,8 C 1,6 km/h (1 Bft) 100,00 %
14.06.2016 20:23 18,7 C 79 % 999,0 hPa 0,0 l/m 0,6 km/h (0 Bft) S 175 0 min 0,000 mm 0,0 UV-I 35 W/m 15,0 C 18,7 C 1,6 km/h (1 Bft) 100,00 %
14.06.2016 20:24 18,7 C 78 % 998,9 hPa 0,0 l/m 0,4 km/h (0 Bft) S 175 0 min 0,000 mm 0,0 UV-I 33 W/m 14,8 C 18,7 C 1,6 km/h (1 Bft) 100,00 %
14.06.2016 20:25 18,7 C 79 % 999,0 hPa 0,0 l/m 0,7 km/h (0 Bft) S 175 0 min 0,000 mm 0,0 UV-I 33 W/m 15,0 C 18,7 C 1,6 km/h (1 Bft) 100,00 %
14.06.2016 20:26 18,7 C 81 % 998,9 hPa 0,0 l/m 1,7 km/h (1 Bft) S 175 0 min 0,000 mm 0,0 UV-I 32 W/m 15,4 C 18,7 C 3,2 km/h (1 Bft) 100,00 %
14.06.2016 20:27 18,6 C 81 % 998,9 hPa 0,0 l/m 2,7 km/h (1 Bft) S 175 0 min 0,000 mm 0,0 UV-I 32 W/m 15,3 C 18,6 C 3,2 km/h (1 Bft) 100,00 %
14.06.2016 20:28 18,6 C 81 % 998,9 hPa 0,0 l/m 3,4 km/h (1 Bft) S 175 0 min 0,000 mm 0,0 UV-I 30 W/m 15,3 C 18,6 C 4,8 km/h (1 Bft) 100,00 %
14.06.2016 20:29 18,5 C 81 % 998,9 hPa 0,0 l/m 3,4 km/h (1 Bft) S 175 0 min 0,000 mm 0,0 UV-I 29 W/m 15,2 C 18,5 C 4,8 km/h (1 Bft) 100,00 %
14.06.2016 20:30 18,5 C 81 % 999,0 hPa 0,0 l/m 3,6 km/h (1 Bft) S 175 0 min 0,000 mm 0,0 UV-I 28 W/m 15,2 C 18,5 C 4,8 km/h (1 Bft) 100,00 %
14.06.2016 20:31 18,4 C 82 % 998,9 hPa 0,0 l/m 3,0 km/h (1 Bft) S 175 0 min 0,000 mm 0,0 UV-I 27 W/m 15,3 C 18,4 C 3,2 km/h (1 Bft) 100,00 %
14.06.2016 20:32 18,3 C 81 % 998,9 hPa 0,0 l/m 2,2 km/h (1 Bft) S 175 0 min 0,000 mm 0,0 UV-I 26 W/m 15,0 C 18,3 C 3,2 km/h (1 Bft) 100,00 %
14.06.2016 20:33 18,3 C 82 % 999,0 hPa 0,0 l/m 2,1 km/h (1 Bft) S 175 0 min 0,000 mm 0,0 UV-I 25 W/m 15,2 C 18,3 C 3,2 km/h (1 Bft) 100,00 %
14.06.2016 20:34 18,2 C 82 % 999,0 hPa 0,0 l/m 1,6 km/h (1 Bft) S 175 0 min 0,000 mm 0,0 UV-I 25 W/m 15,1 C 18,2 C 3,2 km/h (1 Bft) 100,00 %
14.06.2016 20:35 18,2 C 82 % 999,0 hPa 0,0 l/m 0,9 km/h (0 Bft) S 175 0 min 0,000 mm 0,0 UV-I 23 W/m 15,1 C 18,2 C 3,2 km/h (1 Bft) 100,00 %
14.06.2016 20:36 18,1 C 82 % 999,0 hPa 0,0 l/m 0,6 km/h (0 Bft) S 175 0 min 0,000 mm 0,0 UV-I 22 W/m 15,0 C 18,1 C 1,6 km/h (1 Bft) 100,00 %
14.06.2016 20:37 18,1 C 80 % 999,0 hPa 0,0 l/m 0,7 km/h (0 Bft) S 175 0 min 0,000 mm 0,0 UV-I 21 W/m 14,6 C 18,1 C 1,6 km/h (1 Bft) 100,00 %
14.06.2016 20:38 18,1 C 80 % 999,0 hPa 0,0 l/m 0,7 km/h (0 Bft) S 175 0 min 0,000 mm 0,0 UV-I 21 W/m 14,6 C 18,1 C 1,6 km/h (1 Bft) 100,00 %
14.06.2016 20:39 18,1 C 81 % 999,1 hPa 0,0 l/m 0,9 km/h (0 Bft) S 175 0 min 0,000 mm 0,0 UV-I 21 W/m 14,8 C 18,1 C 1,6 km/h (1 Bft) 100,00 %
14.06.2016 20:40 18,1 C 81 % 999,0 hPa 0,0 l/m 1,0 km/h (0 Bft) S 175 0 min 0,000 mm 0,0 UV-I 19 W/m 14,8 C 18,1 C 1,6 km/h (1 Bft) 96,30 %
14.06.2016 20:41 18,1 C 80 % 999,1 hPa 0,0 l/m 0,0 km/h (0 Bft) S 175 0 min 0,000 mm 0,0 UV-I 19 W/m 14,6 C 18,1 C 0,0 km/h (0 Bft) 100,00 %
14.06.2016 20:43 18,1 C 79 % 999,0 hPa 0,0 l/m 0,0 km/h (0 Bft) S 175 0 min 0,000 mm 0,0 UV-I 19 W/m 14,4 C 18,1 C 0,0 km/h (0 Bft) 100,00 %
14.06.2016 20:44 18,2 C 79 % 999,0 hPa 0,0 l/m 0,0 km/h (0 Bft) S 175 0 min 0,000 mm 0,0 UV-I 17 W/m 14,5 C 18,2 C 0,0 km/h (0 Bft) 100,00 %
14.06.2016 20:45 18,2 C 80 % 999,0 hPa 0,0 l/m 0,1 km/h (0 Bft) S 175 0 min 0,000 mm 0,0 UV-I 16 W/m 14,7 C 18,2 C 1,6 km/h (1 Bft) 100,00 %
14.06.2016 20:46 18,2 C 81 % 999,0 hPa 0,0 l/m 0,0 km/h (0 Bft) S 175 0 min 0,000 mm 0,0 UV-I 14 W/m 14,9 C 18,2 C 0,0 km/h (0 Bft) 100,00 %
14.06.2016 20:47 18,2 C 81 % 999,0 hPa 0,0 l/m 0,0 km/h (0 Bft) S 175 0 min 0,000 mm 0,0 UV-I 13 W/m 14,9 C 18,2 C 0,0 km/h (0 Bft) 100,00 %
14.06.2016 20:48 18,2 C 81 % 999,0 hPa 0,0 l/m 0,0 km/h (0 Bft) S 175 0 min 0,000 mm 0,0 UV-I 12 W/m 14,9 C 18,2 C 0,0 km/h (0 Bft) 100,00 %
14.06.2016 20:49 18,2 C 81 % 999,0 hPa 0,0 l/m 0,0 km/h (0 Bft) S 175 0 min 0,000 mm 0,0 UV-I 11 W/m 14,9 C 18,2 C 0,0 km/h (0 Bft) 100,00 %
14.06.2016 20:50 18,1 C 81 % 999,0 hPa 0,0 l/m 0,2 km/h (0 Bft) S 175 0 min 0,000 mm 0,0 UV-I 11 W/m 14,8 C 18,1 C 1,6 km/h (1 Bft) 100,00 %
14.06.2016 20:51 18,1 C 81 % 999,1 hPa 0,0 l/m 0,5 km/h (0 Bft) S 175 0 min 0,000 mm 0,0 UV-I 9 W/m 14,8 C 18,1 C 1,6 km/h (1 Bft) 100,00 %
14.06.2016 20:52 18,1 C 81 % 999,1 hPa 0,0 l/m 0,2 km/h (0 Bft) S 175 1 min 0,000 mm 0,0 UV-I 9 W/m 14,8 C 18,1 C 1,6 km/h (1 Bft) 95,65 %
14.06.2016 20:53 18,1 C 81 % 999,1 hPa 0,0 l/m 0,0 km/h (0 Bft) S 175 0 min 0,000 mm 0,0 UV-I 7 W/m 14,8 C 18,1 C 0,0 km/h (0 Bft) 95,83 %
14.06.2016 20:54 18,1 C 81 % 999,1 hPa 0,0 l/m 0,0 km/h (0 Bft) S 175 0 min 0,000 mm 0,0 UV-I 7 W/m 14,8 C 18,1 C 0,0 km/h (0 Bft) 100,00 %
14.06.2016 20:55 18,1 C 81 % 999,1 hPa 0,0 l/m 0,0 km/h (0 Bft) S 175 0 min 0,000 mm 0,0 UV-I 6 W/m 14,8 C 18,1 C 0,0 km/h (0 Bft) 95,83 %
14.06.2016 20:56 18,1 C 81 % 999,0 hPa 0,0 l/m 0,9 km/h (0 Bft) S 175 0 min 0,000 mm 0,0 UV-I 5 W/m 14,8 C 18,1 C 1,6 km/h (1 Bft) 100,00 %
14.06.2016 20:57 18,1 C 80 % 999,0 hPa 0,0 l/m 0,6 km/h (0 Bft) S 175 0 min 0,000 mm 0,0 UV-I 5 W/m 14,6 C 18,1 C 1,6 km/h (1 Bft) 92,31 %
14.06.2016 20:58 18,0 C 80 % 999,0 hPa 0,0 l/m 1,4 km/h (1 Bft) S 175 0 min 0,000 mm 0,0 UV-I 4 W/m 14,5 C 18,0 C 1,6 km/h (1 Bft) 100,00 %
14.06.2016 20:59 18,0 C 80 % 999,1 hPa 0,0 l/m 2,1 km/h (1 Bft) S 175 0 min 0,000 mm 0,0 UV-I 0 W/m 14,5 C 18,0 C 3,2 km/h (1 Bft) 95,65 %
14.06.2016 21:00 18,0 C 79 % 999,1 hPa 0,0 l/m 2,8 km/h (1 Bft) S 175 0 min 0,000 mm 0,0 UV-I 0 W/m 14,3 C 18,0 C 3,2 km/h (1 Bft) 100,00 %
14.06.2016 21:01 18,0 C 78 % 999,1 hPa 0,0 l/m 3,2 km/h (1 Bft) S 175 0 min 0,025 mm 0,0 UV-I 0 W/m 14,1 C 18,0 C 3,2 km/h (1 Bft) 95,65 %
14.06.2016 21:02 18,0 C 78 % 999,1 hPa 0,0 l/m 4,2 km/h (1 Bft) S 175 0 min 0,000 mm 0,0 UV-I 0 W/m 14,1 C 18,0 C 4,8 km/h (1 Bft) 96,30 %
14.06.2016 21:03 18,0 C 79 % 999,2 hPa 0,0 l/m 1,7 km/h (1 Bft) S 175 0 min 0,000 mm 0,0 UV-I 0 W/m 14,3 C 18,0 C 3,2 km/h (1 Bft) 95,65 %
14.06.2016 21:04 18,0 C 78 % 999,2 hPa 0,0 l/m 3,1 km/h (1 Bft) S-SO 166 0 min 0,000 mm 0,0 UV-I 0 W/m 14,1 C 18,0 C 6,4 km/h (2 Bft) 100,00 %
14.06.2016 21:05 18,0 C 77 % 999,2 hPa 0,0 l/m 7,4 km/h (2 Bft) S 172 0 min 0,000 mm 0,0 UV-I 0 W/m 13,9 C 17,5 C 9,7 km/h (2 Bft) 93,55 %
14.06.2016 21:06 18,1 C 76 % 999,2 hPa 0,0 l/m 6,9 km/h (2 Bft) S-SO 165 0 min 0,000 mm 0,0 UV-I 0 W/m 13,8 C 17,9 C 11,3 km/h (2 Bft) 92,59 %
14.06.2016 21:07 18,1 C 76 % 999,3 hPa 0,0 l/m 5,9 km/h (2 Bft) S-SO 155 0 min 0,000 mm 0,0 UV-I 0 W/m 13,8 C 18,1 C 11,3 km/h (2 Bft) 100,00 %
14.06.2016 21:08 18,2 C 76 % 999,3 hPa 0,0 l/m 7,7 km/h (2 Bft) S 185 0 min 0,000 mm 0,0 UV-I 0 W/m 13,9 C 17,6 C 11,3 km/h (2 Bft) 96,15 %
14.06.2016 21:09 18,2 C 76 % 999,3 hPa 0,0 l/m 6,5 km/h (2 Bft) S 172 0 min 0,000 mm 0,0 UV-I 0 W/m 13,9 C 18,2 C 11,3 km/h (2 Bft) 96,15 %
14.06.2016 21:10 18,2 C 76 % 999,3 hPa 0,0 l/m 7,8 km/h (2 Bft) S 190 0 min 0,000 mm 0,0 UV-I 0 W/m 13,9 C 17,6 C 12,9 km/h (3 Bft) 96,67 %
14.06.2016 21:11 18,2 C 76 % 999,3 hPa 0,0 l/m 9,2 km/h (2 Bft) S 169 0 min 0,000 mm 0,0 UV-I 0 W/m 13,9 C 17,0 C 14,5 km/h (3 Bft) 100,00 %
14.06.2016 21:12 18,2 C 76 % 999,4 hPa 0,0 l/m 10,5 km/h (2 Bft) S-SW 192 0 min 0,000 mm 0,0 UV-I 0 W/m 13,9 C 16,5 C 16,1 km/h (3 Bft) 96,15 %
14.06.2016 21:13 18,3 C 76 % 999,4 hPa 0,0 l/m 12,5 km/h (3 Bft) S-SW 192 0 min 0,000 mm 0,0 UV-I 0 W/m 14,0 C 15,9 C 19,3 km/h (3 Bft) 96,30 %
14.06.2016 21:14 18,3 C 76 % 999,5 hPa 0,0 l/m 12,3 km/h (3 Bft) S-SW 198 0 min 0,000 mm 0,0 UV-I 0 W/m 14,0 C 16,0 C 19,3 km/h (3 Bft) 100,00 %
14.06.2016 21:15 18,3 C 76 % 999,6 hPa 0,0 l/m 16,6 km/h (3 Bft) SW 234 0 min 0,000 mm 0,0 UV-I 0 W/m 14,0 C 14,8 C 38,6 km/h (5 Bft) 95,83 %
14.06.2016 21:16 18,2 C 75 % 999,6 hPa 0,0 l/m 23,9 km/h (4 Bft) S-SO 158 0 min 0,000 mm 0,0 UV-I 0 W/m 13,7 C 13,1 C 32,2 km/h (5 Bft) 100,00 %
14.06.2016 21:17 18,0 C 73 % 999,7 hPa 0,0 l/m 27,1 km/h (4 Bft) S-SW 197 0 min 0,000 mm 0,0 UV-I 0 W/m 13,1 C 12,3 C 37,0 km/h (5 Bft) 96,30 %
14.06.2016 21:18 17,8 C 73 % 999,7 hPa 0,0 l/m 20,5 km/h (4 Bft) S-SW 213 0 min 0,000 mm 0,0 UV-I 0 W/m 12,9 C 13,3 C 29,0 km/h (5 Bft) 100,00 %
14.06.2016 21:19 17,7 C 73 % 999,8 hPa 0,0 l/m 29,2 km/h (5 Bft) W-SW 238 0 min 0,000 mm 0,0 UV-I 0 W/m 12,8 C 11,6 C 37,0 km/h (5 Bft) 96,67 %
14.06.2016 21:20 17,4 C 74 % 999,8 hPa 0,0 l/m 22,4 km/h (4 Bft) SW 231 0 min 0,000 mm 0,0 UV-I 0 W/m 12,7 C 12,3 C 29,0 km/h (5 Bft) 96,15 %
14.06.2016 21:21 17,3 C 74 % 999,9 hPa 0,0 l/m 24,2 km/h (4 Bft) SW 231 0 min 0,000 mm 0,0 UV-I 0 W/m 12,6 C 11,9 C 32,2 km/h (5 Bft) 100,00 %
14.06.2016 21:22 17,1 C 75 % 999,9 hPa 0,0 l/m 22,4 km/h (4 Bft) SO 146 0 min 0,000 mm 0,0 UV-I 0 W/m 12,6 C 11,9 C 30,6 km/h (5 Bft) 92,86 %
14.06.2016 21:23 16,9 C 75 % 999,9 hPa 0,0 l/m 21,5 km/h (4 Bft) W-SW 250 0 min 0,000 mm 0,0 UV-I 0 W/m 12,4 C 11,9 C 29,0 km/h (5 Bft) 100,00 %
14.06.2016 21:24 16,7 C 76 % 1000,0 hPa 0,0 l/m 18,2 km/h (3 Bft) S 175 0 min 0,000 mm 0,0 UV-I 0 W/m 12,4 C 12,4 C 29,0 km/h (5 Bft) 95,65 %
14.06.2016 21:25 16,6 C 76 % 1000,0 hPa 0,0 l/m 19,6 km/h (3 Bft) S 174 0 min 0,000 mm 0,0 UV-I 0 W/m 12,3 C 11,9 C 29,0 km/h (5 Bft) 100,00 %
14.06.2016 21:26 16,4 C 77 % 1000,0 hPa 0,0 l/m 19,1 km/h (3 Bft) S-SW 192 0 min 0,000 mm 0,0 UV-I 0 W/m 12,4 C 11,8 C 33,8 km/h (5 Bft) 100,00 %
14.06.2016 21:27 16,3 C 77 % 1000,1 hPa 0,0 l/m 20,8 km/h (4 Bft) SW 229 0 min 0,000 mm 0,0 UV-I 0 W/m 12,3 C 11,2 C 27,4 km/h (4 Bft) 100,00 %
14.06.2016 21:28 16,2 C 77 % 1000,1 hPa 0,0 l/m 16,3 km/h (3 Bft) S-SW 194 0 min 0,000 mm 0,0 UV-I 0 W/m 12,2 C 12,3 C 27,4 km/h (4 Bft) 100,00 %
14.06.2016 21:29 16,1 C 78 % 1000,1 hPa 0,0 l/m 16,8 km/h (3 Bft) SW 223 0 min 0,000 mm 0,0 UV-I 0 W/m 12,3 C 12,0 C 25,7 km/h (4 Bft) 95,83 %
14.06.2016 21:30 15,9 C 79 % 1000,1 hPa 0,0 l/m 20,7 km/h (4 Bft) W-SW 240 0 min 0,000 mm 0,0 UV-I 0 W/m 12,3 C 10,7 C 32,2 km/h (5 Bft) 100,00 %
14.06.2016 21:31 15,9 C 79 % 1000,2 hPa 0,0 l/m 29,0 km/h (5 Bft) S-SW 194 0 min 0,000 mm 0,0 UV-I 0 W/m 12,3 C 9,1 C 37,0 km/h (5 Bft) 100,00 %
14.06.2016 21:32 15,8 C 80 % 1000,2 hPa 0,0 l/m 18,8 km/h (3 Bft) SW 215 0 min 0,000 mm 0,0 UV-I 0 W/m 12,4 C 11,1 C 24,1 km/h (4 Bft) 100,00 %
14.06.2016 21:33 15,7 C 80 % 1000,2 hPa 0,0 l/m 21,5 km/h (4 Bft) SW 221 0 min 0,000 mm 0,0 UV-I 0 W/m 12,3 C 10,3 C 29,0 km/h (5 Bft) 100,00 %
14.06.2016 21:34 15,6 C 80 % 1000,2 hPa 0,0 l/m 25,7 km/h (4 Bft) SW 232 0 min 0,000 mm 0,0 UV-I 0 W/m 12,2 C 9,3 C 38,6 km/h (5 Bft) 100,00 %
14.06.2016 21:35 15,6 C 81 % 1000,3 hPa 0,0 l/m 23,5 km/h (4 Bft) W-SW 248 0 min 0,000 mm 0,0 UV-I 0 W/m 12,3 C 9,7 C 37,0 km/h (5 Bft) 100,00 %
14.06.2016 21:36 15,5 C 81 % 1000,3 hPa 0,0 l/m 22,4 km/h (4 Bft) S-SW 194 0 min 0,000 mm 0,0 UV-I 0 W/m 12,3 C 9,8 C 35,4 km/h (5 Bft) 100,00 %
14.06.2016 21:37 15,4 C 81 % 1000,3 hPa 0,0 l/m 22,4 km/h (4 Bft) S 183 0 min 0,000 mm 0,0 UV-I 0 W/m 12,2 C 9,7 C 30,6 km/h (5 Bft) 100,00 %
14.06.2016 21:38 15,3 C 82 % 1000,5 hPa 0,0 l/m 23,3 km/h (4 Bft) S-SO 163 0 min 0,000 mm 0,0 UV-I 0 W/m 12,2 C 9,4 C 29,0 km/h (5 Bft) 100,00 %
14.06.2016 21:39 15,3 C 82 % 1000,4 hPa 0,0 l/m 20,2 km/h (4 Bft) W-SW 240 0 min 0,000 mm 0,0 UV-I 0 W/m 12,2 C 10,1 C 38,6 km/h (5 Bft) 100,00 %
14.06.2016 21:40 15,2 C 83 % 1000,4 hPa 0,0 l/m 31,6 km/h (5 Bft) SW 229 0 min 0,000 mm 0,0 UV-I 0 W/m 12,3 C 7,7 C 40,2 km/h (6 Bft) 100,00 %
14.06.2016 21:41 15,2 C 83 % 1000,5 hPa 0,0 l/m 18,6 km/h (3 Bft) SW 224 0 min 0,000 mm 0,0 UV-I 0 W/m 12,3 C 10,4 C 24,1 km/h (4 Bft) 100,00 %
14.06.2016 21:42 15,1 C 83 % 1000,5 hPa 0,0 l/m 19,9 km/h (4 Bft) S-SW 200 0 min 0,000 mm 0,0 UV-I 0 W/m 12,2 C 9,9 C 32,2 km/h (5 Bft) 100,00 %
14.06.2016 21:43 15,1 C 83 % 1000,5 hPa 0,0 l/m 16,3 km/h (3 Bft) W-SW 254 0 min 0,000 mm 0,0 UV-I 0 W/m 12,2 C 10,9 C 27,4 km/h (4 Bft) 100,00 %
14.06.2016 21:44 15,1 C 84 % 1000,5 hPa 0,0 l/m 20,6 km/h (4 Bft) W 263 0 min 0,000 mm 0,0 UV-I 0 W/m 12,4 C 9,7 C 27,4 km/h (4 Bft) 100,00 %
14.06.2016 21:45 15,0 C 84 % 1000,5 hPa 0,0 l/m 13,5 km/h (3 Bft) SW 224 0 min 0,000 mm 0,0 UV-I 0 W/m 12,3 C 11,7 C 24,1 km/h (4 Bft) 100,00 %
14.06.2016 21:46 14,9 C 84 % 1000,5 hPa 0,0 l/m 19,3 km/h (3 Bft) S-SW 202 0 min 0,000 mm 0,0 UV-I 0 W/m 12,2 C 9,8 C 32,2 km/h (5 Bft) 100,00 %
14.06.2016 21:47 14,9 C 85 % 1000,5 hPa 0,0 l/m 23,5 km/h (4 Bft) W 269 0 min 0,000 mm 0,0 UV-I 0 W/m 12,4 C 8,8 C 32,2 km/h (5 Bft) 100,00 %
14.06.2016 21:48 14,9 C 85 % 1000,5 hPa 0,0 l/m 21,9 km/h (4 Bft) S 180 0 min 0,000 mm 0,0 UV-I 0 W/m 12,4 C 9,2 C 29,0 km/h (5 Bft) 100,00 %
14.06.2016 21:49 14,9 C 85 % 1000,5 hPa 0,0 l/m 23,1 km/h (4 Bft) S-SO 159 0 min 0,000 mm 0,0 UV-I 0 W/m 12,4 C 8,9 C 37,0 km/h (5 Bft) 96,15 %
14.06.2016 21:50 14,9 C 86 % 1000,6 hPa 0,0 l/m 24,8 km/h (4 Bft) S-SW 198 0 min 0,000 mm 0,0 UV-I 0 W/m 12,6 C 8,5 C 35,4 km/h (5 Bft) 98,77 %
14.06.2016 21:51 14,8 C 86 % 1000,6 hPa 0,0 l/m 20,4 km/h (4 Bft) SW 225 0 min 0,000 mm 0,0 UV-I 0 W/m 12,5 C 9,4 C 32,2 km/h (5 Bft) 100,00 %
14.06.2016 21:52 14,8 C 86 % 1000,6 hPa 0,0 l/m 17,5 km/h (3 Bft) SW 215 0 min 0,000 mm 0,0 UV-I 0 W/m 12,5 C 10,2 C 24,1 km/h (4 Bft) 100,00 %
14.06.2016 21:53 14,7 C 87 % 1000,7 hPa 0,2 l/m 24,3 km/h (4 Bft) W-SW 252 0 min 0,000 mm 0,0 UV-I 0 W/m 12,6 C 8,3 C 35,4 km/h (5 Bft) 100,00 %
14.06.2016 21:54 14,7 C 87 % 1000,7 hPa 0,2 l/m 14,1 km/h (3 Bft) S-SO 147 0 min 0,000 mm 0,0 UV-I 0 W/m 12,6 C 11,1 C 19,3 km/h (3 Bft) 100,00 %
14.06.2016 21:55 14,7 C 87 % 1000,7 hPa 0,0 l/m 15,4 km/h (3 Bft) S-SW 204 0 min 0,000 mm 0,0 UV-I 0 W/m 12,6 C 10,7 C 22,5 km/h (4 Bft) 100,00 %
14.06.2016 21:56 14,6 C 88 % 1000,8 hPa 0,0 l/m 18,0 km/h (3 Bft) SW 221 0 min 0,000 mm 0,0 UV-I 0 W/m 12,6 C 9,8 C 24,1 km/h (4 Bft) 100,00 %
14.06.2016 21:57 14,6 C 88 % 1000,8 hPa 0,2 l/m 19,3 km/h (3 Bft) SW 232 0 min 0,000 mm 0,0 UV-I 0 W/m 12,6 C 9,4 C 35,4 km/h (5 Bft) 100,00 %
14.06.2016 21:58 14,5 C 89 % 1000,8 hPa 0,2 l/m 16,1 km/h (3 Bft) SW 233 0 min 0,000 mm 0,0 UV-I 0 W/m 12,7 C 10,2 C 29,0 km/h (5 Bft) 100,00 %
14.06.2016 21:59 14,4 C 89 % 1000,8 hPa 0,0 l/m 15,2 km/h (3 Bft) S 184 0 min 0,000 mm 0,0 UV-I 0 W/m 12,6 C 10,4 C 22,5 km/h (4 Bft) 100,00 %
14.06.2016 22:00 14,3 C 89 % 1000,8 hPa 0,2 l/m 18,6 km/h (3 Bft) SW 236 0 min 0,000 mm 0,0 UV-I 0 W/m 12,5 C 9,2 C 30,6 km/h (5 Bft) 100,00 %
14.06.2016 22:02 14,2 C 90 % 1000,8 hPa 0,6 l/m 15,7 km/h (3 Bft) S 185 0 min 0,051 mm 0,0 UV-I 0 W/m 12,6 C 10,0 C 22,5 km/h (4 Bft) 100,00 %
14.06.2016 22:03 14,2 C 90 % 1000,8 hPa 0,2 l/m 25,0 km/h (4 Bft) S-SW 211 0 min 0,000 mm 0,0 UV-I 0 W/m 12,6 C 7,5 C 35,4 km/h (5 Bft) 100,00 %
14.06.2016 22:04 14,2 C 90 % 1000,9 hPa 0,0 l/m 18,7 km/h (3 Bft) SW 235 0 min 0,000 mm 0,0 UV-I 0 W/m 12,6 C 9,1 C 22,5 km/h (4 Bft) 100,00 %
14.06.2016 22:05 14,1 C 90 % 1000,9 hPa 0,2 l/m 14,8 km/h (3 Bft) W-SW 248 0 min 0,000 mm 0,0 UV-I 0 W/m 12,5 C 10,2 C 20,9 km/h (4 Bft) 100,00 %
14.06.2016 22:06 14,1 C 91 % 1000,9 hPa 0,2 l/m 16,6 km/h (3 Bft) SW 225 0 min 0,000 mm 0,0 UV-I 0 W/m 12,7 C 9,6 C 24,1 km/h (4 Bft) 88,89 %
14.06.2016 22:07 14,1 C 91 % 1001,0 hPa 0,0 l/m 13,4 km/h (3 Bft) SW 229 0 min 0,000 mm 0,0 UV-I 0 W/m 12,7 C 10,7 C 19,3 km/h (3 Bft) 100,00 %
14.06.2016 22:08 14,0 C 91 % 1001,0 hPa 0,2 l/m 11,4 km/h (2 Bft) W-SW 256 0 min 0,000 mm 0,0 UV-I 0 W/m 12,6 C 11,4 C 14,5 km/h (3 Bft) 100,00 %
14.06.2016 22:09 13,9 C 91 % 1000,9 hPa 0,2 l/m 17,8 km/h (3 Bft) S-SW 211 0 min 0,000 mm 0,0 UV-I 0 W/m 12,5 C 9,0 C 22,5 km/h (4 Bft) 100,00 %
14.06.2016 22:10 13,9 C 92 % 1001,0 hPa 0,2 l/m 12,9 km/h (3 Bft) SW 215 0 min 0,000 mm 0,0 UV-I 0 W/m 12,6 C 10,6 C 16,1 km/h (3 Bft) 100,00 %
14.06.2016 22:11 13,9 C 92 % 1001,0 hPa 0,0 l/m 12,3 km/h (3 Bft) S-SW 207 0 min 0,000 mm 0,0 UV-I 0 W/m 12,6 C 10,9 C 17,7 km/h (3 Bft) 100,00 %
14.06.2016 22:12 13,9 C 92 % 1001,0 hPa 0,2 l/m 14,1 km/h (3 Bft) S-SW 209 0 min 0,000 mm 0,0 UV-I 0 W/m 12,6 C 10,2 C 19,3 km/h (3 Bft) 91,30 %
14.06.2016 22:13 13,8 C 92 % 1001,0 hPa 0,2 l/m 16,5 km/h (3 Bft) SW 232 0 min 0,000 mm 0,0 UV-I 0 W/m 12,5 C 9,2 C 20,9 km/h (4 Bft) 100,00 %
14.06.2016 22:14 13,8 C 92 % 1001,0 hPa 0,2 l/m 14,1 km/h (3 Bft) SW 221 0 min 0,000 mm 0,0 UV-I 0 W/m 12,5 C 10,1 C 22,5 km/h (4 Bft) 100,00 %
14.06.2016 22:15 13,8 C 92 % 1001,0 hPa 0,2 l/m 13,7 km/h (3 Bft) SW 217 0 min 0,000 mm 0,0 UV-I 0 W/m 12,5 C 10,2 C 19,3 km/h (3 Bft) 100,00 %
14.06.2016 22:16 13,8 C 93 % 1001,0 hPa 0,0 l/m 12,7 km/h (3 Bft) W-SW 250 0 min 0,000 mm 0,0 UV-I 0 W/m 12,7 C 10,6 C 19,3 km/h (3 Bft) 100,00 %
14.06.2016 22:17 13,8 C 93 % 1001,0 hPa 0,2 l/m 12,8 km/h (3 Bft) W-SW 240 0 min 0,000 mm 0,0 UV-I 0 W/m 12,7 C 10,6 C 20,9 km/h (4 Bft) 100,00 %
14.06.2016 22:18 13,8 C 93 % 1001,0 hPa 0,0 l/m 16,7 km/h (3 Bft) W-SW 242 0 min 0,000 mm 0,0 UV-I 0 W/m 12,7 C 9,2 C 22,5 km/h (4 Bft) 74,07 %
14.06.2016 22:19 13,8 C 93 % 1001,0 hPa 0,2 l/m 10,1 km/h (2 Bft) S 187 0 min 0,000 mm 0,0 UV-I 0 W/m 12,7 C 11,7 C 17,7 km/h (3 Bft) 86,21 %
14.06.2016 22:20 13,7 C 93 % 1001,0 hPa 0,0 l/m 13,1 km/h (3 Bft) SW 223 0 min 0,000 mm 0,0 UV-I 0 W/m 12,6 C 10,3 C 20,9 km/h (4 Bft) 96,30 %
14.06.2016 22:21 13,7 C 93 % 1001,0 hPa 0,2 l/m 16,1 km/h (3 Bft) W-SW 242 0 min 0,000 mm 0,0 UV-I 0 W/m 12,6 C 9,2 C 22,5 km/h (4 Bft) 100,00 %
14.06.2016 22:22 13,7 C 93 % 1001,0 hPa 0,0 l/m 14,1 km/h (3 Bft) SW 232 0 min 0,000 mm 0,0 UV-I 0 W/m 12,6 C 9,9 C 24,1 km/h (4 Bft) 76,67 %
14.06.2016 22:23 13,7 C 93 % 1001,0 hPa 0,0 l/m 17,3 km/h (3 Bft) SW 226 0 min 0,000 mm 0,0 UV-I 0 W/m 12,6 C 8,9 C 22,5 km/h (4 Bft) 88,46 %
14.06.2016 22:24 13,7 C 93 % 1001,0 hPa 0,2 l/m 13,6 km/h (3 Bft) SW 236 0 min 0,000 mm 0,0 UV-I 0 W/m 12,6 C 10,1 C 20,9 km/h (4 Bft) 100,00 %
14.06.2016 22:25 13,7 C 94 % 1001,0 hPa 0,0 l/m 17,7 km/h (3 Bft) SW 227 0 min 0,000 mm 0,0 UV-I 0 W/m 12,8 C 8,7 C 24,1 km/h (4 Bft) 100,00 %
14.06.2016 22:26 13,7 C 93 % 1000,9 hPa 0,0 l/m 19,1 km/h (3 Bft) SW 236 0 min 0,000 mm 0,0 UV-I 0 W/m 12,6 C 8,3 C 27,4 km/h (4 Bft) 100,00 %
14.06.2016 22:27 13,7 C 93 % 1000,9 hPa 0,0 l/m 15,9 km/h (3 Bft) SW 231 0 min 0,000 mm 0,0 UV-I 0 W/m 12,6 C 9,3 C 22,5 km/h (4 Bft) 100,00 %
14.06.2016 22:28 13,6 C 93 % 1000,9 hPa 0,2 l/m 18,1 km/h (3 Bft) SW 221 0 min 0,000 mm 0,0 UV-I 0 W/m 12,5 C 8,5 C 25,7 km/h (4 Bft) 100,00 %
14.06.2016 22:29 13,6 C 94 % 1000,9 hPa 0,0 l/m 16,1 km/h (3 Bft) SW 222 0 min 0,000 mm 0,0 UV-I 0 W/m 12,7 C 9,1 C 19,3 km/h (3 Bft) 68,97 %
14.06.2016 22:30 13,6 C 94 % 1000,9 hPa 0,0 l/m 18,6 km/h (3 Bft) SW 231 0 min 0,000 mm 0,0 UV-I 0 W/m 12,7 C 8,3 C 25,7 km/h (4 Bft) 95,83 %
14.06.2016 22:31 13,6 C 94 % 1000,9 hPa 0,0 l/m 14,0 km/h (3 Bft) S 183 0 min 0,000 mm 0,0 UV-I 0 W/m 12,7 C 9,9 C 16,1 km/h (3 Bft) 33,33 %
14.06.2016 22:32 13,6 C 94 % 1001,0 hPa 0,2 l/m 16,3 km/h (3 Bft) SW 232 0 min 0,000 mm 0,0 UV-I 0 W/m 12,7 C 9,1 C 24,1 km/h (4 Bft) 69,57 %
14.06.2016 22:33 13,6 C 94 % 1000,9 hPa 0,0 l/m 14,6 km/h (3 Bft) SW 234 0 min 0,000 mm 0,0 UV-I 0 W/m 12,7 C 9,6 C 24,1 km/h (4 Bft) 100,00 %
14.06.2016 22:34 13,6 C 94 % 1000,9 hPa 0,0 l/m 16,1 km/h (3 Bft) W-SW 246 0 min 0,000 mm 0,0 UV-I 0 W/m 12,7 C 9,1 C 20,9 km/h (4 Bft) 100,00 %
14.06.2016 22:35 13,6 C 94 % 1000,9 hPa 0,0 l/m 17,2 km/h (3 Bft) SW 228 0 min 0,000 mm 0,0 UV-I 0 W/m 12,7 C 8,8 C 24,1 km/h (4 Bft) 100,00 %
14.06.2016 22:36 13,6 C 94 % 1000,9 hPa 0,0 l/m 14,3 km/h (3 Bft) SW 225 0 min 0,000 mm 0,0 UV-I 0 W/m 12,7 C 9,7 C 20,9 km/h (4 Bft) 100,00 %
14.06.2016 22:37 13,5 C 94 % 1001,0 hPa 0,0 l/m 11,2 km/h (2 Bft) W-SW 238 0 min 0,000 mm 0,0 UV-I 0 W/m 12,6 C 10,9 C 14,5 km/h (3 Bft) 100,00 %
14.06.2016 22:38 13,5 C 94 % 1001,0 hPa 0,2 l/m 15,0 km/h (3 Bft) W-SW 252 0 min 0,000 mm 0,0 UV-I 0 W/m 12,6 C 9,4 C 24,1 km/h (4 Bft) 86,21 %
14.06.2016 22:39 13,5 C 94 % 1001,0 hPa 0,0 l/m 19,0 km/h (3 Bft) W-SW 250 0 min 0,000 mm 0,0 UV-I 0 W/m 12,6 C 8,1 C 27,4 km/h (4 Bft) 100,00 %
14.06.2016 22:40 13,5 C 94 % 1001,0 hPa 0,0 l/m 15,2 km/h (3 Bft) W-SW 240 0 min 0,000 mm 0,0 UV-I 0 W/m 12,6 C 9,3 C 19,3 km/h (3 Bft) 73,08 %
14.06.2016 22:41 13,5 C 94 % 1001,0 hPa 0,0 l/m 10,8 km/h (2 Bft) SW 219 0 min 0,000 mm 0,0 UV-I 0 W/m 12,6 C 11,1 C 14,5 km/h (3 Bft) 46,67 %
14.06.2016 22:42 13,4 C 94 % 1001,0 hPa 0,2 l/m 13,3 km/h (3 Bft) W 261 0 min 0,000 mm 0,0 UV-I 0 W/m 12,5 C 9,9 C 19,3 km/h (3 Bft) 90,91 %
14.06.2016 22:43 13,4 C 94 % 1001,0 hPa 0,0 l/m 11,4 km/h (2 Bft) W 261 0 min 0,000 mm 0,0 UV-I 0 W/m 12,5 C 10,7 C 19,3 km/h (3 Bft) 100,00 %
14.06.2016 22:44 13,4 C 94 % 1001,0 hPa 0,0 l/m 13,0 km/h (3 Bft) W-SW 238 0 min 0,000 mm 0,0 UV-I 0 W/m 12,5 C 10,0 C 20,9 km/h (4 Bft) 100,00 %
14.06.2016 22:45 13,4 C 94 % 1001,0 hPa 0,0 l/m 10,2 km/h (2 Bft) SW 215 0 min 0,000 mm 0,0 UV-I 0 W/m 12,5 C 11,3 C 12,9 km/h (3 Bft) 100,00 %
14.06.2016 22:46 13,4 C 94 % 1001,0 hPa 0,0 l/m 13,2 km/h (3 Bft) W-SW 252 0 min 0,000 mm 0,0 UV-I 0 W/m 12,5 C 9,9 C 17,7 km/h (3 Bft) 100,00 %
14.06.2016 22:47 13,4 C 94 % 1001,0 hPa 0,0 l/m 12,6 km/h (3 Bft) W 259 0 min 0,000 mm 0,0 UV-I 0 W/m 12,5 C 10,2 C 19,3 km/h (3 Bft) 100,00 %
14.06.2016 22:48 13,4 C 94 % 1001,0 hPa 0,2 l/m 12,0 km/h (2 Bft) W-SW 244 0 min 0,000 mm 0,0 UV-I 0 W/m 12,5 C 10,4 C 16,1 km/h (3 Bft) 88,89 %
14.06.2016 22:49 13,4 C 94 % 1001,0 hPa 0,0 l/m 14,4 km/h (3 Bft) W-SW 255 0 min 0,000 mm 0,0 UV-I 0 W/m 12,5 C 9,5 C 20,9 km/h (4 Bft) 100,00 %
14.06.2016 22:50 13,4 C 94 % 1001,1 hPa 0,0 l/m 13,3 km/h (3 Bft) W-SW 253 0 min 0,000 mm 0,0 UV-I 0 W/m 12,5 C 9,9 C 19,3 km/h (3 Bft) 60,98 %
14.06.2016 22:51 13,4 C 94 % 1001,1 hPa 0,0 l/m 12,1 km/h (2 Bft) W-SW 249 0 min 0,000 mm 0,0 UV-I 0 W/m 12,5 C 10,4 C 20,9 km/h (4 Bft) 60,00 %
14.06.2016 22:52 13,4 C 94 % 1001,1 hPa 0,0 l/m 13,2 km/h (3 Bft) SW 236 0 min 0,000 mm 0,0 UV-I 0 W/m 12,5 C 9,9 C 19,3 km/h (3 Bft) 96,67 %
14.06.2016 22:53 13,4 C 94 % 1001,1 hPa 0,2 l/m 10,3 km/h (2 Bft) W-SW 237 0 min 0,000 mm 0,0 UV-I 0 W/m 12,5 C 11,2 C 16,1 km/h (3 Bft) 100,00 %
14.06.2016 22:54 13,4 C 94 % 1001,1 hPa 0,0 l/m 9,8 km/h (2 Bft) SW 234 0 min 0,000 mm 0,0 UV-I 0 W/m 12,5 C 11,5 C 14,5 km/h (3 Bft) 93,33 %
14.06.2016 22:55 13,4 C 94 % 1001,1 hPa 0,0 l/m 11,8 km/h (2 Bft) W 260 0 min 0,000 mm 0,0 UV-I 0 W/m 12,5 C 10,5 C 14,5 km/h (3 Bft) 100,00 %
14.06.2016 22:56 13,4 C 94 % 1001,0 hPa 0,0 l/m 8,9 km/h (2 Bft) SW 225 0 min 0,000 mm 0,0 UV-I 0 W/m 12,5 C 11,9 C 12,9 km/h (3 Bft) 95,83 %
14.06.2016 22:57 13,4 C 94 % 1001,1 hPa 0,2 l/m 11,2 km/h (2 Bft) SW 219 0 min 0,000 mm 0,0 UV-I 0 W/m 12,5 C 10,8 C 19,3 km/h (3 Bft) 93,10 %
14.06.2016 22:58 13,3 C 94 % 1001,0 hPa 0,0 l/m 13,6 km/h (3 Bft) W-SW 243 0 min 0,000 mm 0,0 UV-I 0 W/m 12,4 C 9,7 C 17,7 km/h (3 Bft) 100,00 %
14.06.2016 22:59 13,3 C 94 % 1001,0 hPa 0,0 l/m 12,0 km/h (2 Bft) W-SW 252 0 min 0,000 mm 0,0 UV-I 0 W/m 12,4 C 10,3 C 16,1 km/h (3 Bft) 91,30 %
14.06.2016 23:00 13,3 C 94 % 1001,0 hPa 0,2 l/m 13,5 km/h (3 Bft) SW 223 0 min 0,000 mm 0,0 UV-I 0 W/m 12,4 C 9,7 C 22,5 km/h (4 Bft) 100,00 %
14.06.2016 23:01 13,3 C 94 % 1001,0 hPa 0,0 l/m 8,9 km/h (2 Bft) SW 227 0 min 0,025 mm 0,0 UV-I 0 W/m 12,4 C 11,8 C 12,9 km/h (3 Bft) 91,30 %
14.06.2016 23:02 13,3 C 94 % 1001,0 hPa 0,0 l/m 11,6 km/h (2 Bft) W-SW 250 0 min 0,000 mm 0,0 UV-I 0 W/m 12,4 C 10,5 C 16,1 km/h (3 Bft) 95,83 %
14.06.2016 23:03 13,3 C 94 % 1001,0 hPa 0,0 l/m 13,9 km/h (3 Bft) SW 223 0 min 0,000 mm 0,0 UV-I 0 W/m 12,4 C 9,5 C 19,3 km/h (3 Bft) 95,65 %
14.06.2016 23:04 13,3 C 94 % 1001,0 hPa 0,0 l/m 12,0 km/h (2 Bft) W-SW 246 0 min 0,000 mm 0,0 UV-I 0 W/m 12,4 C 10,3 C 16,1 km/h (3 Bft) 96,30 %
14.06.2016 23:05 13,3 C 94 % 1001,0 hPa 0,0 l/m 10,3 km/h (2 Bft) W 265 0 min 0,000 mm 0,0 UV-I 0 W/m 12,4 C 11,1 C 16,1 km/h (3 Bft) 100,00 %
14.06.2016 23:06 13,3 C 94 % 1001,0 hPa 0,0 l/m 9,8 km/h (2 Bft) W-SW 257 0 min 0,000 mm 0,0 UV-I 0 W/m 12,4 C 11,3 C 14,5 km/h (3 Bft) 100,00 %
14.06.2016 23:07 13,3 C 94 % 1001,0 hPa 0,2 l/m 13,2 km/h (3 Bft) SW 234 0 min 0,000 mm 0,0 UV-I 0 W/m 12,4 C 9,8 C 17,7 km/h (3 Bft) 95,83 %
14.06.2016 23:08 13,3 C 94 % 1001,1 hPa 0,0 l/m 10,2 km/h (2 Bft) W-SW 248 0 min 0,000 mm 0,0 UV-I 0 W/m 12,4 C 11,1 C 16,1 km/h (3 Bft) 96,15 %
14.06.2016 23:09 13,3 C 94 % 1001,1 hPa 0,0 l/m 9,6 km/h (2 Bft) SW 224 0 min 0,000 mm 0,0 UV-I 0 W/m 12,4 C 11,4 C 11,3 km/h (2 Bft) 100,00 %
14.06.2016 23:10 13,3 C 95 % 1001,1 hPa 0,0 l/m 10,5 km/h (2 Bft) SW 229 0 min 0,000 mm 0,0 UV-I 0 W/m 12,5 C 11,0 C 14,5 km/h (3 Bft) 96,67 %
14.06.2016 23:11 13,3 C 95 % 1001,1 hPa 0,0 l/m 9,9 km/h (2 Bft) SW 227 0 min 0,000 mm 0,0 UV-I 0 W/m 12,5 C 11,3 C 12,9 km/h (3 Bft) 100,00 %
14.06.2016 23:12 13,3 C 95 % 1001,1 hPa 0,0 l/m 10,3 km/h (2 Bft) W-SW 242 0 min 0,000 mm 0,0 UV-I 0 W/m 12,5 C 11,1 C 16,1 km/h (3 Bft) 95,65 %
14.06.2016 23:13 13,3 C 95 % 1001,1 hPa 0,0 l/m 11,2 km/h (2 Bft) SW 236 0 min 0,000 mm 0,0 UV-I 0 W/m 12,5 C 10,7 C 16,1 km/h (3 Bft) 100,00 %
14.06.2016 23:14 13,3 C 95 % 1001,1 hPa 0,0 l/m 8,3 km/h (2 Bft) W-SW 247 0 min 0,000 mm 0,0 UV-I 0 W/m 12,5 C 12,1 C 12,9 km/h (3 Bft) 96,15 %
14.06.2016 23:15 13,3 C 95 % 1001,1 hPa 0,0 l/m 9,0 km/h (2 Bft) SW 226 0 min 0,000 mm 0,0 UV-I 0 W/m 12,5 C 11,8 C 14,5 km/h (3 Bft) 96,30 %
14.06.2016 23:16 13,3 C 95 % 1001,1 hPa 0,0 l/m 8,5 km/h (2 Bft) S 184 0 min 0,000 mm 0,0 UV-I 0 W/m 12,5 C 12,0 C 14,5 km/h (3 Bft) 100,00 %
14.06.2016 23:17 13,3 C 95 % 1001,1 hPa 0,0 l/m 7,7 km/h (2 Bft) W-SW 242 0 min 0,000 mm 0,0 UV-I 0 W/m 12,5 C 12,5 C 12,9 km/h (3 Bft) 96,30 %
14.06.2016 23:18 13,3 C 95 % 1001,1 hPa 0,0 l/m 11,2 km/h (2 Bft) SW 232 0 min 0,000 mm 0,0 UV-I 0 W/m 12,5 C 10,7 C 16,1 km/h (3 Bft) 92,86 %
14.06.2016 23:19 13,3 C 95 % 1001,2 hPa 0,0 l/m 7,1 km/h (2 Bft) SW 215 0 min 0,000 mm 0,0 UV-I 0 W/m 12,5 C 12,9 C 12,9 km/h (3 Bft) 96,67 %
14.06.2016 23:20 13,3 C 95 % 1001,2 hPa 0,0 l/m 8,4 km/h (2 Bft) W-SW 240 0 min 0,000 mm 0,0 UV-I 0 W/m 12,5 C 12,1 C 12,9 km/h (3 Bft) 96,15 %
14.06.2016 23:21 13,3 C 95 % 1001,2 hPa 0,0 l/m 8,1 km/h (2 Bft) SW 235 0 min 0,000 mm 0,0 UV-I 0 W/m 12,5 C 12,3 C 14,5 km/h (3 Bft) 100,00 %
14.06.2016 23:22 13,3 C 95 % 1001,2 hPa 0,0 l/m 8,0 km/h (2 Bft) S-SW 209 0 min 0,000 mm 0,0 UV-I 0 W/m 12,5 C 12,3 C 11,3 km/h (2 Bft) 96,55 %
14.06.2016 23:23 13,3 C 95 % 1001,1 hPa 0,0 l/m 5,7 km/h (1 Bft) S-SW 200 0 min 0,000 mm 0,0 UV-I 0 W/m 12,5 C 13,3 C 6,4 km/h (2 Bft) 100,00 %
14.06.2016 23:24 13,3 C 95 % 1001,1 hPa 0,0 l/m 8,5 km/h (2 Bft) SW 215 0 min 0,000 mm 0,0 UV-I 0 W/m 12,5 C 12,0 C 12,9 km/h (3 Bft) 95,65 %
14.06.2016 23:25 13,3 C 95 % 1001,2 hPa 0,0 l/m 7,0 km/h (2 Bft) SW 232 0 min 0,000 mm 0,0 UV-I 0 W/m 12,5 C 12,9 C 11,3 km/h (2 Bft) 100,00 %
14.06.2016 23:26 13,3 C 95 % 1001,2 hPa 0,0 l/m 8,2 km/h (2 Bft) SW 217 0 min 0,000 mm 0,0 UV-I 0 W/m 12,5 C 12,2 C 12,9 km/h (3 Bft) 95,65 %
14.06.2016 23:27 13,3 C 95 % 1001,1 hPa 0,0 l/m 7,0 km/h (2 Bft) W-SW 246 0 min 0,000 mm 0,0 UV-I 0 W/m 12,5 C 12,9 C 11,3 km/h (2 Bft) 95,83 %
14.06.2016 23:28 13,3 C 95 % 1001,1 hPa 0,2 l/m 7,6 km/h (2 Bft) SW 231 0 min 0,000 mm 0,0 UV-I 0 W/m 12,5 C 12,6 C 11,3 km/h (2 Bft) 100,00 %
14.06.2016 23:29 13,3 C 95 % 1001,1 hPa 0,0 l/m 6,4 km/h (2 Bft) SW 214 0 min 0,000 mm 0,0 UV-I 0 W/m 12,5 C 13,3 C 9,7 km/h (2 Bft) 95,83 %
14.06.2016 23:30 13,3 C 95 % 1001,2 hPa 0,0 l/m 8,7 km/h (2 Bft) W-SW 238 0 min 0,000 mm 0,0 UV-I 0 W/m 12,5 C 11,9 C 12,9 km/h (3 Bft) 100,00 %
14.06.2016 23:31 13,3 C 95 % 1001,1 hPa 0,0 l/m 7,0 km/h (2 Bft) SW 223 0 min 0,000 mm 0,0 UV-I 0 W/m 12,5 C 12,9 C 9,7 km/h (2 Bft) 100,00 %
14.06.2016 23:32 13,3 C 95 % 1001,2 hPa 0,0 l/m 6,1 km/h (2 Bft) W-SW 244 0 min 0,000 mm 0,0 UV-I 0 W/m 12,5 C 13,3 C 9,7 km/h (2 Bft) 100,00 %
14.06.2016 23:33 13,3 C 95 % 1001,2 hPa 0,0 l/m 8,5 km/h (2 Bft) SW 220 0 min 0,000 mm 0,0 UV-I 0 W/m 12,5 C 12,0 C 12,9 km/h (3 Bft) 100,00 %
14.06.2016 23:34 13,3 C 95 % 1001,2 hPa 0,0 l/m 12,0 km/h (2 Bft) SW 225 0 min 0,000 mm 0,0 UV-I 0 W/m 12,5 C 10,3 C 19,3 km/h (3 Bft) 100,00 %
14.06.2016 23:35 13,3 C 95 % 1001,2 hPa 0,0 l/m 11,1 km/h (2 Bft) S-SW 207 0 min 0,000 mm 0,0 UV-I 0 W/m 12,5 C 10,7 C 17,7 km/h (3 Bft) 95,65 %
14.06.2016 23:36 13,3 C 95 % 1001,2 hPa 0,0 l/m 10,1 km/h (2 Bft) S-SW 196 0 min 0,000 mm 0,0 UV-I 0 W/m 12,5 C 11,2 C 12,9 km/h (3 Bft) 100,00 %
14.06.2016 23:37 13,3 C 95 % 1001,2 hPa 0,0 l/m 7,3 km/h (2 Bft) S 176 0 min 0,000 mm 0,0 UV-I 0 W/m 12,5 C 12,7 C 14,5 km/h (3 Bft) 100,00 %
14.06.2016 23:38 13,3 C 95 % 1001,1 hPa 0,0 l/m 8,4 km/h (2 Bft) S 184 0 min 0,000 mm 0,0 UV-I 0 W/m 12,5 C 12,1 C 11,3 km/h (2 Bft) 100,00 %
14.06.2016 23:39 13,3 C 95 % 1001,2 hPa 0,0 l/m 10,0 km/h (2 Bft) SW 228 0 min 0,000 mm 0,0 UV-I 0 W/m 12,5 C 11,2 C 14,5 km/h (3 Bft) 100,00 %
14.06.2016 23:40 13,3 C 95 % 1001,1 hPa 0,0 l/m 11,3 km/h (2 Bft) W-SW 242 0 min 0,000 mm 0,0 UV-I 0 W/m 12,5 C 10,6 C 16,1 km/h (3 Bft) 100,00 %
14.06.2016 23:41 13,3 C 95 % 1001,1 hPa 0,0 l/m 8,8 km/h (2 Bft) SW 225 0 min 0,000 mm 0,0 UV-I 0 W/m 12,5 C 11,9 C 14,5 km/h (3 Bft) 100,00 %
14.06.2016 23:42 13,3 C 95 % 1001,2 hPa 0,0 l/m 9,0 km/h (2 Bft) S-SW 208 0 min 0,000 mm 0,0 UV-I 0 W/m 12,5 C 11,8 C 9,7 km/h (2 Bft) 100,00 %
14.06.2016 23:43 13,3 C 95 % 1001,2 hPa 0,0 l/m 8,1 km/h (2 Bft) W-SW 238 0 min 0,000 mm 0,0 UV-I 0 W/m 12,5 C 12,3 C 11,3 km/h (2 Bft) 100,00 %
14.06.2016 23:44 13,3 C 95 % 1001,1 hPa 0,0 l/m 6,8 km/h (2 Bft) SW 235 0 min 0,000 mm 0,0 UV-I 0 W/m 12,5 C 13,1 C 11,3 km/h (2 Bft) 100,00 %
14.06.2016 23:45 13,3 C 95 % 1001,2 hPa 0,0 l/m 7,2 km/h (2 Bft) SW 218 0 min 0,000 mm 0,0 UV-I 0 W/m 12,5 C 12,8 C 9,7 km/h (2 Bft) 100,00 %
14.06.2016 23:46 13,3 C 95 % 1001,2 hPa 0,0 l/m 8,5 km/h (2 Bft) SW 214 0 min 0,000 mm 0,0 UV-I 0 W/m 12,5 C 12,0 C 11,3 km/h (2 Bft) 100,00 %
14.06.2016 23:47 13,3 C 95 % 1001,1 hPa 0,0 l/m 8,7 km/h (2 Bft) S-SW 204 0 min 0,000 mm 0,0 UV-I 0 W/m 12,5 C 11,9 C 11,3 km/h (2 Bft) 100,00 %
14.06.2016 23:48 13,3 C 95 % 1001,1 hPa 0,0 l/m 7,4 km/h (2 Bft) S-SW 213 0 min 0,000 mm 0,0 UV-I 0 W/m 12,5 C 12,7 C 9,7 km/h (2 Bft) 96,88 %
14.06.2016 23:49 13,3 C 95 % 1001,1 hPa 0,0 l/m 7,5 km/h (2 Bft) S 186 0 min 0,000 mm 0,0 UV-I 0 W/m 12,5 C 12,6 C 11,3 km/h (2 Bft) 100,00 %
14.06.2016 23:50 13,3 C 95 % 1001,1 hPa 0,0 l/m 7,4 km/h (2 Bft) W-SW 249 0 min 0,000 mm 0,0 UV-I 0 W/m 12,5 C 12,7 C 12,9 km/h (3 Bft) 100,00 %
14.06.2016 23:51 13,3 C 95 % 1001,0 hPa 0,0 l/m 6,5 km/h (2 Bft) S-SW 205 0 min 0,000 mm 0,0 UV-I 0 W/m 12,5 C 13,3 C 8,0 km/h (2 Bft) 100,00 %
14.06.2016 23:52 13,3 C 95 % 1001,1 hPa 0,0 l/m 6,8 km/h (2 Bft) S 187 0 min 0,000 mm 0,0 UV-I 0 W/m 12,5 C 13,1 C 9,7 km/h (2 Bft) 100,00 %
14.06.2016 23:53 13,3 C 95 % 1001,2 hPa 0,0 l/m 7,5 km/h (2 Bft) S-SW 193 0 min 0,000 mm 0,0 UV-I 0 W/m 12,5 C 12,6 C 11,3 km/h (2 Bft) 100,00 %
14.06.2016 23:54 13,3 C 95 % 1001,2 hPa 0,0 l/m 5,5 km/h (1 Bft) S-SW 213 0 min 0,000 mm 0,0 UV-I 0 W/m 12,5 C 13,3 C 8,0 km/h (2 Bft) 100,00 %
14.06.2016 23:55 13,3 C 95 % 1001,1 hPa 0,0 l/m 6,1 km/h (2 Bft) S-SW 210 0 min 0,000 mm 0,0 UV-I 0 W/m 12,5 C 13,3 C 8,0 km/h (2 Bft) 100,00 %
14.06.2016 23:56 13,3 C 95 % 1001,2 hPa 0,0 l/m 5,1 km/h (1 Bft) W-SW 242 0 min 0,000 mm 0,0 UV-I 0 W/m 12,5 C 13,3 C 8,0 km/h (2 Bft) 92,31 %
14.06.2016 23:57 13,3 C 95 % 1001,1 hPa 0,0 l/m 7,9 km/h (2 Bft) W-SW 240 0 min 0,000 mm 0,0 UV-I 0 W/m 12,5 C 12,4 C 12,9 km/h (3 Bft) 100,00 %
14.06.2016 23:58 13,3 C 95 % 1001,0 hPa 0,0 l/m 7,2 km/h (2 Bft) S 185 0 min 0,000 mm 0,0 UV-I 0 W/m 12,5 C 12,8 C 9,7 km/h (2 Bft) 100,00 %
14.06.2016 23:59 13,3 C 95 % 1001,0 hPa 0,0 l/m 7,2 km/h (2 Bft) S-SW 198 0 min 0,000 mm 0,0 UV-I 0 W/m 12,5 C 12,8 C 9,7 km/h (2 Bft) 100,00 %
_ Min-Zeit 01:34 18:15 18:23 - 13:53 - - - - - - 15:43 22:03 13:53 22:31
Minimum _ 12,7 C 56 % 998,6 hPa - 0,0 km/h (0 Bft) - - - - - - 11,9 C 7,5 C 0,0 km/h (0 Bft) 33,33 %
_ Max-Zeit 17:57 00:40 10:26 22:02 21:40 - - 09:02 16:00 15:05 15:07 20:18 17:03 21:40 00:02
Maximum _ 21,5 C 96 % 1002,5 hPa 0,6 l/m 31,6 km/h
SW (5 Bft)
- - 2 min 0,381 mm 6,1 UV-I 1150 W/m 15,5 C 21,4 C 40,2 km/h
W-SW (6 Bft)
100,00 %
Durchschnitt _ 16,3 C 82 % 1001,0 hPa #6,6 l/m 6,6 km/h (2 Bft) SW - #5:45 h #3,124 mm 2,4 UV-I 325 W/m 13,0 C 15,4 C 9,8 km/h (2 Bft) 98,48 %